     2.10           OBSERVATION DATA    G (GPS)             RINEX VERSION / TYPE
teqc 2000Feb29 20031216 21:54:56UTC                         PGM / RUN BY / DATE
cha2                                                        MARKER NAME
xxx                                                         MARKER NUMBER
CORS/NGS/NOAA U.S. Coast Guard                              OBSERVER / AGENCY
04954 ASHTECH Z-XII3 RD00                                   REC # / TYPE / VERS
11089 ASH700829.3                                           ANT # / TYPE
   946795.4534 -5284913.8546  3431354.5492                  APPROX POSITION XYZ
        0.0000        0.0000        0.0000                  ANTENNA: DELTA H/E/N
     1     1                                                WAVELENGTH FACT L1/2
     4    L1    L2    P1    P2                              # / TYPES OF OBSERV
    30.0000                                                 INTERVAL
MSWinNT 4.0|PentPro|bcc32 5.0|MSWin95/98/NT|486/DX+         COMMENT
teqc 2000Jul20 Chris Zhao 20021109 23:03:55UTC              COMMENT
Forced Modulo Decimation to 30 seconds                      COMMENT
  2002     8     5     0     3    0.0000000     GPS         TIME OF FIRST OBS
                                                            END OF HEADER
 02  8  5  0  3  0.0000000  0  7G 3G25G20G 2G22G 1G13
  -6643839.17648  -5018247.72046  22469292.8384   22469297.5464
  11902525.32448   9950952.07246  22659904.8544   22659912.2524
    -79373.03848    296760.00746  22796680.9914   22796688.2844
  -8012782.32549  -6078185.78147  21049713.5044   21049716.9774
 -12302907.95149  -9376684.97647  19969477.4244   19969483.9164
 -10821069.96748  -8047823.19947  21512338.1024   21512343.3984
  -4682479.61047  -3484827.43745  23891664.0994   23891671.2154
 02  8  5  0  3 30.0000000  0  7G 3G25G20G 2G22G 1G13
  -6695657.09148  -5058625.18946  22459430.7114   22459437.0604
  11987203.16748  10016934.79246  22676014.2704   22676025.9954
     21647.82648    375477.53646  22815903.9064   22815912.0624
  -7974582.72648  -6048419.87546  21056976.0544   21056986.2324
 -12237738.28649  -9325903.31347  19981879.2904   19981885.0404
 -10850747.09448  -8070948.16947  21506691.3134   21506695.2714
  -4744504.73047  -3533158.61745  23879863.2354   23879867.5084
 02  8  5  0  4  0.0000000  0  7G 3G25G20G 2G22G 1G13
  -6747132.10947  -5098735.57945  22449632.6704   22449642.6984
  12072095.92648  10083085.00046  22692169.1254   22692181.2084
    123106.30848    454536.08246  22835210.6734   22835220.2284
  -7935970.77749  -6018332.61947  21064330.8104   21064333.6844
 -12172018.55649  -9274693.21847  19994385.1814   19994391.3424
 -10880006.92948  -8093747.96147  21501121.4454   21501127.7854
  -4806322.50547  -3581328.21245  23868098.7924   23868104.3114
 02  8  5  0  4 30.0000000  0  7G 3G25G20G 2G22G 1G13
  -6798313.72848  -5138617.41246  22439896.8084   22439902.5194
  12157151.63448  10149362.15146  22708359.3954   22708365.9544
    224947.13148    533892.53446  22854591.1854   22854599.6334
  -7896999.94948  -5987965.71446  21071739.3494   21071749.4094
 -12105803.25448  -9223096.80547  20006985.5414   20006991.8194
 -10908899.57448  -8116261.67746  21495620.3804   21495629.5674
  -4867982.83247  -3629375.13045  23856364.6244   23856369.4024
 02  8  5  0  5  0.0000000  0  7G 3G25G20G 2G22G 1G13
  -6849269.10248  -5178322.76446  22430199.6054   22430205.2114
  12242300.72247  10215712.04246  22724568.3154   22724568.8274
    327097.23448    613490.00046  22874030.8474   22874037.6524
  -7857741.72549  -5957374.91347  21079216.5694   21079219.9544
 -12039164.22149  -9171170.32247  20019666.4144   20019672.4714
 -10937492.64648  -8138541.95546  21490179.8674   21490188.7684
  -4929553.56747  -3677352.22145  23844647.1824   23844652.3794
 02  8  5  0  5 30.0000000  0  7G 3G25G20G 2G22G 1G13
  -6899942.06847  -5217808.06845  22420555.7394   22420562.2014
  12327596.31848  10282176.08846  22740798.2614   22740800.7994
    429606.68048    693367.45446  22893538.9094   22893545.0254
  -7818143.99648  -5926519.46746  21086746.2764   21086755.3024
 -11972050.47448  -9118873.85347  20032438.3874   20032443.7014
 -10965730.63248  -8160545.52346  21484804.1784   21484814.3004
  -4990979.37447  -3725216.40845  23832958.8474   23832965.2664
 02  8  5  0  6  0.0000000  0  7G 3G25G20G 2G22G 1G13
  -6950431.23447  -5257150.30845  22410947.8284   22410957.4394
  12412937.41448  10348675.60146  22757032.2624   22757039.7394
    532370.89548    773443.42346  22913095.3004   22913100.0324
  -7778309.72449  -5895479.83847  21094331.9144   21094335.4934
 -11904565.53349  -9066288.20547  20045279.9664   20045285.3394
 -10993712.63748  -8182349.64346  21479479.8874   21479489.6074
  -5052359.37747  -3773044.89745  23821277.6724   23821284.8324
 02  8  5  0  6 30.0000000  0  7G 3G25G20G 2G22G 1G13
  -7000641.98648  -5296275.52146  22401393.9204   22401400.1894
  12498415.85648  10415282.16346  22773294.6194   22773306.8914
    635478.88748    853787.28446  22932716.3644   22932720.8994
  -7738148.21848  -5864185.05547  21101969.8294   21101978.2304
 -11836619.29848  -9013343.09147  20058210.2314   20058215.2984
 -11021344.65148  -8203881.04347  21474224.3204   21474232.2384
  -5113599.51747  -3820764.40645  23809623.3494   23809630.4084
 02  8  5  0  7  0.0000000  0  7G 3G25G20G 2G22G 1G13
  -7050536.91448  -5335154.54746  22391899.1394   22391905.4914
  12584066.72248  10482023.08746  22789595.0124   22789605.5904
    738961.84648    934423.32646  22952408.4484   22952412.0844
  -7697626.15348  -5832609.49847  21109684.7954   21109688.8024
 -11768179.59649  -8960013.43247  20071233.2654   20071238.6734
 -11048589.73048  -8225110.93547  21469040.2154   21469047.2774
  -5174662.77347  -3868346.11245  23798004.7244   23798009.6504
 02  8  5  0  7 30.0000000  0  7G 3G25G20G 2G22G 1G13
  -7100144.70947  -5373809.86046  22382458.7624   22382466.3434
  12669858.87648  10548874.08246  22805924.3224   22805931.6914
    842785.02948   1015324.48246  22972164.3624   22972170.0594
  -7656776.77248  -5800778.68847  21117456.3464   21117462.4144
 -11699279.84749  -8906325.35847  20084345.0534   20084349.7354
 -11075477.35848  -8246062.29547  21463925.4294   21463930.2394
  -5235578.70447  -3915813.01945  23786412.6094   23786418.8794
 02  8  5  0  8  0.0000000  0  7G 3G25G20G 2G22G 1G13
  -7149435.65547  -5412218.44845  22373079.3054   22373086.6944
  12755818.92648  10615855.89746  22822285.7414   22822289.8584
    946972.10148   1096509.17646  22991990.7754   22991996.2294
  -7615574.49448  -5768673.11047  21125297.4454   21125302.9274
 -11629895.82949  -8852259.82547  20097547.6934   20097552.7184
 -11101978.53449  -8266712.49947  21458883.6064   21458887.5364
  -5296318.17147  -3963142.40645  23774854.7964   23774859.7604
 02  8  5  0  8 30.0000000  0  7G 3G25G20G 2G22G 1G13
  -7198448.84948  -5450410.45746  22363752.3894   22363759.0874
  12841905.72548  10682936.47346  22838668.0764   22838670.4584
   1051478.15848   1177942.44446  23011876.7374   23011883.6784
  -7574062.36848  -5736325.88347  21133197.3514   21133202.3514
 -11560070.83249  -8797850.79947  20110835.2464   20110840.3064
 -11128132.36549  -8287092.06447  21453906.1284   21453910.9374
  -5356920.77947  -4010365.16045  23763322.6194   23763328.1974
 02  8  5  0  9  0.0000000  0  7G 3G25G20G 2G22G 1G13
  -7247204.70248  -5488401.88046  22354474.1894   22354480.7334
  12928096.17248  10750097.81146  22855067.5804   22855071.9184
   1156276.73648   1259603.64546  23031818.1374   23031825.9814
  -7532265.07648  -5703756.65947  21141149.7744   21141155.8514
 -11489830.78449  -8743118.21447  20124201.2394   20124206.5834
 -11153960.10049  -8307217.55747  21448991.1984   21448995.9324
  -5417407.40647  -4057497.56845  23751813.0554   23751818.2954
 02  8  5  0  9 30.0000000  0  7G 3G25G20G 2G22G 1G13
  -7295639.48647  -5526143.21946  22345256.5654   22345266.0444
  13014451.33948  10817387.51946  22871496.9574   22871505.1094
   1261425.56048   1341537.75946  23051826.9644   23051835.0764
  -7490123.56948  -5670919.01247  21149171.0544   21149174.9964
 -11419116.65949  -8688016.37947  20137657.5774   20137662.8364
 -11179398.75349  -8327039.84747  21444151.6734   21444154.0514
  -5477714.81547  -4104490.30745  23740336.3104   23740342.2624
 02  8  5  0 10  0.0000000  0  7G 3G25G20G 2G22G 1G13
  -7343777.73948  -5563653.57946  22336097.1784   22336103.9504
  13100943.94348  10884784.34146  22887953.8444   22887964.7244
   1366893.79348   1423720.74046  23071896.6424   23071904.4714
  -7447666.02148  -5637835.29046  21157247.1754   21157254.4874
 -11347958.07749  -8632568.05047  20151199.3224   20151204.1054
 -11204473.41049  -8346578.48447  21439379.8194   21439383.0804
  -5537868.21047  -4151363.08945  23728889.9214   23728893.9584
 02  8  5  0 10 30.0000000  0  7G 3G25G20G 2G22G 1G13
  -7391651.81048  -5600957.92146  22326986.3274   22326992.0494
  13187539.40448  10952261.32646  22904432.7444   22904442.6584
   1472643.48348   1506123.05846  23092019.7554   23092027.2624
  -7404929.36648  -5604533.90247  21165383.2224   21165387.1424
 -11276392.26249  -8576802.53947  20164817.1114   20164822.3434
 -11229216.77549  -8365859.02247  21434670.2654   21434675.6444
  -5597900.44847  -4198141.43845  23717465.5974   23717471.8734
 02  8  5  0 11  0.0000000  0  7G 3G25G20G 2G22G 1G13
  -7439166.22548  -5637982.00946  22317944.3434   22317951.5264
  13274330.51348  11019890.74946  22920950.2004   22920959.0834
   1578764.11748   1588814.43446  23112214.3904   23112221.5794
  -7361821.84348  -5570943.69346  21173582.0804   21173590.3144
 -11204328.63948  -8520649.00147  20178531.2904   20178536.2104
 -11253533.89849  -8384807.43047  21430043.6364   21430047.2924
  -5657716.50547  -4244751.33345  23706081.8524   23706088.0484
 02  8  5  0 11 30.0000000  0  8G 3G25G31G20G 2G22G 1G13
  -7486328.59047  -5674731.87945  22308969.5664   22308979.1584
  13361306.70548  11087664.35946  22937505.0754   22937509.9474
   -438088.71956   -325715.51344  24891478.1394   24891490.2184
   1685241.51248   1671783.79046  23132476.5514   23132483.8364
  -7318356.21349  -5537074.28647  21181858.1174   21181861.5234
 -11131780.16049  -8464117.76247  20192335.7114   20192341.0394
 -11277433.30549  -8403430.31247  21425495.1654   21425498.7154
  -5717324.96947  -4291199.46745  23694739.1664   23694745.4624
 02  8  5  0 12  0.0000000  0  8G 3G25G31G20G 2G22G 1G13
  -7533159.63848  -5711223.61346  22300058.6534   22300065.2324
  13448445.11348  11155564.38746  22954088.9034   22954091.3434
   -514611.89046   -385343.71545  24876920.2134   24876926.1764
   1792049.17248   1755010.50846  23152802.6524   23152808.8324
  -7274556.52848  -5502944.71046  21190187.1394   21190196.3284
 -11058772.13248  -8407228.36747  20206230.6044   20206234.6654
 -11300936.06448  -8421744.13447  21421021.1844   21421026.6844
  -5776746.53947  -4337501.94645  23683431.6824   23683439.2174
 02  8  5  0 12 30.0000000  0  8G 3G25G31G20G 2G22G 1G13
  -7579703.04248  -5747491.04946  22291201.3674   22291206.7084
  13535699.67248  11223554.93546  22970691.2494   22970695.6704
   -591228.92446   -445045.06344  24862339.3744   24862347.4694
   1899137.83848   1838456.19146  23173181.4944   23173187.4724
  -7230471.03448  -5468592.32047  21198581.8144   21198585.3934
 -10985353.35149  -8350018.92747  20220199.6734   20220205.4154
 -11324086.32248  -8439783.30347  21416615.3644   21416622.3914
  -5836025.32747  -4383693.17545  23672149.2064   23672157.9904
 02  8  5  0 13  0.0010000  0  8G 3G25G31G20G 2G22G 1G13
  -7625943.39848  -5783522.38746  22282402.5634   22282409.5104
  13623087.63448  11291649.44446  22987318.2804   22987325.1184
   -667925.55846   -504808.44244  24847738.0614   24847749.8704
   2006521.94348   1922132.08346  23193616.7134   23193622.2274
  -7186085.03448  -5434005.85246  21207022.3994   21207031.6584
 -10911509.02049  -8292477.91847  20234253.0614   20234258.1234
 -11346868.40248  -8457535.56847  21412279.7824   21412286.2524
  -5895146.60147  -4429761.62645  23660899.0834   23660906.8524
 02  8  5  0 13 30.0010000  0  7G 3G25G20G 2G22G 1G13
  -7671840.09747  -5819286.06645  22273666.3814   22273675.8064
  13710638.04848  11359870.55346  23003975.7934   23003985.1904
   2114225.66248   2006057.03146  23214112.8654   23214117.7594
  -7141368.99449  -5399162.14247  21215537.4354   21215540.7494
 -10837212.11049  -8234584.17447  20248390.0744   20248395.7774
 -11369244.15748  -8474971.22146  21408020.0054   21408026.9864
  -5954069.78347  -4475675.71345  23649687.3684   23649694.2814
 02  8  5  0 14  0.0010000  0  7G 3G25G20G 2G22G 1G13
  -7717424.67148  -5854806.44346  22264994.2874   22264999.9324
  13798321.01448  11428194.95746  23020661.8164   23020670.7564
   2222216.57348   2090205.76246  23234663.8194   23234668.2444
  -7096355.16148  -5364086.42346  21224096.8844   21224106.7424
 -10762494.75149  -8176362.92347  20262608.8284   20262614.3314
 -11391244.79148  -8492114.56447  21403833.6584   21403841.6794
  -6012827.09147  -4521460.54045  23638505.5624   23638513.0374
 02  8  5  0 14 30.0010000  0  7G 3G25G20G 2G22G 1G13
  -7762664.06648  -5890057.76946  22256385.0874   22256391.3654
  13886167.45348  11496646.74146  23037379.3754   23037387.7694
   2330521.47548   2174599.14946  23255272.8794   23255277.1814
  -7051014.98649  -5328756.40547  21232731.4394   21232734.9714
 -10687329.30349  -8117792.36147  20276912.3524   20276917.7214
 -11412837.84148  -8508940.31447  21399723.4934   21399733.6574
  -6071386.02547  -4567090.77445  23627364.4084   23627369.1124
 02  8  5  0 15  0.0010000  0  8G 3G25G31G20G 2G22G 1G13
  -7807572.24348  -5925051.05946  22247838.7394   22247846.8574
  13974160.72448  11565212.94046  23054125.6434   23054132.2714
    -41508.82854    -16464.39643
   2439120.49148   2259221.72246  23275938.2714   23275941.7404
  -7005366.31948  -5293185.99346  21241411.9264   21241421.7094
 -10611734.30849  -8058887.25947  20291296.7954   20291303.2544
 -11434037.96048  -8525459.88446  21395687.9004   21395698.5344
  -6129761.02747  -4612577.67845  23616256.1214   23616260.5644
 02  8  5  0 15 30.0010000  0  8G 3G25G31G20G 2G22G 1G13
  -7852139.85848  -5959779.09446  22239358.0454   22239364.6564
  14062307.48848  11633898.74246  23070901.5494   23070905.5914
   -118446.62444    -76415.49444
   2548016.96448   2344076.08846  23296659.7454   23296664.6614
  -6959404.41649  -5257371.52847  21250163.9934   21250167.5044
 -10535705.90049  -7999644.25847  20305765.4274   20305770.9744
 -11454836.30848  -8541666.36446  21391730.9504   21391739.6594
  -6187943.32647  -4657914.42845  23605184.2024   23605188.8714
 02  8  5  0 16  0.0010000  0  8G 3G25G31G20G 2G22G 1G13
  -7896376.85348  -5994249.39646  22230940.4814   22230945.6784
  14150595.76048  11702694.79746  23087703.0594   23087706.3954
   -195437.47144   -136406.98943
   2657195.14348   2429149.95746  23317436.1604   23317441.7104
  -6913142.81248  -5221323.49846  21258960.8474   21258970.6514
 -10459258.44149  -7940074.89547  20320311.6434   20320318.3404
 -11475243.00148  -8557567.63946  21387848.2814   21387856.9094
  -6245942.70547  -4703108.63145  23594147.5594   23594152.4924
 02  8  5  0 16 30.0010000  0  8G 3G25G31G20G 2G22G 1G13
  -7940274.00548  -6028454.83846  22222587.3804   22222594.1014
  14239032.37748  11771606.45146  23104531.3034   23104535.4404
   -272472.14244    -12478.76443
   2766658.49348   2514446.04446  23338264.7214   23338270.8814
  -6866576.72449  -5185038.25847  21267828.4184   21267831.5824
 -10382387.55948  -7880175.44747  20334941.9274   20334946.5094
 -11495249.37048  -8573156.98847  21384041.1714   21384051.2184
  -6303750.22747  -4748153.34545  23583146.2364   23583151.0894
 02  8  5  0 17  0.0010000  0  7G 3G25G20G 2G22G 1G13
  -7983769.90148  -6062347.69646  22214308.9994   22214316.4514
  14327675.83448  11840679.27846  23121397.3474   23121403.7274
   2876461.73048   2600006.98446  23359159.9344   23359165.6234
  -6819649.21448  -5148471.33146  21276752.3614   21276761.7924
 -10305037.56149  -7819902.76547  20349658.8144   20349665.5164
 -11514795.09348  -8588387.38947  21380322.4354   21380331.0224
  -6361305.69647  -4793001.64845  23572194.0334   23572199.5614
 02  8  5  0 17 30.0010000  0  7G 3G25G20G 2G22G 1G13
  -8026963.04748  -6096004.70346  22206088.9104   22206095.7424
  14416425.51848  11909834.88046  23138283.8064   23138291.9364
   2986500.66048   2685751.56446  23380099.5524   23380106.0834
  -6772463.04749  -5111702.91847  21285737.5344   21285741.2284
 -10227311.56948  -7759337.04447  20364451.9634   20364456.7344
 -11533978.96348  -8603335.80147  21376672.9734   21376679.7624
  -6418707.56147  -4837730.26945  23561270.7914   23561277.0554
 02  8  5  0 18  0.0010000  0  8G 3G25G31G20G 2G22G 1G13
  -8069827.96948  -6129405.82546  22197933.6994   22197938.9604
  14505304.21648  11979091.01946  23155195.3834   23155205.1154
    -56593.52854    -28525.47943
   3096794.99148   2771695.14646  23401086.6484   23401094.5344
  -6724996.46748  -5074715.92246  21294764.5334   21294774.1514
 -10149188.92049  -7698462.24147  20379315.6974   20379322.3294
 -11552775.96248  -8617982.73547  21373095.2534   21373103.0444
  -6475930.51947  -4882319.49645  23550380.9654   23550386.5234
 02  8  5  0 18 30.0010000  0  8G 3G25G31G20G 2G22G 1G13
  -8112318.76348  -6162515.43446  22189847.9334   22189855.2274
  14594355.50248  12048481.63046  23172141.5734   23172150.3744
   -133760.75444    -88655.23744
   3207384.33748   2857868.63746  23422131.1634   23422138.4794
  -6677207.97249  -5037478.18147  21303863.8434   21303867.5964
 -10070628.73849  -7637246.55647  20394267.1034   20394272.1114
 -11571140.83948  -8632292.97447  21369601.6614   21369609.3454
  -6532928.95347  -4926733.74945  23539533.8764   23539538.4444
 02  8  5  0 19  0.0010000  0  8G 3G25G31G20G 2G22G 1G13
  -8154451.66947  -6195346.24146  22181828.6384   22181835.9714
  14683560.23548  12117991.80846  23189117.2694   23189126.3814
   -210955.41047   -148806.84245  24671933.3154   24671939.8164
   3318246.37848   2944254.61046  23443227.6084   23443235.4804
  -6629117.99748  -5000005.40446  21313009.7454   21313019.3294
  -9991652.62649  -7575706.66247  20409294.5964   20409300.2674
 -11589090.56749  -8646279.72447  21366186.4444   21366193.3244
  -6589719.90847  -4970986.36145  23528726.1764   23528731.9244
 02  8  5  0 19 30.0010000  0  8G 3G25G31G20G 2G22G 1G13
  -8196247.93548  -6227914.77546  22173876.7224   22173881.3374
  14772894.97548  12187603.28246  23206119.4394   23206126.3004
   -288198.88147   -208996.30245  24657230.1954   24657241.2354
   3429354.13248   3030832.03846  23464369.6834   23464378.6654
  -6580752.15049  -4962317.80147  21322218.4854   21322222.7284
  -9912286.47649  -7513862.98047  20424398.0054   20424403.4654
 -11606646.85848  -8659959.88047  21362845.4124   21362850.8774
  -6646324.60347  -5015093.84345  23517953.9254   23517959.8864
 02  8  5  0 20  0.0010000  0  8G 3G25G31G20G 2G22G 1G13
  -8237665.75448  -6260188.28046  22165994.7734   22166002.0214
  14862399.29748  12257346.90246  23223153.4424   23223157.5084
   -365449.24746   -269191.20044  24642525.4884   24642542.5774
   3540743.41848   3117628.85046  23485566.4304   23485575.3404
  -6532072.40448  -4924385.46146  21331476.5294   21331486.4004
  -9832493.56849  -7451686.59647  20439582.1114   20439587.6224
 -11623768.29849  -8673301.20147  21359589.2534   21359593.1524
  -6702701.54547  -5059023.88445  23507227.3984   23507232.9754
 02  8  5  0 20 30.0010000  0  8G 3G25G31G20G 2G22G 1G13
  -8278749.50448  -6292201.52246  22158176.9264   22158183.7404
  14952026.19248  12327186.03246  23240209.9764   23240213.6034
   -442751.19746   -329426.28244  24627818.4464   24627829.5314
   3652363.80948   3204605.75246  23506807.0114   23506815.5974
  -6483127.66448  -4886246.77747  21340795.6834   21340799.8744
  -9752323.01149  -7389216.11147  20454837.5464   20454843.6014
 -11640499.86749  -8686338.72847  21356404.9464   21356410.7054
  -6758895.39847  -5102811.25745  23496532.8024   23496539.7734
 02  8  5  0 21  0.0010000  0  8G 3G25G31G20G 2G22G 1G13
  -8319502.04047  -6323956.72646  22150421.4594   22150427.9934
  15041770.41448  12397116.57246  23257288.3464   23257291.7664
   -520107.81746   -389703.91044  24613104.9874   24613108.9744
   3764206.44248   3291755.83646  23528090.1624   23528099.0884
  -6433924.76848  -4847906.77846  21350154.0844   21350163.1574
  -9671783.07349  -7326457.64047  20470165.3054   20470169.7264
 -11656845.14149  -8699075.26047  21353293.9874   21353299.8084
  -6814909.18247  -5146458.32845  23485874.2524   23485880.0054
 02  8  5  0 21 30.0010000  0  8G 3G25G31G20G 2G22G 1G13
  -8359891.61248  -6355429.07246  22142735.7114   22142742.6514
  15131661.50948  12467161.53846  23274393.0984   23274397.1424
   -597487.16947   -449999.23445  24598379.2344   24598384.3234
   3876297.42548   3379099.42946  23549420.5374   23549429.0604
  -6384435.87948  -4809344.08147  21359575.9184   21359580.3274
  -9590846.35149  -7263390.12547  20485565.0814   20485571.0134
 -11672772.60449  -8711486.23247  21350263.8894   21350267.3794
  -6870711.22647  -5189940.39845  23475254.0434   23475262.5394
 02  8  5  0 22  0.0010000  0  8G 3G25G31G20G 2G22G 1G13
  -8399961.43448  -6386652.21346  22135110.6584   22135118.4394
  15221653.64448  12537285.25246  23291517.0284   23291521.9864
   -674932.73047   -510346.12645  24583641.1704   24583646.9034
   3988587.38548   3466598.08846  23570789.0484   23570797.2264
  -6334708.35548  -4770595.29446  21369033.1384   21369043.9024
  -9509561.36648  -7200051.11947  20501035.9504   20501039.6414
 -11688326.13849  -8723605.81647  21347304.2754   21347308.0374
  -6926345.28647  -5233291.58745  23464666.4714   23464674.0394
 02  8  5  0 22 30.0010000  0  8G 3G25G31G20G 2G22G 1G13
  -8439641.32948  -6417571.52346  22127558.8904   22127566.0414
  15311815.10748  12607540.91246  23308671.9294   23308679.2144
   -752374.19546   -570689.89245  24568901.5844   24568908.4514
   4101140.61248   3554301.88946  23592206.6144   23592215.2214
  -6284676.44148  -4731609.46347  21378559.5554   21378564.0474
  -9427862.83549  -7136389.95547  20516579.6314   20516586.0414
 -11703435.96849  -8735379.68647  21344428.6044   21344433.7644
  -6981741.13747  -5276457.14145  23454126.4604   23454132.3914
 02  8  5  0 23  0.0010000  0  8G 3G25G31G20G 2G22G 1G13
  -8478971.29448  -6448218.25946  22120075.0334   22120081.0524
  15402102.78348  12677894.92246  23325851.9004   23325860.3444
   -829852.12846   -631062.09644  24554153.2674   24554165.8074
   4213910.80048   3642174.74746  23613666.1334   23613675.0584
  -6234384.41048  -4692420.79146  21388124.8644   21388134.6144
  -9345795.78648  -7072441.60247  20532199.3254   20532203.2664
 -11718142.96849  -8746839.68347  21341630.2044   21341634.8534
  -7036939.35647  -5319468.70845  23443623.2324   23443629.1454
 02  8  5  0 23 30.0010000  0  8G 3G25G31G20G 2G22G 1G13
  -8517884.22848  -6478539.95546  22112671.0284   22112677.9084
  15492581.22048  12748397.57046  23343068.5124   23343078.7054
   -907299.29646   -691410.36245  24539416.4734   24539427.6074
   4326959.34048   3730264.50646  23635178.1074   23635186.9554
  -6183769.37848  -4652980.58247  21397761.5944   21397765.7674
  -9263298.23949  -7008157.78847  20547895.2114   20547901.4694
 -11732380.67949  -8757933.99147  21338921.2444   21338924.6014
  -7091872.88047  -5362274.02245  23433170.9394   23433174.9794
 02  8  5  0 24  0.0010000  0  8G 3G25G31G20G 2G22G 1G13
  -8556408.23148  -6508558.55046  22105339.2654   22105346.5904
  15583220.47648  12819025.53846  23360315.9464   23360326.6184
   -984743.72447   -751756.45445  24524683.6144   24524692.0994
   4440252.18648   3818544.62046  23656737.4724   23656746.5224
  -6132863.19948  -4613313.35946  21407443.0794   21407453.3214
  -9180402.66849  -6943563.87847  20563672.0324   20563676.3924
 -11746177.45049  -8768684.69447  21336295.5474   21336299.0134
  -7146570.03947  -5404895.13246  23422761.7444   23422768.3084
 02  8  5  0 24 30.0010000  0  8G 3G25G31G20G 2G22G 1G13
  -8594539.94948  -6538271.48346  22098083.3544   22098088.7474
  15674021.50448  12889779.53946  23377595.4634   23377605.3404
  -1062182.28547   -812097.93245  24509951.9144   24509954.8244
   4553786.55548   3907012.94546  23678342.7344   23678351.7834
  -6081667.14249  -4573420.39647  21417190.7974   21417195.3924
  -9097111.53849  -6878661.64647  20579519.9894   20579526.1304
 -11759530.89349  -8779089.96547  21333754.3044   21333758.9194
  -7201027.66448  -5447329.60146  23412399.7014   23412405.4964
 02  8  5  0 25  0.0010000  0  8G 3G25G31G20G 2G22G 1G13
  -8632348.68848  -6567732.84646  22090888.3464   22090895.5654
  15764912.41048  12960603.58346  23394891.0284   23394901.7194
  -1139684.30047   -872488.84645  24495201.1294   24495205.6594
   4667487.49148   3995611.04946  23699978.6204   23699988.1954
  -6030254.33448  -4533358.39446  21426969.3224   21426979.1584
  -9013498.42649  -6813508.64447  20595432.1774   20595437.3984
 -11772510.59749  -8789204.02847  21331285.1454   21331289.2124
  -7255315.28948  -5489631.61046  23402069.4394   23402074.4654
 02  8  5  0 25 30.0010000  0  8G 3G25G31G20G 2G22G 1G13
  -8669790.35848  -6596908.09546  22083763.3314   22083770.4664
  15855935.11348  13031530.33246  23412213.2054   23412222.8714
  -1217205.37347   -932894.65545  24480444.6864   24480454.7594
   4781393.35248   4084368.84346  23721655.1384   23721662.7044
  -5978584.78849  -4493096.47847  21436806.7474   21436811.5684
  -8929524.32949  -6748074.21147  20611411.5124   20611416.8414
 -11785072.78549  -8798992.74647  21328894.1864   21328897.9344
  -7309388.57448  -5531766.58846  23391779.6844   23391783.9294
 02  8  5  0 26  0.0010000  0  8G 3G25G31G20G 2G22G 1G13
  -8706862.49648  -6625795.33546  22076708.7864   22076714.2454
  15947089.84648  13102559.95446  23429560.9534   23429568.4794
  -1294742.97446   -993313.34344  24465686.1174   24465698.9494
   4895500.66748   4173283.61346  23743369.1264   23743376.7934
  -5926659.83048  -4452635.40046  21446682.5664   21446692.5534
  -8845191.39349  -6682360.31347  20627458.9514   20627464.7754
 -11797215.46549  -8808454.57247  21326582.9084   21326586.6044
  -7363245.67948  -5573733.08646  23381531.2474   23381534.7984
 02  8  5  0 26 30.0010000  0  8G 3G25G31G20G 2G22G 1G13
  -8743514.76948  -6654355.47246  22069733.7534   22069741.0444
  16038424.04348  13173729.40146  23446942.5964   23446949.1424
  -1372247.25346  -1053706.13244  24450934.6114   24450949.3414
   5009853.28648   4262389.53146  23765128.9664   23765137.6114
  -5874433.76949  -4411939.81347  21456626.1544   21456630.5424
  -8760454.78549  -6616331.72047  20643585.0514   20643589.8434
 -11808889.39049  -8817551.13347  21324362.4744   21324366.0774
  -7416836.40948  -5615492.02746  23371333.2134   23371336.9274
 02  8  5  0 27  0.0010000  0  8G 3G25G31G20G 2G22G 1G13
  -8779767.52148  -6682604.40446  22062835.9444   22062842.4604
  16129915.65248  13245021.52246  23464354.6734   23464359.3184
  -1449738.00746  -1114088.36945  24436194.9594   24436203.8014
   5124425.42148   4351666.48546  23786931.9974   23786939.8724
  -5821930.69148  -4371028.25646  21466611.9094   21466621.8304
  -8675339.41849  -6550008.12747  20659780.3314   20659786.2394
 -11820115.09849  -8826298.44547  21322225.8614   21322230.4664
  -7470180.73448  -5657058.95046  23361181.4754   23361186.2604
 02  8  5  0 27 30.0010000  0  8G 3G25G31G20G 2G22G 1G13
  -8815620.18348  -6710541.41546  22056012.1944   22056019.0694
  16221562.65548  13316434.73846  23481795.5024   23481799.2184
  -1527214.71247  -1174459.70345  24421456.9274   24421461.6514
   5239211.77948   4441110.35046  23808775.0844   23808782.7214
  -5769154.41649  -4329903.91447  21476660.1684   21476664.6874
  -8589849.64848  -6483392.67347  20676051.2764   20676054.3314
 -11830892.56149  -8834696.48447  21320174.3964   21320178.7284
  -7523278.42048  -5698433.70146  23351076.9224   23351081.8304
 02  8  5  0 28  0.0010000  0  8G 3G25G31G20G 2G22G 1G13
  -8851046.70548  -6738146.35146  22049270.9344   22049277.5284
  16313389.26948  13387987.92246  23499269.1974   23499273.1604
  -1604651.24047  -1234799.66545  24406722.2504   24406724.3764
   5354232.64047   4530736.96946  23830662.2064   23830670.9314
  -5716082.36748  -4288549.02946  21486754.1724   21486764.4944
  -8503964.13749  -6416468.93547  20692391.4664   20692397.6474
 -11841196.21349  -8842725.29147  21318215.0074   21318217.5654
  -7576103.32748  -5739595.88446  23341024.3424   23341029.5374
 02  8  5  0 28 30.0010000  0  8G 3G25G31G20G 2G22G 1G13
  -8886088.37148  -6765451.51546  22042602.7164   22042610.0114
  16405351.41948  13459646.72146  23516768.7144   23516772.9844
  -1682088.95447  -1295140.56745  24391981.6004   24391988.7464
   5469440.49348   4620509.29346  23852585.9604   23852594.1374
  -5662760.43949  -4246999.48447  21496906.0034   21496910.6954
  -8417729.26148  -6349272.91747  20708804.5284   20708808.4394
 -11851068.19449  -8850417.70747  21316336.2474   21316339.6814
  -7628697.07248  -5780577.94846  23331017.0774   23331020.7514
 02  8  5  0 29  0.0010000  0  8G 3G25G31G20G 2G22G 1G13
  -8920686.50748  -6792411.09446  22036018.8154   22036025.3654
  16497505.06848  13531454.73846  23534304.8164   23534309.4664
  -1759468.86747  -1355436.44745  24377252.1514   24377264.9964
   5584888.30348   4710468.58046  23874554.9344   23874564.1644
  -5609133.56548  -4205212.27546  21507106.4624   21507115.7724
  -8331091.33749  -6281762.84947  20725287.8844   20725294.8924
 -11860450.24949  -8857728.39047  21314549.8734   21314554.9134
  -7681001.22348  -5821334.32546  23321064.3914   23321066.2634
 02  8  5  0 29 30.0010000  0  8G 3G25G31G20G 2G22G 1G13
  -8954934.29648  -6819097.53446  22029501.9594   22029508.1204
  16589755.62548  13603338.27346  23551858.4804   23551863.6884
  -1836883.93046  -1415759.73345  24362518.0684   24362530.8144
   5700477.09348   4800537.74446  23896550.5154   23896559.9204
  -5555299.26349  -4163263.45247  21517355.0614   21517359.8624
  -8244147.88749  -6214014.73547  20741835.6134   20741840.1494
 -11869435.96549  -8864730.24047  21312840.5714   21312844.7974
  -7733108.56048  -5861937.35946  23311147.7024   23311150.2254
 02  8  5  0 30  0.0010000  0  8G 3G25G31G20G 2G22G 1G13
  -8988809.39548  -6845493.58746  22023055.5354   22023062.7714
  16682122.95248  13675312.80146  23569434.9624   23569440.7084
  -1914311.79947  -1476093.04545  24347787.0024   24347798.2484
   5816223.43048   4890729.66046  23918576.8734   23918585.4804
  -5501239.10248  -4121138.63146  21527638.2684   21527647.9744
  -8156882.04149  -6146015.34047  20758439.2294   20758445.9664
 -11878003.76249  -8871406.40347  21311209.9894   21311213.4244
  -7784996.94148  -5902369.77846  23301272.8174   23301277.2314
 02  8  5  0 30 30.0010000  0  8G 3G25G31G20G 2G22G 1G13
  -9022278.25648  -6871573.27646  22016686.6784   22016693.2104
  16774638.15148  13747402.57146  23587039.4644   23587046.3094
  -1991718.70847  -1536409.99845  24333062.8074   24333069.5984
   5932155.11647   4981066.02146  23940636.8954   23940646.4684
  -5446923.75049  -4078814.95247  21537978.3324   21537983.1044
  -8069264.58549  -6077742.06047  20775113.9594   20775118.9874
 -11886120.43749  -8877731.03647  21309664.4144   21309668.9664
  -7836632.75248  -5942605.38846  23291446.5864   23291452.3364
 02  8  5  0 31  0.0010000  0  8G 3G25G31G20G 2G22G 1G13
  -9055296.56548  -6897301.71746  22010403.5694   22010409.2264
  16867343.52348  13819640.53146  23604679.9724   23604687.6764
  -2069059.88347  -1596675.71845  24318346.3884   24318349.5694
   6048310.88847   5071577.00245  23962741.0314   23962749.8414
  -5392312.37748  -4036260.63146  21548366.8864   21548375.5364
  -7981256.13549  -6009163.99647  20791860.0074   20791866.1434
 -11893742.02349  -8883669.90247  21308214.6544   21308219.3724
  -7887971.31148  -5982609.36546  23281677.2344   23281682.2104
 02  8  5  0 31 30.0010000  0  8G 3G25G31G20G 2G22G 1G13
  -9087870.74048  -6922684.03246  22004204.4624   22004211.0724
  16960230.19148  13892019.74646  23622354.8504   23622362.9734
  -2146341.70547  -1656895.19345  24303638.8264   24303642.7754
   6164678.35347   5162252.93245  23984885.1224   23984893.6854
  -5337416.05949  -3993484.22847  21558816.5244   21558821.6514
  -7892867.79549  -5940290.04147  20808680.2604   20808685.9104
 -11900875.66049  -8889228.54547  21306857.3244   21306861.7864
  -7939019.57148  -6022387.15746  23271965.1134   23271968.7144
 02  8  5  0 32  0.0010000  0  8G 3G25G31G20G 2G22G 1G13
  -9120020.00348  -6947735.33346  21998086.8934   21998094.0034
  17053276.58248  13964523.40546  23640059.6094   23640069.0394
  -2223583.22847  -1717083.29645  24288935.3224   24288943.1324
   6281232.24147   5253074.11945  24007064.4034   24007073.2384
  -5282257.64148  -3950503.66646  21569310.0544   21569317.8094
  -7804124.06249  -5871139.00847  20825568.3754   20825573.7284
 -11907541.26749  -8894422.47247  21305587.9854   21305592.7994
  -7989796.71948  -6061953.67846  23262301.6904   23262304.6484
 02  8  5  0 32 30.0010000  0  8G 3G25G31G20G 2G22G 1G13
  -9151686.36548  -6972410.44446  21992060.9204   21992066.2744
  17146538.68348  14037195.18346  23657807.3784   23657816.8874
  -2300726.22946  -1777194.66645  24274252.3334   24274263.8034
   6398024.89947   5344081.36746  24029290.1284   24029298.2074
  -5226783.38749  -3907276.90347  21579869.3334   21579874.4464
  -7714971.39049  -5801669.46247  20842532.2694   20842538.6624
 -11913681.20049  -8899206.79247  21304419.2064   21304423.9964
  -8040244.72848  -6101263.74846  23252701.6744   23252705.3614
 02  8  5  0 33  0.0010000  0  8G 3G25G31G20G 2G22G 1G13
  -9182947.55148  -6996769.67846  21986111.7944   21986118.5184
  17239936.51848  14109972.71346  23675579.4784   23675589.6474
  -2377848.00547  -1837289.49245  24259577.8794   24259588.2664
   6514972.92647   5435209.66345  24051544.5534   24051552.5234
  -5171074.50248  -3863867.42147  21590467.6094   21590475.8144
  -7625492.44049  -5731945.55247  20859562.2834   20859566.1464
 -11919373.88049  -8903642.59947  21303336.5584   21303341.3064
  -8090441.03848  -6140377.66846  23243148.3784   23243151.7684
 02  8  5  0 33 30.0010000  0  8G 3G25G31G20G 2G22G 1G13
  -9213794.15148  -7020805.86646  21980242.7904   21980249.2704
  17333477.37648  14182861.67046  23693380.0514   23693389.0914
  -2454938.90147  -1897360.21545  24244914.5094   24244919.5174
   6632080.15547   5526462.00646  24073829.9004   24073837.7174
  -5115125.77249  -3820270.92447  21601116.6624   21601122.3164
  -7535682.27149  -5661963.65247  20876649.6614   20876656.3234
 -11924610.29149  -8907722.87147  21302339.2544   21302344.8454
  -8140375.92548  -6179287.88846  23233645.1654   23233650.3974
 02  8  5  0 34  0.0010000  0  8G 3G25G31G20G 2G22G 1G13
  -9244188.51648  -7044489.73546  21974456.9624   21974463.6704
  17427196.50348  14255889.52146  23711213.4924   23711223.2054
  -2531961.24647  -1957377.47645  24230258.7314   24230263.7794
   6749378.29948   5617863.11146  24096151.6134   24096158.5664
  -5058903.51348  -3776461.43947  21611813.5204   21611820.9384
  -7445508.47449  -5591698.33647  20893812.8964   20893815.9624
 -11929353.59948  -8911418.92347  21301434.6074   21301441.5424
  -8190012.11348  -6217965.36746  23224200.3974   23224205.9254
 02  8  5  0 34 30.0020000  0  8G 3G25G31G20G 2G22G 1G13
  -9274114.88148  -7067808.97946  21968763.9414   21968768.7204
  17521111.89848  14329070.30646  23729084.7754   23729095.7474
  -2608899.99747  -2017329.63345  24215615.1294   24215620.7994
   6866882.40648   5709424.72946  24118511.2074   24118519.5064
  -5002392.99349  -3732427.16847  21622569.1824   21622574.5274
  -7354955.47549  -5521137.57547  20911040.4654   20911047.4504
 -11933587.31948  -8914717.90247  21300628.6254   21300635.4654
  -8239333.98848  -6256397.93146  23214815.4264   23214820.7134
 02  8  5  0 35  0.0020000  0  8G 3G25G31G20G 2G22G 1G13
  -9303644.20648  -7090818.69746  21963143.3274   21963150.4984
  17615141.91748  14402340.44146  23746978.0914   23746988.6164
  -2685822.93047  -2077269.49245  24200976.0504   24200983.2384
   6984506.04048   5801079.45646  24140894.9964   24140902.3844
  -4945674.63848  -3688231.12347  21633360.5634   21633367.6814
  -7264107.20149  -5450346.71847  20928332.5664   20928334.9644
 -11937384.82348  -8917676.95647  21299906.3454   21299913.0504
  -8288411.29248  -6294639.93246  23205476.3184   23205480.9324
 02  8  5  0 35 30.0020000  0  8G 3G25G31G20G 2G22G 1G13
  -9332696.22948  -7113456.54146  21957615.0144   21957622.2594
  17709368.89848  14475764.02846  23764908.7784   23764918.7394
  -2762650.78847  -2137135.25045  24186351.0554   24186362.3534
   7102328.77247   5892889.33046  24163316.2974   24163323.5714
  -4888669.45948  -3643811.40047  21644209.4794   21644215.4794
  -7172884.07849  -5379263.75247  20945687.5414   20945694.0644
 -11940665.23548  -8920233.08347  21299281.5464   21299289.3774
  -8337164.21048  -6332629.14846  23196196.8644   23196203.3974
 02  8  5  0 36  0.0020000  0  8G 3G25G31G20G 2G22G 1G13
  -9361313.54248  -7135755.72246  21952170.8284   21952175.9784
  17803748.06248  14549306.20046  23782868.3904   23782878.4724
  -2839426.07747  -2196960.07745  24171742.8264   24171751.0964
   7220302.09947   5984816.53545  24185766.8214   24185771.6564
  -4831423.88548  -3599204.54447  21655102.2514   21655108.7044
  -7081333.44349  -5307925.62647  20963112.5524   20963115.1914
 -11943472.11848  -8922420.23747  21298746.1604   21298754.9024
  -8385635.71648  -6370399.09946  23186973.4544   23186979.1634
 02  8  5  0 36 30.0020000  0  8G 3G25G31G20G 2G22G 1G13
  -9389506.72048  -7157724.40546  21946803.1224   21946811.7694
  17898267.21748  14622957.46746  23800855.7394   23800865.3524
  -2916158.85547  -2256751.74645  24157145.6704   24157151.9484
   7338409.90347   6076848.54245  24208241.9304   24208248.1884
  -4773952.45948  -3554421.50847  21666039.7424   21666045.0394
  -6989470.75049  -5236344.26547  20980590.3584   20980596.3464
 -11945816.46948  -8924246.98547  21298299.8704   21298308.8284
  -8433835.29748  -6407957.15146  23177801.0324   23177805.8284
 02  8  5  0 37  0.0020000  0  8G 3G25G31G20G 2G22G 1G13
  -9417272.19448  -7179359.73246  21941521.0154   21941527.2774
  17992927.51648  14696718.72646  23818868.5334   23818878.7334
  -2992845.17147  -2316507.21145  24142554.4904   24142559.3494
   7456650.26447   6168983.83545  24230742.0314   24230748.8574
  -4716255.06049  -3509462.58647  21677017.9734   21677024.7594
  -6897296.79449  -5164520.46347  20998132.5274   20998136.7814
 -11947695.15948  -8925710.86647  21297942.1084   21297950.9424
  -8481759.74648  -6445300.83546  23168682.3654   23168686.9464
 02  8  5  0 37 30.0020000  0  8G 3G25G31G20G 2G22G 1G13
  -9444638.55148  -7200684.01446  21936313.4574   21936318.8544
  18087697.56848  14770565.51346  23836902.9864   23836912.4644
  -3069513.28047  -2376248.49545  24127963.0004   24127969.0334
   7574988.73647   6261195.60645  24253262.2744   24253267.2554
  -4658364.79248  -3464353.18647  21688034.9984   21688041.0394
  -6804845.17449  -5092480.18347  21015723.8144   21015729.4164
 -11949137.64748  -8926834.84847  21297667.4234   21297676.8684
  -8529437.63848  -6482452.38146  23159610.8424   23159614.7844
 02  8  5  0 38  0.0020000  0  8G 3G25G31G20G 2G22G 1G13
  -9471493.25448  -7221609.79546  21931202.1774   21931209.8834
  18182688.28748  14844584.22246  23854979.0574   23854989.3434
  -3146050.26447  -2435887.57745  24113398.0814   24113404.4954
   7693532.16647   6353567.08345  24275820.2964   24275825.0644
  -4600172.61049  -3419008.72747  21699108.4484   21699114.5224
  -6712007.91349  -5020139.52947  21033390.6814   21033395.7454
 -11950031.98448  -8927531.71647  21297497.6584   21297506.8764
  -8576756.20248  -6519323.94646  23150605.5714   23150611.1794
 02  8  5  0 38 30.0020000  0  8G 3G25G31G20G 2G22G 1G13
  -9497897.65648  -7242184.57846  21926178.9074   21926184.7454
  18277836.37848  14918725.55846  23873085.2254   23873095.5474
  -3222516.51047  -2495471.59445  24098840.5084   24098851.7254
   7812214.27047   6446046.61945  24298404.3674   24298410.0614
  -4541743.51848  -3373479.46247  21710226.7104   21710232.9574
  -6618850.65549  -4947549.39847  21051118.1074   21051123.0504
 -11950439.41048  -8927849.17747  21297421.0364   21297429.2874
  -8623776.12448  -6555962.81146  23141656.7744   23141663.3414
 02  8  5  0 39  0.0020000  0  8G 3G25G31G20G 2G22G 1G13
  -9523838.14148  -7262397.78946  21921241.5044   21921247.6514
  18373153.42648  14992998.54746  23891223.5074   23891233.5864
  -3298898.05147  -2554989.58045  24084308.0624   24084316.3484
   7931042.71147   6538640.20446  24321017.1454   24321023.2214
  -4483067.67349  -3327758.12647  21721392.7884   21721398.8074
  -6525364.38049  -4874703.02747  21068906.8194   21068913.2344
 -11950347.08148  -8927777.20047  21297439.7824   21297446.8354
  -8670483.75348  -6592358.33746  23132768.4124   23132775.1434
 02  8  5  0 39 30.0020000  0  8G 3G25G31G20G 2G22G 1G13
  -9549341.97548  -7282270.81146  21916388.7734   21916395.3594
  18468609.97948  15067380.26746  23909388.2334   23909398.3714
  -3375221.82347  -2614462.55645  24069788.0674   24069795.6374
   8049984.44947   6631322.05045  24343649.2904   24343656.2934
  -4424176.47648  -3281868.79147  21732599.1364   21732605.6994
  -6431581.33449  -4801625.27447  21086755.9244   21086759.3984
 -11949782.89048  -8927337.55147  21297547.8794   21297554.2274
  -8716906.07848  -6628531.52746  23123935.1874   23123940.2564
 02  8  5  0 40  0.0020000  0  8G 3G25G31G20G 2G22G 1G13
  -9574299.52448  -7301718.26246  21911639.3654   21911645.5404
  18564313.58648  15141954.47246  23927599.2994   23927610.2484
  -3451377.78647  -2673804.74245  24055297.7584   24055301.7414
   8169143.52247   6724173.26045  24366325.7474   24366331.3994
  -4364963.95149  -3235729.26047  21743867.3484   21743873.0214
  -6337396.46549  -4728234.53247  21104675.3334   21104682.2804
 -11948637.83248  -8926445.27047  21297766.2914   21297772.0084
  -8762933.51248  -6664397.01346  23115177.4144   23115181.1934
 02  8  5  0 40 30.0020000  0  8G 3G25G31G20G 2G22G 1G13
  -9598759.97848  -7320778.25446  21906983.9274   21906990.1664
  18660213.25748  15216681.43546  23945848.8414   23945859.5884
  -3527414.19547  -2733053.75245  24040829.5634   24040832.2664
   8288465.73547   6817151.57245  24389030.7534   24389037.7684
  -4305482.89248  -3189380.29647  21755185.1964   21755191.8634
  -6242863.16449  -4654572.18147  21122668.4794   21122671.5294
 -11946961.23049  -8925138.80447  21298086.1624   21298090.7454
  -8808614.17548  -6699992.28046  23106485.1544   23106488.4784
 02  8  5  0 41  0.0020000  0  8G 3G25G31G20G 2G22G 1G13
  -9622794.04648  -7339505.93946  21902411.1894   21902416.6214
  18756236.02648  15291504.31546  23964121.7764   23964131.8204
  -3603401.45947  -2792264.51445  24026365.3364   24026372.6234
   8407874.41147   6910197.23945  24411752.2574   24411761.0704
  -4245807.80949  -3142880.32347  21766542.1354   21766547.2074
  -6148056.85449  -4580697.17547  21140705.4494   21140712.0444
 -11944824.54549  -8923473.82847  21298493.7864   21298497.7464
  -8854019.29348  -6735372.85146  23097844.6444   23097848.6324
 02  8  5  0 41 30.0020000  0  8G 3G25G31G20G 2G22G 1G13
  -9646372.25448  -7357878.50246  21897923.2174   21897931.0534
  18852409.19448  15366444.39946  23982423.0664   23982432.8284
  -3679309.39347  -2851413.47545  24011916.2594   24011925.3184
   8527393.99447   7003329.31645  24434494.9814   24434505.7244
  -4185912.80748  -3096208.83646  21777938.3824   21777945.2594
  -6052952.60949  -4506589.94647  21158807.7954   21158810.3724
 -11942198.84049  -8921427.79847  21298993.6364   21298997.3584
  -8899118.66648  -6770515.18246  23089261.9254   23089267.6034
 02  8  5  0 42  0.0020000  0  8G 3G25G31G20G 2G22G 1G13
  -9669467.82448  -7375875.09646  21893529.8574   21893534.1624
  18948757.60848  15441521.03946  24000757.6134   24000766.9914
  -3755110.64247  -2910479.27845  23997493.1634   23997502.1964
   8647045.36747   7096564.09345  24457263.7974   24457273.3344
  -4125775.08449  -3049348.32747  21789383.7074   21789389.1954
  -5957528.20949  -4432233.28747  21176961.8674   21176968.8944
 -11939057.85549  -8918980.25447  21299591.0604   21299594.9814
  -8943885.62948  -6805398.49846  23080743.3294   23080748.2914
 02  8  5  0 42 30.0020000  0  8G 3G25G31G20G 2G22G 1G13
  -9692102.68848  -7393512.47546  21889221.5664   21889227.4954
  19045257.85148  15516716.00246  24019120.3124   24019131.4664
  -3830826.29947  -2969478.45345  23983088.1024   23983094.2784
   8766801.71047   7189880.65145  24480053.1674   24480062.0574
  -4065419.92148  -3002318.29747  21800867.8484   21800874.3204
  -5861809.68449  -4357647.43047  21195181.0784   21195184.1644
 -11935424.07449  -8916148.71747  21300282.6354   21300286.4154
  -8988340.58648  -6840038.69646  23072285.0744   23072288.7014
 02  8  5  0 43  0.0020000  0  8G 3G25G31G20G 2G22G 1G13
  -9714303.57448  -7410811.74946  21884996.0934   21885003.1374
  19141881.13948  15592006.81146  24037508.4134   24037517.8204
  -3906482.59147  -3028431.28045  23968693.9734   23968697.2574
   8886630.53147   7283253.68945  24502856.1914   24502864.8534
  -4004878.08849  -2955142.86147  21812389.6594   21812395.1184
  -5765828.66049  -4282857.01747  21213440.9304   21213448.1774
 -11931324.69049  -8912954.37547  21301062.9464   21301066.1034
  -9032510.74048  -6874456.94946  23063880.7114   23063881.7294
 02  8  5  0 43 30.0020000  0  8G 3G25G31G20G 2G22G 1G13
  -9736013.71548  -7427728.73946  21880867.4064   21880871.8254
  19238681.84948  15667435.90146  24055929.5354   24055938.7614
  -3982022.35947  -3087293.32345  23954317.9944   23954324.1464
   9006583.03247   7376723.08845  24525682.7754   24525690.4904
  -3944096.49948  -2907780.58747  21823954.7904   21823961.5494
  -5669532.79549  -4207821.30347  21231769.5184   21231772.6254
 -11926703.64749  -8909353.54447  21301942.8584   21301945.7194
  -9076339.38948  -6908609.09446  23055539.5044   23055541.1444
 02  8  5  0 44  0.0020000  0  8G 3G25G31G20G 2G22G 1G13
  -9757211.24948  -7444246.23646  21876830.7154   21876837.6274
  19335680.10048  15743018.92746  24074386.6384   24074396.9334
  -4057422.99347  -3146047.00045  23939967.4814   23939972.1524
   9126675.68447   7470301.69545  24548538.3214   24548544.0714
  -3883057.05449  -2860217.36347  21835571.0954   21835576.9374
  -5572904.96249  -4132526.85247  21250153.2564   21250160.1344
 -11921539.69849  -8905329.66647  21302925.4704   21302928.1134
  -9119804.19348  -6942477.72446  23047268.0784   23047270.0014
 02  8  5  0 44 30.0020000  0  8G 3G25G31G20G 2G22G 1G13
  -9777943.67748  -7460401.25947  21872886.4334   21872893.3274
  19432826.17648  15818717.12546  24092872.8564   24092882.9544
  -4132730.91447  -3204728.40545  23925634.2984   23925642.9344
   9246855.91547   7563948.57345  24571407.8564   24571413.4324
  -3821810.13048  -2812492.51647  21847224.9044   21847231.6394
  -5475996.46249  -4057013.78947  21268597.5114   21268601.4834
 -11915880.53149  -8900919.90947  21304001.4484   21304004.7404
  -9162951.91748  -6976099.29046  23039056.7914   23039060.2914
 02  8  5  0 45  0.0020000  0  8G 3G25G31G20G 2G22G 1G13
  -9798172.16948  -7476163.61846  21869037.5044   21869043.1184
  19530157.45748  15894559.64646  24111394.5944   24111404.6554
  -4207906.49247  -3263306.73245  23911327.1864   23911338.3594
   9367157.18647   7657689.79045  24594301.7464   24594306.0154
  -3760320.66749  -2764578.59347  21858926.7524   21858932.6104
  -5378773.01649  -3981255.20947  21287095.8544   21287102.6394
 -11909687.82249  -8896094.40547  21305179.0024   21305183.6384
  -9205742.92648  -7009442.88746  23030913.9764   23030918.0014
 02  8  5  0 45 30.0020000  0  8G 3G25G31G20G 2G22G 1G13
  -9817857.50648  -7491502.88346  21865291.5024   21865297.0444
  19627710.99848  15970575.35446  24129959.5864   24129968.5574
  -4282910.20747  -3321751.10745  23897057.8964   23897065.3234
   9487613.23447   7751551.59145  24617224.0234   24617228.1904
  -3698553.33148  -2716448.25147  21870680.2824   21870686.6874
  -5281199.92949  -3905224.29847  21305665.4004   21305669.9744
 -11902923.23748  -8890823.28047  21306465.7504   21306470.3924
  -9248138.19648  -7042478.12146  23022847.3774   23022850.1294
 02  8  5  0 46  0.0020000  0  8G 3G25G31G20G 2G22G 1G13
  -9837107.27948  -7506502.59847  21861627.9634   21861633.6774
  19725377.61148  16046679.18446  24148545.3314   24148553.9964
  -4357848.59747  -3380144.57945  23882798.6294   23882806.1394
   9608111.23547   7845446.10945  24640153.6484   24640158.4634
  -3636619.26549  -2668187.85647  21882466.5254   21882472.3414
  -5183389.07349  -3829007.98847  21324276.6774   21324283.0664
 -11895694.50448  -8885190.47947  21307839.8784   21307846.2104
  -9290244.34848  -7075288.04946  23014834.2524   23014837.5534
 02  8  5  0 46 30.0020000  0  8G 3G25G31G20G 2G22G 1G13
  -9855815.99948  -7521080.69847  21858067.0944   21858073.9914
  19823260.50848  16122951.53246  24167171.6994   24167180.4604
  -4432615.52747  -3438404.44545  23868573.5854   23868576.8734
   9728751.41747   7939451.38645  24663110.2234   24663116.1124
  -3574416.50948  -2619718.25047  21894302.5934   21894308.8704
  -5085239.33749  -3752527.74547  21342954.5704   21342960.3784
 -11887896.87248  -8879114.37247  21309322.3054   21309330.3074
  -9331955.94048  -7107790.52646  23006895.3004   23006899.2824
 02  8  5  0 47  0.0020000  0  8G 3G25G31G20G 2G22G 1G13
  -9874047.18548  -7535286.78846  21854599.7034   21854604.0194
  19921294.46647  16199341.59546  24185827.8714   24185835.7324
  -4507273.78047  -3496579.60945  23854363.4644   23854370.2614
   9849464.81547   8033513.72045  24686079.3954   24686086.8374
  -3512012.40349  -2571091.57347  21906178.0544   21906183.6264
  -4986818.78249  -3675836.34447  21361683.5254   21361688.9934
 -11879594.42848  -8872644.90347  21310900.8744   21310909.8764
  -9373336.08548  -7140034.74346  22999019.5934   22999024.6834
 02  8  5  0 47 30.0020000  0  8G 3G25G31G20G 2G22G 1G13
  -9891798.07348  -7549118.61446  21851220.6784   21851226.0474
  20019480.19147  16275849.92546  24204514.4244   24204519.8174
  -4581819.41447  -3554667.06145  23840173.8594   23840183.3484
   9970249.42847   8127631.55845  24709062.8244   24709072.9074
  -3449407.00348  -2522308.22547  21918091.0934   21918097.0734
  -4888128.48149  -3598934.87047  21380462.9034   21380469.0984
 -11870784.82648  -8865780.24747  21312577.2484   21312586.5984
  -9414380.83548  -7172017.61046  22991209.5444   22991214.1904
 02  8  5  0 48  0.0020000  0  8G 3G25G31G20G 2G22G 1G13
  -9909020.97748  -7562538.96547  21847941.9794   21847949.2724
  20117863.80747  16352512.44246  24223235.4844   24223242.0444
  -4656203.95347  -3612628.97045  23826018.4034   23826029.4284
  10091147.52247   8221837.80645  24732067.4474   24732076.4714
  -3386556.25548  -2473333.50247  21930052.2154   21930057.2704
  -4789125.15049  -3521789.35647  21399303.8834   21399308.6714
 -11861420.72148  -8858483.51947  21314359.8574   21314367.9674
  -9455042.36248  -7203701.84746  22983471.9044   22983476.9254
 02  8  5  0 48 30.0020000  0  8G 3G25G31G20G 2G22G 1G13
  -9925819.98248  -7575628.99746  21844746.6964   21844751.6984
  20216339.41847  16429246.62446  24241976.5854   24241981.0174
  -4730530.59547  -3670545.78845  23811878.1064   23811887.0034
  10212049.63647   8316047.18745  24755074.5814   24755085.1244
  -3323567.67349  -2424251.57447  21942038.0944   21942043.7424
  -4689917.13149  -3444484.47647  21418180.6674   21418187.5784
 -11851606.89748  -8850836.35647  21316229.4454   21316235.8634
  -9495424.25048  -7235168.17546  22975787.3174   22975793.5994
 02  8  5  0 49  0.0020000  0  8G 3G25G31G20G 2G22G 1G13
  -9942155.25048  -7588357.75346  21841638.6044   21841643.7284
  20314945.02147  16506082.13445  24260740.6614   24260744.5224
  -4804758.82147  -3728385.87545  23797756.6774   23797759.5434
  10332990.53847   8410286.79245  24778089.2734   24778098.4994
  -3260405.25648  -2375033.99047  21954057.6764   21954063.1984
  -4590469.00849  -3366992.37947  21437107.9224   21437111.6094
 -11841304.02948  -8842808.13247  21318191.7564   21318196.6364
  -9535486.05748  -7266385.09846  22968162.2374   22968170.2604
 02  8  5  0 49 30.0020000  0  8G 3G25G31G20G 2G22G 1G13
  -9957940.58948  -7600658.01547  21838633.3984   21838639.6364
  20413764.90147  16583084.59745  24279546.6984   24279549.6694
  -4878801.60347  -3786081.43045  23783665.5404   23783671.3424
  10454051.14547   8504619.68345  24801126.6404   24801135.9434
  -3196986.15649  -2325616.59247  21966125.3784   21966131.1904
  -4490698.83949  -3289249.44447  21456090.1844   21456097.2304
 -11830426.61449  -8834332.21847  21320262.8004   21320266.5964
  -9575141.58348  -7297285.45546  22960614.8584   22960623.5564
 02  8  5  0 50  0.0020000  0  8G 3G25G31G20G 2G22G 1G13
  -9973231.44048  -7612572.83347  21835723.7914   21835729.6244
  20512742.16747  16660209.68745  24298381.2864   24298383.9394
  -4952713.01547  -3843674.64445  23769600.3844   23769603.9964
  10575171.27647   8598998.96445  24824177.7734   24824183.9994
  -3133368.95548  -2276044.64747  21978231.9464   21978237.3964
  -4390665.97248  -3211301.69747  21475129.4254   21475133.0524
 -11819030.40949  -8825452.05247  21322431.8874   21322434.6714
  -9614445.26048  -7327911.63046  22953135.1654   22953143.4234
 02  8  5  0 50 30.0020000  0  8G 3G25G31G20G 2G22G 1G13
  -9988020.29348  -7624096.53246  21832909.1514   21832915.6234
  20611882.11647  16737461.54245  24317246.5964   24317250.4574
  -5026484.83347  -3901159.12845  23755556.8244   23755567.8024
  10696353.37847   8693426.54345  24847238.6594   24847244.6204
  -3069549.61049  -2226315.35947  21990375.9964   21990381.6574
  -4290366.99849  -3133146.69847  21494211.6424   21494218.9784
 -11807108.46049  -8816162.21447  21324700.8114   21324703.4704
  -9653388.37048  -7358256.85046  22945724.5864   22945731.4424
 02  8  5  0 51  0.0020000  0  8G 3G25G31G20G 2G22G 1G13
 -10002240.48648  -7635177.25746  21830205.1534   21830209.2454
  20711249.64647  16814890.75245  24336154.7744   24336159.8494
  -5100049.46447  -3958482.19745  23741559.2154   23741569.0784
  10817658.32847   8787949.84645  24870323.1464   24870328.6434
  -3005464.92148  -2176379.16347  22002571.1754   22002576.8174
  -4189739.89148  -3054735.91447  21513364.7724   21513368.2114
 -11794594.83449  -8806411.33147  21327081.7424   21327084.7484
  -9691904.45148  -7388269.30346  22938395.7334   22938402.2914
 02  8  5  0 51 30.0020000  0  8G 3G25G31G20G 2G22G 1G13
 -10015978.08048  -7645881.78347  21827588.5594   21827595.1694
  20810757.43247  16892429.25245  24355088.8604   24355094.4954
  -5173491.62947  -4015709.74745  23727585.2524   23727593.3374
  10938995.77747   8882498.47745  24893412.5814   24893418.1414
  -2941204.08349  -2126305.81847  22014798.7344   22014805.2024
  -4088874.42049  -2976139.47947  21532554.2554   21532561.8544
 -11781575.71749  -8796266.55647  21329559.2424   21329562.1834
  -9730078.60748  -7418015.33046  22931131.9154   22931138.6074
 02  8  5  0 52  0.0020000  0  8G 3G25G31G20G 2G22G 1G13
 -10029192.91948  -7656178.96247  21825074.4134   21825080.0314
  20910443.88047  16970106.94345  24374058.1564   24374064.9024
  -5246770.37347  -4072809.96646  23713645.2934   23713647.9604
  11060400.58147   8977099.58445  24916514.8224   24916520.2774
  -2876730.34648  -2076066.52047  22027067.9604   22027074.3514
  -3987734.42948  -2897329.05447  21551805.4934   21551808.5504
 -11768011.61249  -8785697.10647  21332139.6894   21332142.8764
  -9767870.30348  -7447463.34346  22923941.6274   22923948.2074
 02  8  5  0 52 30.0020000  0  8G 3G25G31G20G 2G22G 1G13
 -10041931.24748  -7666104.88946  21822652.1774   21822656.4044
  21010260.56947  17047886.12745  24393051.5554   24393060.2074
  -5319931.01347  -4129818.11245  23699722.0824   23699724.3204
  11181821.31347   9071713.09845  24939617.9044   24939626.1294
  -2812093.49849  -2025700.14047  22039367.7614   22039373.9974
  -3886370.56549  -2818344.25447  21571089.2944   21571097.2744
 -11753949.34549  -8774739.47247  21334814.3304   21334819.0004
  -9805325.32848  -7476649.03446  22916814.2434   22916821.0474
 02  8  5  0 53  0.0020000  0  8G 3G25G31G20G 2G22G 1G13
 -10054136.17148  -7675615.25146  21820327.0194   21820334.0894
  21110262.61447  17125809.76145  24412080.0974   24412089.8724
  -5392915.70247  -4186689.20245  23685830.8624   23685837.7244
  11303309.64047   9166379.27545  24962735.0164   24962744.0564
  -2747239.77248  -1975164.77847  22051709.4244   22051715.4934
  -3784730.07948  -2739143.85247  21590436.4194   21590438.7594
 -11739332.64448  -8763349.80747  21337593.9434   21337600.3434
  -9842386.06348  -7505527.49446  22909762.5264   22909767.7474
 02  8  5  0 53 30.0020000  0  8G 3G25G31G20G 2G22G 1G13
 -10065842.50148  -7684736.96847  21818099.9634   21818106.0234
  21210413.90947  17203849.68645  24431137.0244   24431147.2044
  -5465757.89847  -4243449.23345  23671964.7224   23671976.9234
  11424826.27647   9261067.50045  24985858.2124   24985868.5814
  -2682207.40249  -1924490.16147  22064084.0214   22064090.4124
  -3682851.70949  -2659758.12847  21609817.7904   21609825.3234
 -11724196.64548  -8751555.47847  21340471.9824   21340480.4204
  -9879086.36048  -7534125.09146  22902780.9084   22902784.1024
 02  8  5  0 54  0.0020000  0  8G 3G25G31G20G 2G22G 1G13
 -10077050.66748  -7693470.47746  21815967.6424   21815973.0124
  21310712.62247  17282004.47145  24450222.9444   24450233.1354
  -5538456.87847  -4300097.74445  23658131.5514   23658141.6724
  11546365.92547   9355773.64545  25008988.3864   25008997.7304
  -2616999.44448  -1873678.82747  22076493.1804   22076499.1584
  -3580739.46748  -2580190.13947  21629254.4394   21629256.9344
 -11708542.25448  -8739357.20146  21343450.2564   21343459.5784
  -9915425.77748  -7562441.47746  22895867.3204   22895867.5524
 02  8  5  0 54 30.0020000  0  8G 3G25G31G20G 2G22G 1G13
 -10087668.49148  -7701744.13146  21813947.8004   21813952.5724
  21411248.84647  17360344.31945  24469355.1874   24469365.6964
  -5610919.46247  -4356562.00045  23644346.3454   23644351.6834
  11668015.73447   9450565.64745  25032139.9854   25032145.9114
  -2551527.48549  -1822661.63847  22088951.7764   22088958.1354
  -3478305.53349  -2500371.50247  21648741.4344   21648749.4184
 -11692277.95648  -8726683.67446  21346546.2964   21346554.6964
  -9951311.81248  -7590404.57846  22889038.4124   22889038.6674
 02  8  5  0 55  0.0020000  0  9G 3G25G31G20G 2G27G22G 1G13
 -10097776.99248  -7709620.83947  21812023.4524   21812028.5534
  21511940.12047  17438804.99646  24488517.2044   24488526.5664
  -5683225.40747  -4412904.17546  23630589.3024   23630590.6694
  11789689.78947   9545376.57145  25055293.4694   25055299.8654
  -2485875.39648  -1771504.24647  22101445.0814   22101451.5044
   -214314.83056    -67297.26344  25951014.7404   25951026.7224
  -3375634.71748  -2420368.25847  21668284.6274   21668287.3244
 -11675485.21048  -8713598.38347  21349744.1554   21349750.5174
  -9986824.82148  -7618077.01446  22882279.2364   22882281.6274
 02  8  5  0 55 30.0030000  0  9G 3G25G31G20G 2G27G22G 1G13
 -10107394.18248  -7717114.65147  21810192.1124   21810199.0144
  21612770.74647  17517374.26846  24507704.8174   24507714.4954
  -5755393.46947  -4469138.87846  23616855.1814   23616858.9784
  11911369.81347   9640192.13845  25078449.1784   25078454.6884
  -2420062.00149  -1720220.98247  22113969.2724   22113974.8794
   -253906.57546    -98147.94144  25943485.2314   25943492.1504
  -3272745.15549  -2340194.58047  21687858.3924   21687866.3044
 -11658181.44948  -8700114.90847  21353038.2874   21353042.8774
 -10021982.32148  -7645472.44446  22875587.9884   22875591.8004
 02  8  5  0 56  0.0030000  0  9G 3G25G31G20G 2G27G22G 1G13
 -10116441.76748  -7724164.68846  21808472.0454   21808477.4524
  21713809.42347  17596105.66345  24526932.9794   24526940.7124
  -5827340.29647  -4525201.21946  23603161.3874   23603169.1754
  12033120.09047   9735062.47845  25101618.4834   25101623.7724
  -2354017.23549  -1668757.61547  22126536.7124   22126542.7934
   -293536.39746   -129028.16744  25935946.3004   25935950.1594
  -3169570.06648  -2259798.40147  21707497.4884   21707500.0514
 -11640291.07349  -8686174.33347  21356443.8494   21356447.2704
 -10056704.35248  -7672528.52646  22868979.6004   22868985.0454
 02  8  5  0 56 30.0030000  0  9G 3G25G31G20G 2G27G22G 1G13
 -10124945.82548  -7730791.25446  21806854.0224   21806859.0014
  21815032.49147  17674980.73645  24546197.4974   24546203.2474
  -5899092.73547  -4581112.14545  23589504.1764   23589514.6094
  12154914.60747   9829967.24645  25124793.0794   25124800.4434
  -2287767.74848  -1617134.54347  22139143.8944   22139149.9224
   -333232.91046   -159960.36544  25928386.0754   25928393.7354
  -3066135.77049  -2179200.24947  21727175.1274   21727182.4194
 -11621839.77449  -8671796.69147  21359955.9884   21359958.7494
 -10091016.70548  -7699265.37046  22862449.3214   22862455.0434
 02  8  5  0 57  0.0030000  0  9G 3G25G31G20G 2G27G22G 1G13
 -10132886.06148  -7736978.41147  21805341.4444   21805347.6974
  21916459.17547  17754014.46445  24565498.8454   24565503.0934
  -5970628.90947  -4636854.54445  23575893.5894   23575901.6694
  12276768.75047   9924918.48945  25147978.7754   25147987.4824
  -2221295.83649  -1565338.33047  22151792.8164   22151799.1354
   -372977.10046   -190929.79644  25920823.2824   25920831.6034
  -2962425.29848  -2098386.89147  21746915.8294   21746918.4534
 -11602807.47449  -8656966.32447  21363577.5904   21363580.5154
 -10124898.18148  -7725666.45846  22856001.0374   22856006.9534
 02  8  5  0 57 30.0030000  0  9G 3G25G31G20G 2G27G22G 1G13
 -10140259.54848  -7742723.89147  21803938.8534   21803944.4714
  22018090.41347  17833207.59445  24584839.7604   24584843.7924
  -6041944.95847  -4692425.35546  23562325.0334   23562329.8454
  12398680.47347  10019914.57145  25171177.5744   25171186.7554
  -2154602.13348  -1513369.12847  22164485.0354   22164490.3364
   -412767.51047   -221935.23045  25913257.0174   25913261.1164
  -2858440.01149  -2017359.38147  21766698.0914   21766705.8824
 -11583191.83949  -8641681.41147  21367310.0074   21367313.1154
 -10158345.14848  -7751728.95146  22849635.1374   22849641.2734
 02  8  5  0 58  0.0030000  0  9G 3G25G31G20G 2G27G22G 1G13
 -10147090.90048  -7748047.00346  21802640.2214   21802644.7204
  22119899.65647  17912539.44645  24604213.9134   24604217.3464
  -6113064.52448  -4747843.06846  23548792.6284   23548796.8424
  12520620.36147  10114932.62245  25194383.5874   25194389.2574
  -2087714.69849  -1461249.12147  22177212.1304   22177218.1914
   -452630.92947   -252997.54245  25905669.0374   25905674.7664
  -2754208.40048  -1936139.93047  21786538.5244   21786540.8034
 -11563018.34248  -8625961.79547  21371148.0654   21371151.6794
 -10191381.81648  -7777471.74146  22843347.2254   22843354.6614
 02  8  5  0 58 30.0030000  0  9G 3G25G31G20G 2G27G22G 1G13
 -10153431.31448  -7752987.62346  21801432.4954   21801437.7474
  22221834.26947  17991968.97445  24623608.9454   24623614.5784
  -6184037.27348  -4803146.38846  23535285.5874   23535291.0004
  12642532.60847  10209929.15145  25217584.4064   25217591.1314
  -2020687.37448  -1409019.97247  22189968.6864   22189973.5294
   -492619.51447   -284157.39845  25898054.3654   25898065.1904
  -2649785.39449  -1854771.34247  21806403.6994   21806411.4314
 -11542338.52448  -8609847.63547  21375080.7044   21375087.2144
 -10224058.47448  -7802933.99946  22837128.8954   22837135.6354
 02  8  5  0 59  0.0030000  0  9G 3G25G31G20G 2G27G22G 1G13
 -10159270.81848  -7757537.78047  21800320.1134   21800326.1764
  22323903.40447  18071503.27645  24643030.9494   24643037.3874
  -6254851.49047  -4858326.20646  23521807.9144   23521814.5414
  12764422.80847  10304908.44545  25240779.9964   25240785.1484
  -1953512.84149  -1356676.23447  22202749.9594   22202756.6974
   -532724.55647   -315407.99645  25890428.1394   25890433.3214
  -2545164.29348  -1773248.40747  21826317.9894   21826320.2914
 -11521142.55148  -8593331.26246  21379111.5304   21379120.6804
 -10256363.76848  -7828106.88046  22830981.9884   22830988.6664
 02  8  5  0 59 30.0030000  0  9G 3G25G31G20G 2G27G22G 1G13
 -10164558.48748  -7761657.96546  21799314.2784   21799320.2764
  22426155.99247  18151180.56045  24662486.9424   24662495.8264
  -6325454.93647  -4913341.82245  23508368.9794   23508379.1874
  12886337.19247  10399906.61745  25263980.3844   25263984.3824
  -1886143.16348  -1304180.34047  22215571.4594   22215577.0164
   -572896.48847   -346710.67745  25882783.9894   25882787.6794
  -2440298.21349  -1691534.57947  21846267.2464   21846275.5504
 -11499380.16048  -8576373.52846  21383251.3794   21383261.5194
 -10288245.91448  -7852950.04846  22824916.7494   22824922.5144
 02  8  5  1  0  0.0030000  0  9G 3G25G31G20G 2G27G22G 1G13
 -10169289.69848  -7765344.69746  21798416.6974   21798419.9044
  22528595.02647  18231003.11045  24681979.5754   24681989.5564
  -6395842.03247  -4968188.82145  23494978.3634   23494984.7754
  13008275.63447  10494923.54545  25287184.5484   25287189.1064
  -1818577.15949  -1251531.53747  22228427.3384   22228433.9104
   -613132.31347   -378063.21145  25875120.9244   25875133.8704
  -2335186.08848  -1609629.01547  21866275.5194   21866277.5324
 -11477047.45648  -8558971.38046  21387502.1094   21387511.3104
 -10319700.13848  -7877459.78246  22818933.7464   22818937.5144
 02  8  5  1  0 30.0030000  0  9G 3G25G31G20G 2G27G22G 1G13
 -10173443.28248  -7768581.21347  21797622.9614   21797629.8944
  22631240.87847  18310986.82945  24701511.6444   24701523.1024
  -6465989.75148  -5022849.22446  23481632.0744   23481637.2364
  13130255.13947  10589972.44745  25310394.4764   25310400.7954
  -1750795.88348  -1198714.95747  22241327.1524   22241332.4324
   -653411.92647   -409449.86045  25867461.6964   25867468.0814
  -2229810.41949  -1527518.09047  21886321.9024   21886329.6174
 -11454123.33448  -8541108.40646  21391866.8074   21391874.0724
 -10350703.70048  -7901618.36847  22813034.3934   22813038.1274
 02  8  5  1  1  0.0030000  0  9G 3G25G31G20G 2G27G22G 1G13
 -10177094.80448  -7771426.46547  21796927.7574   21796934.4024
  22734016.31047  18391071.51245  24721070.4464   24721079.1694
  -6535972.84948  -5077381.36546  23468315.6874   23468319.3074
  13252195.10847  10684990.53445  25333597.5094   25333606.7984
  -1682878.51949  -1145792.33347  22254249.8854   22254256.3094
   -693812.59247   -440930.82645  25859773.3944   25859779.6194
  -2124250.58748  -1445263.65147  21906415.1344   21906417.6744
 -11430684.50848  -8522844.37847  21396329.6934   21396334.3564
 -10381331.73148  -7925484.33747  22807206.3244   22807208.8354
 02  8  5  1  1 30.0030000  0  9G 3G25G31G20G 2G27G22G 1G13
 -10180125.63348  -7773788.12446  21796353.7054   21796358.2594
  22837038.40447  18471348.38445  24740676.7314   24740684.1604
  -6605670.96248  -5131691.45446  23455049.7814   23455055.4584
  13374209.62347  10780066.73745  25356815.5374   25356825.0294
  -1614708.82148  -1092673.11547  22267223.9024   22267229.0324
   -734216.71947   -472414.53245  25852080.6094   25852091.5894
  -2018391.62449  -1362776.15447  21926553.1284   21926561.5204
 -11406612.55048  -8504087.01847  21400912.0304   21400914.7844
 -10411464.82448  -7948964.64047  22801472.3204   22801473.9974
 02  8  5  1  2  0.0030000  0  9G 3G25G31G20G 2G27G22G 1G13
 -10182651.28448  -7775756.21946  21795872.3834   21795877.5354
  22940190.17047  18551726.31345  24760307.9094   24760313.9634
  -6675198.03847  -5185868.29145  23441815.2494   23441823.9254
  13496178.82847  10875107.61345  25380027.7124   25380034.9324
  -1546405.37149  -1039449.60747  22280220.3184   22280226.4434
   -774741.02447   -503991.87245  25844371.6014   25844378.0754
  -1912352.37848  -1280148.14847  21946738.5424   21946740.2434
 -11382023.47649  -8484926.71447  21405591.1924   21405593.8654
 -10441217.14548  -7972148.23047  22795810.0804   22795812.1244
 02  8  5  1  2 30.0030000  0  9G 3G25G31G20G 2G27G22G 1G13
 -10184638.70148  -7777304.78647  21795492.4254   21795499.3864
  23043503.51247  18632230.16045  24779969.8274   24779974.9644
  -6744519.66847  -5239885.06645  23428623.9034   23428634.0754
  13618131.08847  10970135.25245  25403235.2504   25403241.5324
  -1477937.55648   -986098.11347  22293250.0624   22293255.8574
   -815353.90147   -535638.19245  25836645.5604   25836650.7514
  -1806103.48449  -1197356.81347  21966950.2224   21966958.4054
 -11356884.77749  -8465338.12947  21410374.6704   21410377.6324
 -10470555.10348  -7995008.95246  22790226.9664   22790229.3464
                            4  3
Solaris 2.7|Ultra 2|cc SC5.0|=+-|*Sparc                     COMMENT
teqc 2000Jul20 Neil Weston 20020806 04:09:26UTC             COMMENT
original post-header comments being skipped                 COMMENT
 02  8  5  1  3  0.0000000  0  9G 3G25G31G20G 2G27G22G 1G13
 -10186090.65248  -7778436.06647  20895839.7444   20895845.4424
  23146973.80747  18712856.31545  23900283.2714   23900286.3634
  -6813637.11048  -5293742.71646  22516099.2424   22516104.0414
  13740059.65747  11065144.50145  24527059.9884   24527066.3704
  -1409311.49349   -932623.19347  21406931.2284   21406937.3864
   -856059.21447   -567356.57645  24929517.3524   24929527.4254
  -1699651.16448  -1114406.92547  21087836.5174   21087838.4144
 -11331199.74349  -8445323.82647  20515884.2104   20515888.1594
 -10499480.27748  -8017548.01546  21885343.4414   21885348.3644
 02  8  5  1  3 30.0000000  0  9G 3G25G31G20G 2G27G22G 1G13
 -10186970.49648  -7779121.66746  20895674.7334   20895678.3374
  23250636.98847  18793632.73445  23920007.9604   23920012.5304
  -6882512.11548  -5347411.44146  22502993.3694   22502996.6984
  13861996.59147  11160160.27545  24550264.4114   24550270.7144
  -1340492.77549   -878998.28947  21420027.4544   21420033.3674
   -896821.25147   -599119.18645  24921763.1284   24921770.3294
  -1592962.35149  -1031272.79547  21108132.2654   21108140.7294
 -11304932.14448  -8424855.56147  20520880.5674   20520886.8574
 -10527955.18148  -8039736.21546  21879922.8834   21879930.8184
 02  8  5  1  4  0.0000000  0  9G 3G25G31G20G 2G27G22G 1G13
 -10187292.65848  -7779372.76447  20895610.3394   20895616.5444
  23354477.10147  18874547.00545  23939765.9704   23939772.5734
  -6951157.48248  -5400901.16946  22489930.7054   22489933.5604
  13983923.05647  11255167.86745  24573464.2444   24573471.9214
  -1271498.85949   -825236.71747  21433156.2494   21433162.0804
   -937655.52847   -630938.05645  24913994.9844   24914001.0984
  -1486054.72048   -947968.11747  21128482.8244   21128484.4074
 -11278096.96848  -8403945.01447  20525984.4434   20525993.4474
 -10555993.03248  -8061583.85646  21874585.9914   21874595.3734
 02  8  5  1  4 30.0000000  0  9G 3G25G31G20G 2G27G22G 1G13
 -10187098.06648  -7779221.02347  20895647.0854   20895653.5824
  23458451.86347  18955566.21345  23959549.5974   23959559.0114
  -7019612.53947  -5454242.63646  22476900.5184   22476906.3644
  14105793.70247  11350131.95945  24596654.0754   24596664.7434
  -1202372.96549   -771372.46447  21446310.2544   21446316.2704
   -978604.07647   -662845.98645  24906197.7484   24906206.9824
  -1378972.60149   -864527.53847  21148853.3584   21148861.3694
 -11250735.50148  -8382624.35146  20531188.9564   20531199.9614
 -10583633.97748  -8083122.21046  21869326.4134   21869334.3874
 02  8  5  1  5  0.0000000  0  9G 3G25G31G20G 2G27G22G 1G13
 -10186338.83148  -7778629.33946  20895792.6914   20895798.4254
  23562607.78947  19036726.59645  23979366.0074   23979379.3544
  -7087827.77647  -5507397.28545  22463914.3384   22463926.4934
  14227652.37947  11445086.68245  24619843.0644   24619853.0764
  -1133070.18249   -717370.20647  21459498.4284   21459504.3324
  -1019620.17147   -694806.59845  24898394.7464   24898401.6654
  -1271671.52448   -780916.26447  21169278.5594   21169280.5124
 -11222800.44648  -8360856.73146  20536506.5994   20536515.8444
 -10610828.82348  -8104312.97446  21864153.0244   21864158.1564
 02  8  5  1  5 30.0000000  0  9G 3G25G31G20G 2G27G22G 1G13
 -10185015.41048  -7777598.20546  20896046.0564   20896050.2894
  23666943.34647  19118026.93945  23999222.7014   23999232.4714
  -7155802.22148  -5560364.32246  22450984.7964   22450991.3034
  14349494.13547  11540028.23945  24643031.7944   24643038.9844
  -1063593.57149   -663232.66547  21472718.7974   21472725.3004
  -1060705.24147   -726820.87345  24890580.2534   24890583.5904
  -1164155.52149   -697137.61547  21189731.1984   21189739.7304
 -11194292.77548  -8338642.92847  20541935.0764   20541940.4774
 -10637577.56448  -8125156.12746  21859065.7894   21859067.8054
 02  8  5  1  6  0.0000000  0  9G 3G25G31G20G 2G27G22G 1G13
 -10183146.40348  -7776141.77347  20896398.7894   20896405.4544
  23771438.64747  19199451.75745  24019108.9904   24019117.9144
  -7223552.67948  -5613156.72946  22438095.1354   22438097.8074
  14471296.19247  11634938.84445  24666211.4554   24666216.2874
   -993964.36648   -608976.05647  21485969.5604   21485975.5024
  -1101878.54747   -758903.91545  24882738.0254   24882750.1804
  -1056446.27548   -613208.29447  21210233.9744   21210236.4284
 -11165231.38549  -8315997.67547  20547467.4174   20547471.2044
 -10663896.98548  -8145664.74247  21854058.4864   21854059.9394
 02  8  5  1  6 30.0000000  0  9G 3G25G31G20G 2G27G22G 1G13
 -10180710.57248  -7774243.61547  20896863.0534   20896869.1094
  23876113.48447  19281016.49345  24039031.3054   24039037.9434
  -7291056.25848  -5665756.75746  22425248.7614   22425252.0844
  14593075.70047  11729831.87545  24689384.2904   24689390.6404
   -924163.75949   -554586.04447  21499250.8014   21499257.8774
  -1143120.22647   -791040.26845  24874893.0184   24874901.2894
   -948525.97449   -529114.60747  21230764.4924   21230772.7484
 -11135595.57249  -8292904.83947  20553107.8354   20553110.9274
 -10689765.20548  -8165821.77847  21849136.2074   21849137.4384
 02  8  5  1  7  0.0000000  0  9G 3G25G31G20G 2G27G22G 1G13
 -10177699.15548  -7771897.05246  20897438.8344   20897442.2924
  23980975.23347  19362726.87745  24058987.0784   24058991.6904
  -7358302.75848  -5718156.47546  22412450.9924   22412456.8764
  14714836.72347  11824710.51545  24712552.4104   24712561.4184
   -854185.95248   -500057.80947  21512569.3314   21512574.2274
  -1184422.64647   -823223.91845  24867036.9924   24867040.8574
   -840389.27248   -444852.19147  21251347.4064   21251351.1064
 -11105377.52349  -8269358.31147  20558858.1044   20558860.9934
 -10715172.61248  -8185619.72047  21844300.8014   21844303.4014
 02  8  5  1  7 30.0000000  0  9G 3G25G31G20G 2G27G22G 1G13
 -10174142.46848  -7769125.66046  20898112.9894   20898119.0194
  24085992.19947  19444558.26745  24078972.2594   24078976.7384
  -7425320.74648  -5770378.19246  22399693.9094   22399703.6594
  14836545.11547  11919548.12745  24735710.5524   24735721.6594
   -784063.65549   -445417.11047  21525910.8694   21525918.1734
  -1225816.82047   -855479.05645  24859155.4484   24859163.1054
   -732069.70649   -360447.41447  21271955.1184   21271963.6894
 -11074607.91249  -8245381.99147  20564712.8174   20564716.0334
 -10740148.44448  -8205081.37347  21839547.1014   21839550.4244
 02  8  5  1  8  0.0000000  0  9G 3G25G31G20G 2G27G22G 1G13
 -10169996.37948  -7765894.85047  20898901.0154   20898907.5304
  24191207.92047  19526544.43645  24098992.6224   24098998.0334
  -7492064.20148  -5822386.00446  22386992.9604   22387001.6144
  14958240.91147  12014375.97645  24758871.9394   24758881.4774
   -713755.01948   -390631.11747  21539292.5114   21539297.4244
  -1267259.21547   -887771.84045  24851269.7214   24851278.2804
   -623526.27248   -275868.06947  21292614.3484   21292618.9974
 -11043242.76249  -8220941.60147  20570679.0294   20570684.6934
 -10764647.54148  -8224171.53946  21834882.7614   21834888.3754
 02  8  5  1  8 30.0000000  0  9G 3G25G31G20G 2G27G22G 1G13
 -10165260.31748  -7762204.34547  20899804.5484   20899809.2564
  24296621.61647  19608684.90145  24119049.8054   24119058.6074
  -7558530.90548  -5874178.12446  22374349.7704   22374352.8544
  15079920.49947  12109191.17545  24782027.0334   24782033.7474
   -643262.18349   -335701.66547  21552704.2224   21552711.4454
  -1308750.62847   -920102.79945  24843377.6344   24843383.6374
   -514761.54249   -191116.40547  21313308.7324   21313316.0224
 -11011282.30548  -8196037.31347  20576758.2824   20576766.5054
 -10788668.07248  -8242888.76946  21830309.0174   21830317.5534
 02  8  5  1  9  0.0000000  0  9G 3G25G31G20G 2G27G22G 1G13
 -10160004.95648  -7758109.29546  20900805.7414   20900809.3784
  24402161.38647  19690923.61445  24139130.6354   24139142.2254
  -7624789.72448  -5925808.23246  22361742.0064   22361744.5504
  15201509.07447  12203935.42645  24805166.4054   24805173.0214
   -572658.15048   -280685.52247  21566142.4444   21566146.6364
  -1350362.08147   -952527.26645  24835454.6184   24835463.9634
   -405849.44149   -106249.77447  21334035.8144   21334041.0374
 -10978797.69248  -8170724.57747  20582937.9754   20582948.6194
 -10812279.59648  -8261287.28846  21825815.7604   21825823.4054
 02  8  5  1  9 30.0000000  0  9G 3G25G31G20G 2G27G22G 1G13
 -10154157.15548  -7753552.56647  20901915.1134   20901921.7724
  24507899.56147  19773316.94545  24159252.0734   24159262.0504
  -7690765.54948  -5977217.83546  22349185.3294   22349190.0324
  15323076.08847  12298662.87745  24828298.2394   24828305.4084
   -501872.11249   -225527.55847  21579609.9724   21579617.2004
  -1392021.12347   -984988.83545  24827527.8534   24827535.7854
   -296719.60849    -21213.61347  21354802.1704   21354808.0554
 -10945716.00348  -8144946.59347  20589235.6754   20589243.5024
 -10835407.59048  -8279309.04146  21821416.2544   21821422.3634
 02  8  5  1 10  0.0000000  0  9G 3G25G31G20G 2G27G22G 1G13
 -10147715.76449  -7748533.20047  20903141.9254   20903147.5774
  24613836.16247  19855864.85845  24179412.3124   24179421.9694
  -7756455.35748  -6028404.61546  22336680.7954   22336689.8664
  15444618.46747  12393371.16645  24851424.9364   24851433.6004
   -430905.19848   -170228.67547  21593117.5464   21593121.4014
  -1433727.25947  -1017487.11945  24819596.6244   24819600.7414
   -187374.32949     63990.55647  21375608.8104   21375615.3514
 -10912036.71649  -8118702.96547  20595647.8824   20595652.7654
 -10858049.96148  -8296952.38746  21817109.8444   21817113.6424
 02  8  5  1 10 30.0000000  0  9G 3G25G31G20G 2G27G22G 1G13
 -10140704.22248  -7743069.61746  20904478.2124   20904481.8234
  24719946.42047  19938548.08845  24199607.3284   24199614.7794
  -7821880.99548  -6079385.58246  22324229.6204   22324238.9054

   -359783.71549   -114809.29747  21606648.7474   21606655.2774
  -1475505.16747  -1050041.27745  24811642.1394   24811650.0944
    -77839.98548    149341.92547  21396454.8864   21396458.7774
 -10877784.00449  -8092012.53747  20602167.7364   20602170.5144
 -10880229.17048  -8314234.85347  21812891.4354   21812892.6634
 02  8  5  1 11  0.0000000  0  9G 3G25G31G20G 2G27G22G 1G13
 -10133140.84448  -7737176.16047  20905915.4364   20905921.2254
  24826210.76547  20021351.39645  24219830.7454   24219836.0324
  -7887059.07048  -6130173.62046  22311831.3114   22311836.4314
    150473.87944     82688.10543
   -288527.95648    -59285.35547  21620210.5744   21620214.5994
  -1517373.52647  -1082665.96645  24803673.0204   24803683.4914
     31861.80149    234823.88747  21417326.6504   21417334.6184
 -10842976.69149  -8064889.95547  20608791.4484   20608793.9674
 -10901962.42548  -8331169.81947  21808756.2944   21808757.6974
 02  8  5  1 11 30.0000000  0  9G 3G25G31G20G 2G27G22G 1G13
 -10125026.02549  -7730852.84347  20907458.9054   20907465.3754
  24932628.08447  20104273.92545  24240083.0514   24240087.7434
  -7951987.71548  -6180767.27146  22299477.3374   22299481.2644
     61399.03654     25906.49043
   -217140.54049     -3658.73347  21633792.9274   21633799.2374
  -1559333.32147  -1115361.84945  24795694.4764   24795698.8764
    141728.19848    320434.01447  21438238.3834   21438241.9154
 -10807615.31249  -8037335.64247  20615520.2884   20615522.8254
 -10923248.62848  -8347756.43147  21804705.3134   21804707.5404
 02  8  5  1 12  0.0000000  0  9G 3G25G31G20G 2G27G22G 1G13
 -10116318.49048  -7724067.66947  20909116.9154   20909122.3434
  25039237.92747  20187346.48545  24260364.4544   24260373.1954
  -8016624.29448  -6231133.31746  22287177.4674   22287180.5184
    182694.96744    120423.35644
   -145582.86048     52100.44647  21647411.4504   21647416.4304
  -1601344.26547  -1148097.59145  24787694.7034   24787704.2664
    251796.81049    406201.79447  21459178.1394   21459186.8784
 -10771659.65949  -8009318.25047  20622361.0304   20622364.8524
 -10944045.47348  -8363961.74047  21800746.7634   21800750.1384
 02  8  5  1 12 30.0000000  0  9G 3G25G31G20G 2G27G22G 1G13
 -10106987.73148  -7716797.01046  20910894.5344   20910897.9064
  25146070.27147  20270592.35745  24280694.0554   24280703.6634
  -8080936.16448  -6281246.37446  22274935.8364   22274942.0964
    303976.16644    214928.05644
    -73826.76049    108014.37047  21661064.7764   21661070.9284
  -1643376.23947  -1180849.78245  24779695.6284   24779705.0624
    362095.62448    492148.89247  21480174.0474   21480176.1194
 -10735079.36649  -7980814.10947  20629319.6874   20629325.7694
 -10964321.78548  -8379761.41447  21796885.3844   21796891.4664
 02  8  5  1 13  0.0000000  0  9G 3G25G31G20G 2G27G22G 1G13
 -10097109.77649  -7709099.89147  20912771.4564   20912777.5574
  25253048.64647  20353952.04545  24301046.4974   24301060.3774
  -8144996.91748  -6331163.81546  22262741.7004   22262751.8614
    425163.49446    309359.62245  24989955.4754   24989970.3044
     -1949.66949    164022.43147  21674743.2644   21674748.7894
  -1685505.41947  -1213677.65945  24771684.8674   24771687.7934
    472545.83648    578214.00347  21501184.3824   21501193.8934
 -10697950.60948  -7951882.57547  20636382.3534   20636391.1164
 -10984151.51848  -8395213.09146  21793109.7234   21793117.3754
 02  8  5  1 13 30.0000000  0  9G 3G25G31G20G 2G27G22G 1G13
 -10086665.89849  -7700961.71547  20914758.6394   20914764.9024
  25360190.20747  20437438.90245  24321438.3994   24321449.4654
  -8208786.04148  -6380869.59946  22250607.6784   22250614.3264
     32286.35854      6998.40643
     70064.66549    220137.59347  21688446.8624   21688452.9974
  -1727713.58047  -1246567.06745  24763647.0904   24763657.6094
    583163.40848    664409.50246  21522242.2224   21522243.6224
 -10660255.28948  -7922509.55747  20643556.1014   20643564.1534
 -11003514.77648  -8410301.28546  21789425.3474   21789432.5904
 02  8  5  1 14  0.0000000  0  8G 3G25G31G 2G27G22G 1G13
 -10075664.02548  -7692388.80847  20916854.4034   20916858.6624
  25467485.90347  20521045.85945  24341858.3494   24341865.7544
  -8272309.64048  -6430368.41646  22238522.4134   22238524.5714
    142206.15849    276351.66447  21702174.7954   21702181.2934
  -1770009.52447  -1279524.94245  24755598.0244   24755607.2444
    693937.33948    750726.84047  21543314.0734   21543323.4274
 -10622002.06349  -7892701.82147  20650838.9924   20650843.6204
 -11022418.65148  -8425031.52546  21785831.1504   21785834.4234
 02  8  5  1 14 30.0000000  0  8G 3G25G31G 2G27G22G 1G13
 -10064077.01948  -7683360.03647  20919058.5494   20919063.5654
  25574962.06447  20604793.42745  24362314.9334   24362318.2354
  -8335538.79948  -6479637.79146  22226489.1204   22226492.7254
    214499.31249    332684.08447  21715932.1394   21715938.3264
  -1812366.47547  -1312530.31045  24747543.1904   24747547.7434
    804891.82648    837184.91146  21564435.6354   21564437.3814
 -10583164.37849  -7862438.68947  20658231.3594   20658233.9354
 -11040834.93748  -8439381.84347  21782328.7034   21782330.6464
 02  8  5  1 15  0.0000000  0  8G 3G25G31G 2G27G22G 1G13
 -10051913.48749  -7673881.89747  20921371.3204   20921378.1884
  25682609.06747  20688674.14445  24382798.9564   24382803.5424
  -8398479.77048  -6528682.63546  22214510.1344   22214515.4424
    286934.06049    389126.66447  21729715.1584   21729721.8774
  -1854793.44347  -1345590.21745  24739465.1164   24739473.6994
    916015.76748    923774.94047  21585574.6964   21585582.9964
 -10543751.04449  -7831727.01247  20665732.1304   20665734.0914
 -11058770.57748  -8453357.64347  21778916.0074   21778917.8574
 02  8  5  1 15 30.0000000  0  8G 3G25G31G 2G27G22G 1G13
 -10039157.83948  -7663942.36247  20923799.7824   20923805.4424
  25790441.56447  20772699.36645  24403316.4514   24403322.7284
  -8461115.00448  -6577489.28246  22202587.0094   22202597.5374
    359523.45348    445689.91847  21743529.8484   21743535.6584
  -1897275.09447  -1378692.80145  24731379.3834   24731389.8744
   1027321.61548   1010506.82146  21606760.7124   21606764.1934
 -10503747.01949  -7800555.05247  20673343.9204   20673346.8334
 -11076208.76648  -8466945.83347  21775597.1144   21775599.0474
 02  8  5  1 16  0.0000000  0  8G 3G25G31G 2G27G22G 1G13
 -10025842.06748  -7653566.45946  20926336.4424   20926339.3214
  25898426.65547  20856843.51445  24423861.7474   24423872.6714
  -8523474.63048  -6626081.19546  22190722.4994   22190729.4244
    432233.52249    502347.03747  21757364.1064   21757371.5454
  -1939843.91647  -1411863.24045  24723285.4264   24723289.2284
   1138774.90848   1097353.47247  21627965.7094   21627972.8254
 -10463184.94349  -7768948.24347  20681061.4014   20681065.5264
 -11093180.62948  -8480170.64947  21772366.0324   21772369.9304
 02  8  5  1 16 30.0000000  0  8G 3G25G31G 2G27G22G 1G13
 -10011902.56049  -7642704.51247  20928985.3114   20928991.9434
  26006627.31747  20941155.57545  24444450.8154   24444462.7864
  -8585492.88648  -6674407.02846  22178925.5634   22178927.4794
    505125.80648    559146.28847  21771238.3034   21771242.6494
  -1982436.73047  -1445052.36045  24715175.4094   24715184.3934
   1250436.43548   1184362.51747  21649216.1184   21649222.0994
 -10422001.83448  -7736857.49947  20688895.5974   20688902.3194
 -11109621.16548  -8492981.42146  21769235.1594   21769241.6604
 02  8  5  1 17  0.0010000  0  8G 3G25G31G 2G27G22G 1G13
  -9997426.67249  -7631424.53247  20931739.9014   20931746.6374
  26114958.50047  21025569.38445  24465065.9154   24465077.5604
  -8647257.37248  -6722535.11646  22167171.9484   22167174.2414
    578113.30949    616019.61347  21785124.2054   21785131.6414
  -2025142.55447  -1478329.60945  24707047.8344   24707056.5694
   1362219.81648   1271466.37147  21670488.0194   21670493.3784
 -10380284.41448  -7704350.38847  20696831.8284   20696841.3474
 -11125617.14348  -8505445.78046  21766188.4594   21766197.4004
 02  8  5  1 17 30.0010000  0  8G 3G25G31G 2G27G22G 1G13
  -9982345.80448  -7619673.17947  20934612.6344   20934616.4314
  26223481.83447  21110132.90845  24485722.1554   24485728.1594
  -8708692.03648  -6770406.22646  22155477.2314   22155484.4344
    651258.82948    673016.17647  21799046.9214   21799050.6244
  -2067889.38247  -1511638.71845  24698919.6554   24698921.9454
   1474184.48648   1358711.62647  21691791.7874   21691799.5304
 -10337966.18648  -7671375.10847  20704885.5544   20704894.3414
 -11141096.28848  -8517507.39546  21763244.6764   21763251.8024
 02  8  5  1 18  0.0010000  0  8G 3G25G31G 2G27G22G 1G13
  -9966643.37348  -7607437.56247  20937599.7644   20937604.2984
  26332215.91047  21194860.69045  24506418.4484   24506420.3284
  -8769781.01648  -6818008.00546  22143850.1214   22143858.5294
    724578.76649    730148.57047  21812995.5404   21813002.8114
  -2110662.83347  -1544968.58445  24690774.2884   24690782.7694
   1586347.78948   1446111.54447  21713140.6534   21713144.3804
 -10295030.28148  -7637918.53947  20713059.3674   20713064.6704
 -11156042.17648  -8529153.50146  21760404.1974   21760406.9924
 02  8  5  1 18 30.0010000  0  8G 3G25G31G 2G27G22G 1G13
  -9950318.98349  -7594717.20447  20940703.6404   20940710.8464
  26441160.40747  21279752.37545  24527145.5734   24527151.4374
  -8830521.60148  -6865338.28746  22132293.1284   22132300.5674
    798071.87648    787415.96947  21826984.4614   21826987.8674
  -2153462.59547  -1578319.00545  24682628.6624   24682639.0014
   1698707.35849   1533664.47447  21734515.4064   21734525.1904
 -10251476.61549  -7603980.61947  20721349.0584   20721352.6644
 -11170453.04548  -8540382.73347  21757663.8024   21757664.3034
 02  8  5  1 19  0.0010000  0  8G 3G25G31G 2G27G22G 1G13
  -9933404.52649  -7581537.04147  20943923.8814   20943929.6264
  26550282.66647  21364782.60145  24547907.5684   24547916.7244
  -8890943.50548  -6912420.22546  22120799.2764   22120802.7944
    871704.18949    844791.78947  21840992.1774   21840999.7994
  -2196320.61947  -1611714.76945  24674479.1354   24674482.6054
   1811229.10248   1621343.72547  21755935.6024   21755937.5514
 -10207337.77349  -7569586.73047  20729748.7724   20729751.9294
 -11184359.25848  -8551218.73547  21755017.4844   21755018.1114
 02  8  5  1 19 30.0010000  0  8G 3G25G31G 2G27G22G 1G13
  -9915868.24648  -7567872.42947  20947264.2614   20947266.6344
  26659613.32847  21449975.19745  24568708.8284   24568722.9354
  -8951013.01048  -6959227.56146  22109369.0694   22109371.8124
    945505.51448    902299.34047  21855040.3464   21855043.5964
  -2239205.67747  -1645131.60145  24666313.8674   24666322.5814
   1923941.73149   1709171.73447  21777376.4084   21777385.9344
 -10162582.85149  -7534712.77747  20738265.0384   20738268.2534
 -11197728.13348  -8561636.03147  21752472.7864   21752474.3604
 02  8  5  1 20  0.0010000  0  8G 3G25G31G 2G27G22G 1G13
  -9897762.86749  -7553764.34247  20950705.2904   20950711.5544
  26769099.12947  21535288.67445  24589542.9344   24589556.8054
  -9010780.67948  -7005799.69446  22097992.1164   22097997.6554
   1019421.28749    959896.05647  21869102.0534   21869109.0054
  -2282170.34047  -1678610.49145  24658135.8604   24658145.4194
   2036790.24148   1797105.66647  21798858.1564   21798860.2504
 -10117264.97749  -7499400.15847  20746887.5314   20746891.8104
 -11210610.96848  -8571674.58447  21750018.3824   21750022.9054
 02  8  5  1 20 30.0010000  0  8G 3G25G31G 2G27G22G 1G13
  -9879072.67249  -7539200.45847  20954261.7384   20954268.3524
  26878754.92747  21620734.66045  24610416.1484   24610425.1364
  -9070228.15948  -7052122.40046  22086676.2714   22086685.2534
   1093465.74948   1017593.04847  21883196.1994   21883199.3604
  -2325198.86047  -1712139.09445  24649953.9984   24649957.4484
   2149788.05948   1885155.87147  21820354.5844   21820363.0264
 -10071368.79048  -7463636.88747  20755618.2614   20755625.6614
 -11222990.58348  -8581320.98946  21747659.9684   21747667.6874
 02  8  5  1 21  0.0010000  0  8G 3G25G31G 2G27G22G 1G13
  -9859781.05448  -7524167.99147  20957935.7144   20957939.7874
  26988596.99047  21706325.83345  24631321.7654   24631324.6024
  -9129336.46048  -7098180.79346  22075431.7784   22075438.0134
   1167653.72249   1075401.87847  21897309.5844   21897316.7934
  -2368274.60447  -1745704.50345  24641751.6224   24641761.3654
   2262949.78748   1973333.89147  21841891.5814   21841896.9574
 -10024877.84448  -7427410.14247  20764462.8444   20764472.4144
 -11234848.69648  -8590561.02346  21745403.6654   21745411.7464
 02  8  5  1 21 30.0010000  0  8G 3G25G31G 2G27G22G 1G13
  -9839917.13948  -7508689.68347  20961714.6504   20961719.7364
  27098595.65247  21792038.94345  24652253.4984   24652257.9054
  -9188132.77548  -7143996.04046  22064244.4104   22064248.7114
   1241954.45048   1133298.53847  21911452.0534   21911455.6184
  -2411426.63147  -1779329.40645  24633539.5554   24633549.7904
   2376243.68748   2061614.77147  21863450.0344   21863455.8744
  -9977822.07448  -7390743.27947  20773418.9454   20773427.2554
 -11246213.34948  -8599416.54147  21743243.9394   21743248.8884
 02  8  5  1 22  0.0010000  0  8G 3G25G31G 2G27G22G 1G13
  -9819451.71149  -7492742.53447  20965606.7284   20965613.9104
  27208778.81647  21877895.85645  24673216.0034   24673224.4454
  -9246585.48248  -7189543.51746  22053122.8544   22053125.2544
   1316395.22949   1191304.38947  21925613.9314   21925621.1514
  -2454625.72147  -1812990.91945  24625325.0694   24625327.0214
   2489696.49848   2150019.61647  21885036.9994   21885045.5944
  -9930172.54748  -7353613.76247  20782490.2654   20782494.2874
 -11257053.70648  -8607863.54047  21741184.0404   21741185.4114
 02  8  5  1 22 30.0010000  0  8G 3G25G31G 2G27G22G 1G13
  -9798428.26549  -7476360.55047  20969608.9554   20969614.5684
  27319102.83947  21963862.49645  24694208.1034   24694219.6424
  -9304735.69648  -7234855.28246  22042055.3704   22042060.4974
   1390931.31648   1249384.42547  21939800.8204   21939805.3694
  -2497915.27347  -1846722.91645  24617082.1414   24617091.0624
   2603262.78448   2238512.76846  21906653.6404   21906655.7484
  -9881973.33549  -7316055.94447  20791663.6904   20791666.5484
 -11267411.80448  -8615934.75947  21739213.1544   21739214.1984
 02  8  5  1 23  0.0010000  0  8G 3G25G31G 2G27G22G 1G13
  -9776790.78548  -7459500.20346  20973729.8444   20973731.8884
  27429622.88947  22049981.89745  24715239.6274   24715250.5234
  -9362524.96648  -7279885.86046  22031050.9784   22031063.3624
   1465616.78249   1307580.95847  21954009.8024   21954017.6354
  -2541239.11247  -1880481.70445  24608836.6574   24608847.1474
   2716996.04548   2327136.10847  21928288.5424   21928298.8384
  -9833168.91749  -7278026.54247  20800950.9914   20800953.8584
 -11277230.42848  -8623585.61447  21737342.8664   21737344.8824
 02  8  5  1 23 30.0010000  0  8G 3G25G31G 2G27G22G 1G13
  -9754530.67549  -7442154.65747  20977961.2484   20977967.7854
  27540346.81847  22136260.16545  24736314.7664   24736321.2204
  -9419942.54048  -7324626.77546  22020131.4514   22020136.2794
   1540459.21748   1365899.67347  21968254.2284   21968259.6084
  -2584588.57247  -1914260.39345  24600592.6904   24600596.7374
   2830902.81848   2415894.61746  21949973.6404   21949974.6984
  -9783751.20449  -7239519.24547  20810354.1554   20810357.5084
 -11286499.43448  -8630808.18347  21735576.5284   21735581.3674
 02  8  5  1 24  0.0010000  0  8G 3G25G31G 2G27G22G 1G13
  -9731659.66549  -7424333.01147  20982313.2284   20982319.7584
  27651262.53747  22222687.93545  24757424.6554   24757428.2374
  -9476997.63848  -7369085.17146  22009276.2094   22009279.5984
   1615444.76849   1424330.04847  21982521.7054   21982529.0894
  -2627974.80947  -1948067.73545  24592333.0894   24592340.4894
   2944969.21248   2504777.48847  21971670.9044   21971680.4274
  -9733732.34649  -7200543.51347  20819870.3694   20819875.8194
 -11295229.22848  -8637610.55846  21733912.2954   21733919.9674
 02  8  5  1 24 30.0010000  0  8G 3G25G31G 2G27G22G 1G13
  -9708220.66448  -7406068.83047  20986776.6974   20986780.1674
  27762326.62447  22309231.27445  24778555.5994   24778562.3944
  -9533730.75248  -7413292.68546  21998479.2464   21998483.9214
   1690529.19549   1482837.33247  21996811.4774   21996817.0874
  -2671440.83447  -1981937.33545  24584060.4384   24584068.3044
   3059150.18648   2593749.71546  21993405.9334   21993408.4684
  -9683155.76748  -7161133.16647  20829490.9794   20829500.2794
 -11303461.25448  -8644025.05446  21732346.5754   21732353.7534
 02  8  5  1 25  0.0010000  0  8G 3G25G31G 2G27G22G 1G13
  -9684196.13548  -7387348.48947  20991347.1784   20991351.7194
  27873555.66547  22395903.12345  24799716.3724   24799729.5354
  -9590122.06548  -7457233.89646  21987746.4054   21987752.7474
   1765728.33049   1541434.13447  22011120.1764   22011127.3574
  -2714968.71447  -2015855.08045  24575782.3974   24575785.5664
   3173461.11848   2682823.08646  22015153.6494   22015161.5614
  -9632004.61448  -7121275.08447  20839224.8994   20839233.8294
 -11311176.35648  -8650036.76747  21730882.7994   21730885.4794
 02  8  5  1 25 30.0010000  0  8G 3G25G31G 2G27G22G 1G13
  -9659578.50949  -7368165.83747  20996029.7214   20996036.6424
  27984957.04547  22482709.25345  24820915.9444   24820927.7164
  -9646161.10248  -7500900.62146  21977078.7014   21977088.0274
   1841048.99749   1600125.49847  22025454.6124   22025460.4584
  -2758550.45147  -2049814.79545  24567483.4404   24567494.3634
   3287907.80548   2772002.38346  22036933.2374   22036939.8624
  -9580271.22248  -7080963.32247  20849072.7204   20849078.1944
 -11318365.47848  -8655638.64647  21729517.1794   21729517.4164
 02  8  5  1 26  0.0010000  0  8G 3G25G31G 2G27G22G 1G13
  -9634414.66549  -7348557.57947  21000819.5884   21000825.0824
  28096483.86547  22569613.08445  24842139.7784   24842150.4564
  -9701892.38748  -7544327.56946  21966478.5964   21966483.0884
   1916442.43349   1658873.70147  22039800.7784   22039806.9834
  -2802232.39047  -2083852.67945  24559173.9744   24559179.9874
   3402441.46248   2861249.31746  22058731.0804   22058734.6454
  -9528003.02549  -7040234.85047  20859021.9394   20859024.5364
 -11325073.92149  -8660865.98847  21728240.8134   21728241.1134
 02  8  5  1 26 30.0010000  0  8G 3G25G31G 2G27G22G 1G13
  -9608700.31648  -7328520.47746  21005715.7674   21005718.3474
  28208139.00846  22656616.99944  24863392.5364   24863399.0294
  -9757309.66948  -7587509.77546  21955935.1214   21955937.6724
   1991911.32549   1717680.56847  22054162.3914   22054168.4754
  -2846010.31147  -2117965.28645  24550845.6104   24550849.4114
   3517063.68648   2950565.37347  22080537.6174   22080546.9234
  -9475196.98549  -6999087.30047  20869071.2584   20869073.0754
 -11331296.53748  -8665714.74947  21727054.1684   21727056.4214
 02  8  5  1 27  0.0010000  0  8G 3G25G31G 2G27G22G 1G13
  -9582382.40349  -7308013.02947  21010719.4214   21010726.3204
  28319975.58246  22743762.24344  24884673.2634   24884680.1144
  -9812356.95148  -7630403.64846  21945457.4404   21945461.3664
   2067507.43749   1776586.70547  22068547.6334   22068553.7694
  -2889830.49047  -2152110.82445  24542499.9724   24542510.6724
   3631826.29948   3039990.77046  22102384.0414   22102384.9234
  -9421799.99249  -6957479.26747  20879231.8994   20879233.9474
 -11336978.06148  -8670141.86147  21725968.9954   21725975.7094
 02  8  5  1 27 30.0010000  0  8G 3G25G31G 2G27G22G 1G13
  -9555466.57149  -7287039.57347  21015841.9294   21015848.2384
  28431987.48547  22831044.22545  24905983.8184   24905995.9754
  -9867037.24948  -7673011.59046  21935049.9634   21935056.9274
   2143224.43849   1835586.90347  22082956.2104   22082962.1534
  -2933698.00047  -2186293.29845  24534155.5744   24534162.3064
   3746721.46848   3129519.45147  22124240.2674   22124249.5864
  -9367818.07249  -6915415.43447  20889501.7844   20889505.9314
 -11342122.77948  -8674150.66546  21724988.6074   21724996.5024
 02  8  5  1 28  0.0010000  0  8G 3G25G31G 2G27G22G 1G13
  -9527942.98648  -7265592.59147  21021083.1454   21021086.0404
  28544184.02947  22918469.92945  24927333.5714   24927346.3364
  -9921338.27648  -7715324.04446  21924714.2894   21924724.1904
   2219070.81049   1894688.04547  22097389.5134   22097394.6564
  -2977602.62847  -2220504.63745  24525804.5124   24525808.8134
   3861757.22048   3219157.74146  22146136.0034   22146139.7104
  -9313241.88248  -6872888.50247  20899883.9064   20899891.8784
 -11346719.42748  -8677732.41247  21724117.0524   21724121.6204
 02  8  5  1 28 30.0010000  0  8G 3G25G31G 2G27G22G 1G13
  -9499803.67548  -7243665.91947  21026435.5074   21026440.4264
  28656572.51347  23006045.24645  24948722.4254   24948732.7124
  -9975249.73448  -7757332.91646  21914460.5614   21914464.2994
   2295053.11849   1953894.97647  22111847.8564   22111853.3384
  -3021536.03547  -2254738.43945  24517437.8634   24517448.9624
   3976939.56348   3308910.15146  22168052.0344   22168058.4384
  -9258064.09548  -6829892.77847  20910383.6084   20910391.6564
 -11350758.73448  -8680879.89347  21723351.4084   21723352.9664
 02  8  5  1 29  0.0010000  0  8G 3G25G31G 2G27G22G 1G13
  -9471055.82849  -7221264.94047  21031903.9934   21031911.0164
  28769145.40847  23093764.25045  24970150.5234   24970154.6034
 -10028776.31948  -7799041.79146  21904276.8624   21904278.2554
   2371162.81648   2013201.31747  22126331.5674   22126336.8284
  -3065504.50947  -2288999.63145  24509073.0314   24509080.7954
   4092259.27948   3398769.72247  22189994.3614   22190002.6434
  -9202292.29449  -6786434.20947  20921000.4174   20921004.7944
 -11354246.39349  -8683597.53747  21722688.5024   21722689.0224
 02  8  5  1 29 30.0010000  0  8G 3G25G31G 2G27G22G 1G13
  -9441707.31048  -7198395.91147  21037490.6024   21037495.8424
  28881894.46146  23181620.54445  24991604.1334   24991611.3984
 -10081923.06448  -7840454.71846  21894158.9234   21894165.9574
   2447390.97649   2072599.81147  22140836.2114   22140842.2654
  -3109515.72547  -2323294.03445  24500703.7874   24500705.9774
   4207707.14248   3488729.05446  22211969.6434   22211971.9894
  -9145934.73549  -6742519.23647  20931726.8044   20931729.0494
 -11357188.59148  -8685890.14547  21722127.2934   21722128.8574
 02  8  5  1 30  0.0010000  0  8G 3G25G31G 2G27G22G 1G13
  -9411773.30148  -7175070.76346  21043189.4174   21043192.1784
  28994804.21446  23269602.09945  25013086.2344   25013097.4754
 -10134702.41048  -7881581.45946  21884112.4544   21884121.4094
   2523721.25548   2132078.02947  22155362.7514   22155367.8304
  -3153583.91847  -2357632.84945  24492309.6314   24492319.9594
   4323266.11448   3578775.01747  22233951.7124   22233961.6934
  -9089006.99049  -6698159.96947  20942560.0704   20942561.9674
 -11359598.70248  -8687768.12047  21721665.1464   21721670.6944
 02  8  5  1 30 30.0010000  0  8G 3G25G31G 2G27G22G 1G13
  -9381230.53249  -7151271.19247  21048997.5904   21049004.0304
  29107897.84147  23357726.85845  25034603.1434   25034617.7034
 -10187088.53948  -7922401.75046  21874145.9394   21874151.9364
   2600175.79249   2191652.93147  22169909.9964   22169916.5674
  -3197684.93447  -2391997.27545  24483920.4794   24483928.5814
   4438957.77248   3668924.37646  22255975.6454   22255977.6144
  -9031486.44849  -6653338.77847  20953504.9334   20953508.0694
 -11361452.03448  -8689212.21147  21721311.0304   21721318.0854
 02  8  5  1 31  0.0010000  0  8G 3G25G31G 2G27G22G 1G13
  -9350085.01749  -7127001.86947  21054924.4774   21054930.9044
  29221168.49947  23445989.54145  25056159.3484   25056173.3524
 -10239085.14548  -7962918.49746  21864255.1854   21864258.7094
   2676747.31348   2251319.13247  22184482.6754   22184487.4864
  -3241824.66447  -2426391.80945  24475524.9584   24475528.3924
   4554774.26848   3759170.92946  22278008.1164   22278016.3514
  -8973379.92649  -6608060.96847  20964560.7254   20964565.6404
 -11362753.39748  -8690226.20747  21721066.6844   21721070.2324
 02  8  5  1 31 30.0010000  0  8G 3G25G31G 2G27G22G 1G13
  -9318349.67448  -7102273.01046  21060967.4384   21060970.2114
  29334602.97047  23534379.90745  25077754.0084   25077758.1434
 -10290702.49848  -8003139.69846  21854432.9884   21854435.5564
   2753421.96449   2311065.56647  22199071.7504   22199078.4664
  -3286014.94747  -2460825.75145  24467108.4774   24467118.3364
   4670701.03048   3849503.52946  22300069.7934   22300076.8464
  -8914700.67648  -6562336.85747  20975724.6154   20975731.6664
 -11363513.94149  -8690818.81147  21720924.9644   21720925.5364
 02  8  5  1 32  0.0010000  0  8G 3G25G31G 2G27G22G 1G13
  -9286028.27548  -7077087.57747  21067115.0694   21067120.2624
  29448197.47947  23622894.96145  25099370.8824   25099374.5164
 -10341941.39648  -8043066.03046  21844677.4104   21844683.5244
   2830194.93849   2370888.73047  22213683.5714   22213688.0064
  -3330258.91647  -2495301.56245  24458691.8884   24458700.3834
   4786732.85348   3939917.87646  22322152.8884   22322156.7414
  -8855452.81448  -6516169.65847  20986997.8764   20987006.0944
 -11363735.95949  -8690991.80647  21720882.5574   21720883.7594
 02  8  5  1 32 30.0010000  0  8G 3G25G31G 2G27G22G 1G13
  -9253109.45149  -7051436.48447  21073377.4584   21073384.7934
  29561963.11647  23711543.35645  25121014.4684   25121023.6654
 -10392787.61148  -8082686.46546  21835001.0314   21835009.2804
   2907076.88249   2430796.68347  22228311.8344   22228318.3064
  -3374543.94747  -2529809.29645  24450268.3004   24450272.5804
   4902879.61248   4030421.87647  22344248.9164   22344259.0214
  -8795625.13748  -6469550.66147  20998385.8414   20998390.6004
 -11363406.23948  -8690734.87547  21720943.1414   21720946.1094
 02  8  5  1 33  0.0010000  0  8G 3G25G31G 2G27G22G 1G13
  -9219623.53149  -7025343.50147  21079751.5914   21079756.9074
  29675868.85347  23800300.87945  25142686.7244   25142699.6294
 -10443269.06148  -8122022.62946  21825397.5974   21825402.4844
   2984036.32949   2490765.14747  22242958.4054   22242963.2824
  -3418899.82947  -2564372.28245  24441821.5604   24441831.0904
   5019109.49648   4120990.61346  22366375.3444   22366376.8184
  -8735248.66649  -6422504.06347  21009878.1014   21009880.3204
 -11362553.74648  -8690070.56447  21721101.3314   21721108.4404
 02  8  5  1 33 30.0010000  0  7G 3G31G 2G27G22G 1G13
  -9185517.24048  -6998767.23146  21086245.0134   21086247.3034
 -10493330.08348  -8161031.15446  21815873.5454   21815875.1244
   3061125.37449   2550834.47447  22257626.1434   22257632.8864
  -3463272.69747  -2598948.52945  24433381.8144   24433388.1844
   5135473.79848   4211664.05846  22388511.6824   22388519.8404
  -8674270.93649  -6374988.96547  21021482.2324   21021483.9534
 -11361123.96648  -8688956.40747  21721372.6214   21721380.3704
 02  8  5  1 34  0.0010000  0  7G 3G31G 2G27G22G 1G13
  -9150837.23449  -6971743.83647  21092839.3004   21092846.3954
 -10543013.88648  -8199745.73746  21806418.5484   21806421.8314
   3138297.09349   2610968.34447  22272313.2004   22272318.3374
  -3507707.75447  -2633573.11745  24424927.7004   24424931.6564
   5251925.06348   4302405.36046  22410674.0464   22410679.6864
  -8612738.40949  -6327041.55647  21033190.5274   21033192.9294
 -11359160.99248  -8687426.77647  21721749.8164   21721754.2544
 02  8  5  1 34 30.0010000  0  7G 3G31G 2G27G22G 1G13
  -9115565.76149  -6944259.48247  21099551.7624   21099558.2814
 -10592300.04348  -8238150.57046  21797032.5074   21797043.1884
   3215568.33349   2671179.63947  22287015.8074   22287022.0464
  -3552186.22847  -2668231.58845  24416456.9144   24416468.3104
   5368479.51248   4393226.96146  22432856.0524   22432859.7084
  -8550634.05049  -6278648.54747  21045005.9404   21045011.1364
 -11356646.26749  -8685467.24047  21722231.2324   21722232.5844
 02  8  5  1 35  0.0010000  0  7G 3G31G 2G27G22G 1G13
  -9079680.98748  -6916297.31947  21106385.1264   21106387.0774
 -10641164.39948  -8276226.75046  21787739.3074   21787743.7034
   3292959.68149   2731484.64847  22301744.1974   22301749.1394
  -3596685.84447  -2702906.58945  24407994.0674   24408000.7144
   5485156.99348   4484144.50646  22455053.4364   22455062.0714
  -8487936.76848  -6229793.49947  21056934.3354   21056942.2244
 -11353556.35349  -8683059.51847  21722819.9634   21722820.0814
 02  8  5  1 35 30.0010000  0  7G 3G31G 2G27G22G 1G13
  -9043166.57249  -6887844.56947  21113329.7414   21113335.5644
 -10689587.61648  -8313959.06046  21778526.8814   21778529.9164
   3370487.03849   2791895.50747  22316495.4614   22316501.9324
  -3641188.92147  -2737584.22345  24399527.0854   24399530.2154
   5601973.05248   4575170.00946  22477290.6344   22477291.8224
  -8424630.27748  -6180463.74247  21068981.6194   21068989.6474
 -11349873.10148  -8680189.44247  21723518.3594   21723521.3084
 02  8  5  1 36  0.0010000  0  7G 3G31G 2G27G22G 1G13
  -9006103.48549  -6858964.16847  21120381.1734   21120388.4474
 -10737647.74848  -8351408.48447  21769380.5124   21769385.1334
   3448068.62948   2852348.75547  22331259.9994   22331265.1504
  -3685775.36347  -2772326.84145  24391036.7694   24391047.5834
   5718845.37948   4666239.31646  22499524.1154   22499531.7754
  -8360796.03249  -6130722.75347  21081131.0234   21081136.7754
 -11345675.53948  -8676918.57847  21724313.6614   21724320.2174
 02  8  5  1 36 30.0010000  0  7G 3G31G 2G27G22G 1G13
  -8968448.24948  -6829622.38247  21127549.4204   21127553.8284
 -10785298.49648  -8388538.91946  21760309.7894   21760315.5024
   3525747.19149   2912877.44347  22346040.0384   22346046.7054
  -3730400.53347  -2807099.64645  24382549.0634   24382554.1714
   5835815.88148   4757385.21746  22521783.7974   22521790.4694
  -8296391.24149  -6080537.19847  21093389.3704   21093392.5944
 -11340919.05448  -8673212.17347  21725219.5804   21725225.1004
 02  8  5  1 37  0.0010000  0  7G 3G31G 2G27G22G 1G13
  -8930162.32248  -6799789.29347  21134836.3134   21134839.4174
 -10832498.60148  -8425318.25846  21751326.7804   21751334.6984
   3603560.42748   2973511.19647  22360849.4674   22360853.8224
  -3775024.94847  -2841871.79045  24374058.5984   24374062.9664
   5952922.05648   4848636.72346  22544072.9694   22544075.6864
  -8231377.76149  -6029877.36247  21105761.8074   21105763.8374
 -11335563.40649  -8669038.91747  21726242.4564   21726244.5734
 02  8  5  1 37 30.0010000  0  7G 3G31G 2G27G22G 1G13
  -8891244.26049  -6769463.47947  21142237.7654   21142245.0874
 -10879243.61348  -8461742.93947  21742436.8694   21742440.0164
   3681509.57849   3034250.74547  22375681.2634   22375687.1954
  -3819645.77447  -2876641.21045  24365560.5274   24365572.6174
   6070164.28548   4939994.30646  22566375.8214   22566385.7614
  -8165754.37649  -5978742.27847  21118249.0324   21118251.5434
 -11329605.10849  -8664396.08247  21727378.4704   21727377.8864
 02  8  5  1 38  0.0020000  0  7G 3G31G 2G27G22G 1G13
  -8851799.50049  -6738727.22647  21149745.5884   21149751.1954
 -10925639.18748  -8497895.28747  21733607.4624   21733610.4874
   3759489.42648   3095014.33747  22390521.4684   22390526.5314
  -3864370.09247  -2911491.29045  24357056.5024   24357059.0294
   6187438.32748   5031376.68446  22588699.0014   22588702.6694
  -8099626.30749  -5927213.91547  21130830.4794   21130835.4894
 -11323149.59049  -8659365.80847  21728605.0604   21728606.6524
 02  8  5  1 38 30.0020000  0  7G 3G31G 2G27G22G 1G13
  -8811788.32248  -6707549.70147  21157364.0604   21157365.0764
 -10971636.81048  -8533737.56846  21724852.1714   21724857.5224
   3837536.62849   3155830.28247  22405372.4414   22405378.0964
  -3909151.60247  -2946385.86445  24348534.6084   24348538.8714
   6304777.54248   5122809.76746  22611024.7654   22611031.0384
  -8032956.01848  -5875263.02447  21143514.0344   21143522.3714
 -11316153.04648  -8653913.93647  21729933.9874   21729938.0544
 02  8  5  1 39  0.0020000  0  7G 3G31G 2G27G22G 1G13
  -8771197.56349  -6675920.54647  21165082.7974   21165089.2164
 -11017223.33848  -8569259.57546  21716173.2134   21716183.3384
   3915664.93949   3216709.56747  22420240.5324   22420245.6794
  -3953978.19747  -2981315.65445  24339998.3474   24340007.5654
   6422196.59048   5214305.16346  22633365.9824   22633374.9124
  -7965729.97348  -5822879.06147  21156306.5664   21156314.9384
 -11308602.03148  -8648029.97347  21731367.2094   21731374.7854
 02  8  5  1 39 30.0020000  0  7G 3G31G 2G27G22G 1G13
  -8729984.18349  -6643806.13547  21172924.7784   21172931.8004
 -11062352.96848  -8604425.53646  21707590.7914   21707593.7734
   3993917.06149   3277685.20347  22435131.2214   22435136.4084
  -3998805.81947  -3016246.25845  24331474.5054   24331478.0244
   6539737.72448   5305895.59246  22655741.4334   22655743.3734
  -7897905.58249  -5770028.87147  21169216.5694   21169221.6714
 -11300451.73248  -8641679.04547  21732920.9384   21732926.0394
 02  8  5  1 40  0.0020000  0  7G 3G31G 2G27G22G 1G13
  -8688195.04848  -6611243.14347  21180881.2424   21180884.1084
 -11107069.71148  -8639269.66847  21699083.0124   21699085.4694
   4072245.47949   3338720.40447  22450036.5544   22450042.0844
  -4043680.27147  -3051213.28345  24322934.1104   24322937.7374
   6657352.55348   5397543.45946  22678113.5024   22678123.9064
  -7829530.32749  -5716749.46447  21182230.3284   21182233.0054
 -11291747.36849  -8634896.39847  21734580.6194   21734582.0654
 02  8  5  1 40 30.0020000  0  7G 3G31G 2G27G22G 1G13
  -8645762.48548  -6578178.89847  21188954.1204   21188958.5124
 -11151303.01948  -8673737.14746  21690662.5124   21690669.1744
   4150717.37249   3399867.29147  22464969.5414   22464974.9114
  -4088532.20847  -3086162.83145  24314393.9964   24314403.2924
   6775107.81148   5489300.83346  22700527.3834   22700532.4784
  -7760537.22949  -5662988.63047  21195359.3604   21195362.1814
 -11282419.90949  -8627628.24547  21736355.8094   21736357.1974
 02  8  5  1 41  0.0020000  0  7G 3G31G 2G27G22G 1G13
  -8602697.76249  -6544621.92247  21197146.5024   21197153.5834
 -11195060.84748  -8707834.17846  21682333.1844   21682341.1404
   4229321.32149   3461117.18947  22479926.4944   22479932.6974
  -4133371.32547  -3121102.37846  24305867.3114   24305872.3004
   6892991.61548   5581158.24446  22722960.2114   22722964.8904
  -7690937.48349  -5608755.07847  21208603.1664   21208605.9854
 -11272478.77348  -8619881.88947  21738244.5254   21738248.6624
 02  8  5  1 41 30.0020000  0  7G 3G31G 2G27G22G 1G13
  -8559095.42949  -6510646.02547  21205446.2934   21205450.8664
 -11238434.80348  -8741632.02846  21674082.2294   21674087.4604
   4307962.55049   3522396.02647  22494892.8784   22494897.3974
  -4178290.73247  -3156104.42745  24297318.2904   24297323.1454
   7010908.42448   5673041.49646  22745393.7984   22745403.3164
  -7620826.12549  -5554122.86647  21221942.5724   21221947.7124
 -11262016.68148  -8611729.56747  21740231.8764   21740239.7774
 02  8  5  1 42  0.0020000  0  7G 3G31G 2G27G22G 1G13
  -8514945.24248  -6476243.33347  21213850.6954   21213852.2224
 -11281412.14649  -8775120.81047  21665906.8864   21665909.7084
   4386650.28549   3583711.20947  22509864.4544   22509871.2984
  -4223278.87847  -3191160.10045  24288751.1934   24288762.0844
   7128867.47648   5764957.61046  22767848.3584   22767850.3614
  -7550193.70448  -5499084.60047  21235379.8764   21235388.6934
 -11251022.04248  -8603162.25247  21742323.6474   21742331.6044
 02  8  5  1 42 30.0020000  0  7G 3G31G 2G27G22G 1G13
  -8470217.71149  -6441390.69647  21222356.9674   21222363.6954
 -11323959.96248  -8808274.87147  21657807.9804   21657811.4974
   4465414.21248   3645085.64447  22524854.7364   22524859.5264
  -4268304.72047  -3226245.15845  24280190.8604   24280193.2844
   7246897.48648   5856928.99746  22790303.8084   22790310.2104
  -7479010.81648  -5443617.38347  21248926.1904   21248934.1474
 -11239463.29148  -8594155.39447  21744527.6864   21744531.4304
 02  8  5  1 43  0.0020000  0  7G 3G31G 2G27G22G 1G13
  -8424835.59549  -6406027.93147  21230993.6574   21230999.7454
 -11365997.96148  -8841031.73346  21649804.2494   21649813.2584
   4544331.15049   3706579.42547  22539869.8514   22539877.2454
  -4313289.04147  -3261297.78146  24271628.6474   24271634.1714
   7365074.83748   5949015.27746  22812791.3744   22812799.7884
  -7407200.69548  -5387661.43947  21262594.7384   21262598.8234
 -11227261.64349  -8584647.60347  21746852.2134   21746852.7204
 02  8  5  1 43 30.0020000  0  7G 3G31G 2G27G22G 1G13
  -8378839.01948  -6370186.43247  21239750.8754   21239752.6064
 -11407563.56548  -8873420.52447  21641898.2064   21641903.9254
   4623360.82349   3768160.94147  22554911.7124   22554915.9474
  -4358270.81547  -3296348.50245  24263063.4724   24263074.7474
   7483358.56148   6041184.36946  22835306.2894   22835307.8774
  -7334804.06749  -5331248.50047  21276372.8984   21276376.0454
 -11214455.64048  -8574668.89447  21749287.5574   21749289.7954
 02  8  5  1 44  0.0020000  0  7G 3G31G 2G27G22G 1G13
  -8332236.01249  -6333872.45147  21248615.5074   21248620.4414
 -11448661.89848  -8905445.12947  21634079.0124   21634081.0374
   4702494.61949   3829823.70547  22569967.3114   22569974.6254
  -4403256.52248  -3331402.25046  24254510.3334   24254512.5774
   7601739.67348   6133429.36246  22857825.9504   22857834.5264
  -7261829.54349  -5274385.24747  21290260.2214   21290262.6754
 -11201051.79448  -8564224.30347  21751833.7044   21751839.8314
 02  8  5  1 44 30.0020000  0  7G 3G31G 2G27G22G 1G13
  -8285035.58349  -6297092.82647  21257595.7124   21257602.6464
 -11489298.68148  -8937110.07447  21626345.9024   21626349.8744
   4781723.90748   3891560.78347  22585048.0884   22585051.2174
  -4448253.20147  -3366464.49646  24245946.6924   24245950.6794
   7720208.86648   6225743.07646  22880372.3354   22880379.6304
  -7188286.26749  -5217078.81947  21304254.4424   21304257.4334
 -11187057.21148  -8553319.37246  21754495.0184   21754502.7584
 02  8  5  1 45  0.0020000  0  7G 3G31G 2G27G22G 1G13
  -8237250.86048  -6259857.93847  21266692.4404   21266695.9704
 -11529484.18948  -8968423.45546  21618693.3044   21618701.8724
   4861034.65649   3953361.42147  22600136.2984   22600143.4434
  -4493272.51747  -3401544.46445  24237374.4654   24237383.5734
   7838751.97748   6318114.27546  22902934.8074   22902936.6954
  -7114188.22049  -5159340.09347  21318352.2004   21318357.7334
 -11172483.91948  -8541963.51647  21757272.6624   21757276.4954
 02  8  5  1 45 30.0020000  0  7G 3G31G 2G27G22G 1G13
  -8188840.17048  -6222135.39547  21275905.4054   21275908.0054
 -11569173.45548  -8999350.14947  21611145.1574   21611148.6974
   4940468.94348   4015258.27347  22615256.5494   22615259.4644
  -4538270.89948  -3436608.10446  24228817.6514   24228821.6764
   7957410.29848   6410575.30346  22925507.2014   22925517.1554
  -7039493.79248  -5101136.62147  21332562.8854   21332571.7254
 -11157288.29349  -8530122.76247  21760168.0304   21760167.7204
 02  8  5  1 46  0.0020000  0  7G 3G31G 2G27G22G 1G13
  -8139824.99549  -6183941.72347  21285228.2554   21285235.4404
 -11608385.02049  -9029904.54247  21603684.7994   21603688.6254
   5020005.10749   4077234.53847  22630387.1164   22630394.5834
  -4583268.02047  -3471670.68045  24220252.0604   24220256.9704
   8076161.56948   6503108.77646  22948110.2024   22948114.4384
  -6964225.03948  -5042485.61547  21346887.1674   21346894.8284
 -11141489.59749  -8517812.08647  21763173.4674   21763174.5274
 02  8  5  1 46 30.0020000  0  7G 3G31G 2G27G22G 1G13
  -8090253.51149  -6145314.53647  21294662.9844   21294668.5404
 -11647164.00448  -9060121.88047  21596304.7724   21596308.4984
   5099595.07348   4139252.70547  22645538.0604   22645540.2824
  -4628310.17947  -3506768.42945  24211678.1114   24211687.2624
   8194957.17448   6595676.70946  22970716.7294   22970721.0314
  -6888430.51149  -4983424.93247  21361312.9794   21361318.1554
 -11125134.77948  -8505068.04747  21766282.1664   21766286.5304
 02  8  5  1 47  0.0020000  0  7G 3G31G 2G27G22G 1G13
  -8040077.17449  -6106216.12547  21304215.2084   21304216.8644
 -11685458.67748  -9089961.84046  21589013.0594   21589020.0904
   5179287.03949   4201350.35547  22660696.9564   22660705.0034
  -4673347.00747  -3541861.98746  24203112.9694   24203116.4924
   8313844.94248   6688316.56046  22993332.6524   22993344.2004
  -6812062.09449  -4923917.08247  21375848.0634   21375850.4634
 -11108173.66848  -8491851.54447  21769506.4724   21769513.9964
 02  8  5  1 47 30.0020000  0  7G 3G31G 2G27G22G 1G13
  -7989397.23249  -6066725.27047  21313854.4434   21313860.5904
 -11723367.53848  -9119501.22747  21581802.4154   21581808.3184
   5258979.89748   4263448.71347  22675868.0594   22675869.8484
  -4718478.43947  -3577029.23045  24194522.5014   24194528.0564
   8432723.03348   6780948.86446  23015963.5464   23015965.8414
  -6735221.61849  -4864041.41247  21390470.5784   21390473.1494
 -11090705.94848  -8478240.28647  21772834.2584   21772837.7354
 02  8  5  1 48  0.0020000  0  7G 3G31G 2G27G22G 1G13
  -7938111.75449  -6026762.48747  21323613.5664   21323619.7864
 -11760785.29049  -9148657.84547  21574684.1494   21574686.2944
   5338775.78549   4325627.31147  22691046.3684   22691054.7484
  -4763599.96447  -3612188.82245  24185932.8014   24185941.1254
   8551693.18848   6873652.78646  23038599.1004   23038606.3054
  -6657807.41949  -4803718.67147  21405200.7644   21405203.9784
 -11072627.71749  -8464153.34547  21776278.4194   21776277.9554
 02  8  5  1 48 30.0020000  0  7G 3G31G 2G27G22G 1G13
  -7886225.48649  -5986331.60047  21333490.8174   21333493.4504
 -11797713.77248  -9177433.19247  21567654.8914   21567659.1504
   5418669.73448   4387882.37647  22706255.5384   22706257.8824
  -4808714.78948  -3647343.15746  24177353.6104   24177356.0594
   8670749.79048   6966424.19246  23061251.1284   23061260.7664
  -6579824.96849  -4742953.12847  21420038.4774   21420043.5444
 -11053942.37149  -8449593.34447  21779833.8514   21779833.7654
 02  8  5  1 49  0.0020000  0  7G 3G31G 2G27G22G 1G13
  -7833770.30949  -5945457.47847  21343471.7174   21343475.5944
 -11834181.72748  -9205849.77847  21560712.2954   21560720.5534
   5498629.87449   4450188.93747  22721465.8084   22721474.1084
  -4853852.72948  -3682515.45446  24168762.0574   24168767.1954
   8789860.70548   7059237.85446  23083925.7494   23083927.1674
  -6501306.55648  -4681769.93747  21434977.0434   21434985.1864
 -11034680.28048  -8434583.90147  21783495.6004   21783499.3554
 02  8  5  1 49 30.0020000  0  7G 3G31G 2G27G22G 1G13
  -7780728.32849  -5904126.01447  21353561.7774   21353569.1634
 -11870167.94248  -9233890.99547  21553867.3784   21553870.9784
   5578674.71248   4512561.58747  22736702.1604   22736706.1154
  -4898993.75247  -3717690.24545  24160167.9284   24160176.3604
   8909043.48248   7152107.50646  23106599.5994   23106606.3984
  -6422234.53748  -4620155.33947  21450024.3424   21450032.4774
 -11014821.54748  -8419109.50847  21787270.9304   21787278.6034
 02  8  5  1 50  0.0020000  0  7G 3G31G 2G27G22G 1G13
  -7727097.47249  -5862335.67247  21363769.1854   21363774.5504
 -11905667.52249  -9261552.90047  21547114.2444   21547116.4514
   5658806.27949   4575001.70547  22751947.1064   22751954.6214
  -4944133.64848  -3752864.11246  24151583.6884   24151587.1464
   9028299.87148   7245034.60346  23129291.0114   23129301.6504
  -6342607.37549  -4558108.19947  21465179.9684   21465184.1754
 -10994362.29448  -8403167.18247  21791168.3004   21791171.5174
 02  8  5  1 50 30.0020000  0  7G 3G31G 2G27G22G 1G13
  -7672855.24448  -5820069.03347  21374095.1654   21374096.2424
 -11940654.63548  -9288815.52647  21540453.2574   21540459.1784
   5739047.06748   4637527.05147  22767218.9924   22767224.1064
  -4989248.26848  -3788018.24946  24142996.7244   24143001.6694
   9147652.09448   7338036.31346  23152011.6244   23152012.3704
  -6262402.95249  -4495611.25447  21480443.6134   21480446.9414
 -10973278.61149  -8386738.33247  21795183.6344   21795183.8894
 02  8  5  1 51  0.0020000  0  7G 3G31G 2G27G22G 1G13
  -7618036.81249  -5777353.37147  21384520.6924   21384527.6084
 -11975160.96348  -9315703.56146  21533884.6964   21533891.6254
   5819362.41449   4700110.38047  22782501.2204   22782507.1704
  -5034370.02147  -3823178.01745  24134406.7934   24134415.5814
   9267064.98248   7431085.26746  23174729.2254   23174736.5674
  -6181656.71149  -4432692.11047  21495810.1834   21495812.9364
 -10951603.57349  -8369848.68847  21799307.6404   21799308.2254
 02  8  5  1 51 30.0020000  0  7G 3G31G 2G27G22G 1G13
  -7562691.24349  -5734226.86447  21395052.6784   21395059.5844
 -12009232.72548  -9342252.97547  21527404.2554   21527409.9994
   5899703.22549   4762713.67347  22797789.7344   22797795.4424
  -5079546.19448  -3858380.16546  24125815.9024   24125818.2674
   9386488.79348   7524142.80046  23197452.6224   23197460.9814
  -6100418.25749  -4369389.43547  21511268.7624   21511271.8854
 -10929385.33948  -8352535.76147  21803532.1974   21803536.3654
 02  8  5  1 52  0.0020000  0  7G 3G31G 2G27G22G 1G13
  -7506738.45848  -5690627.28146  21405706.3534   21405707.2634
 -12042787.03549  -9368399.12747  21521021.1884   21521023.4304
   5980149.78349   4825399.24647  22813099.5044   22813104.4624
  -5124694.69948  -3893560.68446  24117221.9964   24117226.0414
   9506003.33248   7617270.97346  23220203.2424   23220205.2314
  -6018608.21849  -4305641.35847  21526833.8174   21526839.6274
 -10906542.32348  -8334735.95447  21807875.7754   21807883.1764
 02  8  5  1 52 30.0020000  0  7G 3G31G 2G27G22G 1G13
  -7450213.64348  -5646582.03347  21416457.9354   21416463.5214
 -12075855.82848  -9394166.93847  21514724.4794   21514730.0124
   6060667.13049   4888140.09647  22828418.8044   22828426.1284
  -5169848.42047  -3928745.37246  24108625.1454   24108635.4814
   9625573.12548   7710442.16646  23242949.4594   23242957.9924
  -5936262.22549  -4241475.62647  21542501.9734   21542510.0944
 -10883107.21348  -8316474.78447  21812338.6524   21812342.7814
 02  8  5  1 53  0.0020000  0  7G 3G31G 2G27G22G 1G13
  -7393104.20649  -5602081.09347  21427323.5174   21427331.1014
 -12108423.00348  -9419544.00547  21508526.0344   21508533.5804
   6141268.56848   4950946.36847  22843760.7094   22843763.7554
  -5214992.47948  -3963922.47646  24100042.2494   24100043.4294
   9745210.85848   7803666.39146  23265714.2594   23265723.8594
  -5853367.82648  -4176882.56547  21558275.9624   21558284.1544
 -10859066.06249  -8297741.40747  21816916.8954   21816917.7744
 02  8  5  1 53 30.0020000  0  7G 3G31G 2G27G22G 1G13
  -7335418.49748  -5557131.13046  21438304.7414   21438308.4214
 -12140494.09348  -9444534.43147  21502427.3834   21502429.4264
   6221945.73549   5013811.73147  22859108.1744   22859116.0964
  -5260133.20048  -3999096.93446  24091448.0064   24091454.3984
   9864907.97748   7896936.82446  23288500.7064   23288502.5034
  -5769934.05149  -4111869.21947  21574154.9074   21574160.6064
 -10834426.24049  -8278541.54447  21821604.9644   21821606.3534
 02  8  5  1 54  0.0020000  0  7G 3G31G 2G27G22G 1G13
  -7277176.93348  -5511748.17946  21449388.4784   21449391.4734
 -12172086.24949  -9469151.59847  21496415.8824   21496418.3144
   6302678.81548   5076720.60847  22874477.5564   22874479.2084
  -5305288.40147  -4034282.77945  24082851.4024   24082860.3954
   9984643.79848   7990237.38846  23311279.6644   23311286.6214
  -5685981.54049  -4046451.68747  21590133.4044   21590136.3424
 -10809205.72448  -8258889.17347  21826400.0934   21826405.6954
 02  8  5  1 54 30.0020000  0  7G 3G31G 2G27G22G 1G13
  -7218380.41249  -5465932.65047  21460571.3774   21460579.9604
 -12203196.91548  -9493393.64747  21490490.1524   21490498.9484
   6383467.40649   5139672.76047  22889844.1264   22889852.4144
  -5350456.66848  -4069478.74146  24074263.6104   24074264.5884
  10104417.72748   8083567.74946  23334069.1764   23334079.3924
  -5601511.49849  -3980630.88747  21606207.8724   21606211.0644
 -10783403.67248  -8238783.63047  21831308.0834   21831315.2584
 02  8  5  1 55  0.0020000  0  7G 3G31G 2G27G22G 1G13
  -7159017.93648  -5419676.08447  21471869.9794   21471876.4084
 -12233812.01848  -9517249.61147  21484667.3064   21484671.3544
   6464323.02148   5202677.15446  22905237.5464   22905238.8364
  -5395624.52848  -4104674.36146  24065664.6094   24065670.7984
  10224240.60048   8176936.19446  23356879.4214   23356880.5484
  -5516513.56549  -3914398.73947  21622381.9314   21622385.3104
 -10757007.77148  -8218215.35547  21836334.4824   21836338.6864
 02  8  5  1 55 30.0020000  0  7G 3G31G 2G27G22G 1G13
  -7099068.13748  -5372962.01246  21483283.5264   21483284.5754
 -12263907.44249  -9540700.49447  21478942.6294   21478946.0784
   6545266.87948   5265750.26747  22920633.5854   22920641.9014
  -5440768.64247  -4139851.56246  24057071.2794   24057079.9294
  10344133.38848   8270359.07346  23379688.9294   23379695.8224
  -5430967.28749  -3847739.32047  21638659.7354   21638663.7494
 -10729995.47449  -8197166.80647  21841478.3934   21841478.5614
 02  8  5  1 56  0.0020000  0  7G 3G31G 2G27G22G 1G13
  -7038503.83548  -5325769.06247  21494801.3604   21494808.8944
 -12293452.33048  -9563722.42347  21473318.7754   21473322.7944
   6626327.48748   5328914.42246  22936064.4484   22936067.3934
  -5485859.04148  -4174986.86846  24048495.9334   24048499.8424
  10464123.96248   8363858.23146  23402518.7734   23402527.9704
  -5344845.28249  -3780631.25847  21655045.0254   21655052.6844
 -10702337.30049  -8175614.98947  21846740.1434   21846741.8694
 02  8  5  1 56 30.0020000  0  7G 3G31G 2G27G22G 1G13
  -6977347.53749  -5278114.71647  21506440.0414   21506447.2064
 -12322465.75048  -9586330.25046  21467792.8854   21467802.1974
   6707482.91349   5392152.37047  22951503.3094   22951510.9384
  -5530915.25748  -4210095.49246  24039919.7794   24039925.1584
  10584189.92347   8457416.11846  23425375.0974   23425375.7654
  -5258170.31249  -3713092.28847  21671538.6254   21671546.3934
 -10674054.32748  -8153576.29347  21852118.1944   21852124.1294
 02  8  5  1 57  0.0020000  0  7G 3G31G 2G27G22G 1G13
  -6915678.98148  -5230061.29446  21518181.8014   21518181.9594
 -12351024.89449  -9608584.16647  21462364.2114   21462367.7284
   6788653.39148   5455402.16547  22966951.7504   22966957.7444
  -5576015.56848  -4245238.57946  24031334.7274   24031342.2844
  10704250.98947   8550970.11946  23448217.3454   23448223.1214
  -5171023.05549  -3645185.32347  21688123.4814   21688129.6734
 -10645225.56848  -8131112.28047  21857603.1034   21857610.0054
 02  8  5  1 57 30.0020000  0  7G 3G31G 2G27G22G 1G13
  -6853398.87548  -5181531.40347  21530027.4724   21530032.8394
 -12379026.94949  -9630403.85147  21457036.0004   21457037.5434
   6869939.20348   5518741.69147  22982419.5964   22982425.3534
  -5621057.49048  -4280336.14346  24022769.1634   24022770.6574
  10824406.90348   8644598.13246  23471078.1254   23471088.3584
  -5083304.56749  -3576833.25247  21704817.7784   21704821.3774
 -10615748.44649  -8108143.06147  21863217.0684   21863219.5974
 02  8  5  1 58  0.0020000  0  7G 3G31G 2G27G22G 1G13
  -6790564.32749  -5132569.32947  21541982.5584   21541990.1304
 -12406525.64648  -9651831.34247  21451799.9604   21451805.5564
   6951283.84649   5582127.19247  22997897.6424   22997905.0114
  -5666095.40448  -4315430.48946  24014195.0554   24014201.4974
  10944600.94448   8738255.84046  23493957.6184   23493961.5194
  -4995072.19349  -3508080.75547  21721610.2524   21721612.1944
 -10585678.68849  -8084712.08647  21868941.6864   21868941.5494
 02  8  5  1 58 30.0030000  0  7G 3G31G 2G27G22G 1G13
  -6727189.40848  -5083186.22546  21554046.9414   21554050.3954
 -12433534.90948  -9672877.54746  21446658.2284   21446666.1054
   7032674.61648   5645548.51947  23013389.3664   23013393.1134
  -5711144.84947  -4350533.94946  24005619.3614   24005628.8854
  11064820.89748   8831933.64646  23516834.3344   23516837.8754
  -4906339.66249  -3438938.54547  21738494.4614   21738497.0644
 -10555030.54449  -8060830.43047  21874772.0774   21874773.5414
 02  8  5  1 59  0.0030000  0  7G 3G31G 2G27G22G 1G13
  -6663275.11448  -5033382.96446  21566210.5294   21566212.8844
 -12460046.89349  -9693536.18947  21441618.7914   21441620.5794
   7114109.45249   5709004.27447  23028880.7994   23028889.5304
  -5756197.15548  -4385639.58346  23997052.1574   23997054.7554
  11185061.86348   8925627.91046  23539709.0294   23539718.8624
  -4817110.33949  -3369409.21747  21755472.4374   21755476.2374
 -10523802.07748  -8036496.53947  21880710.4024   21880716.0944
 02  8  5  1 59 30.0030000  0  7G 3G31G 2G27G22G 1G13
  -6598813.16649  -4983152.83147  21578471.6184   21578479.3774
 -12486052.72949  -9713800.38147  21436668.7094   21436672.7964
   7195598.56748   5772502.27247  23044394.8174   23044396.2794
  -5801244.53748  -4420741.31846  23988479.3434   23988482.2554
  11305334.69448   9019347.01046  23562600.6744   23562606.8614
  -4727375.18149  -3299485.72547  21772547.0004   21772553.5534
 -10491982.99148  -8011702.39747  21886765.2024   21886770.9034
 02  8  5  2  0  0.0030000  0  7G 3G31G 2G27G22G 1G13
  -6533836.53648  -4932521.61147  21590838.2184   21590843.6724
 -12511582.23048  -9733693.48846  21431806.4474   21431813.4794
   7277109.50149   5836017.27947  23059897.9414   23059907.1604
  -5846317.20347  -4455862.84546  23979895.1144   23979906.6354
  11425606.69748   9113065.39946  23585491.3794   23585492.9864
  -4637167.80648  -3229194.24847  21789710.0184   21789719.2264
 -10459605.06749  -7986472.82047  21892930.7454   21892932.6444
 02  8  5  2  0 30.0030000  0  7G 3G31G 2G27G22G 1G13
  -6468297.74848  -4881452.46846  21603316.0464   21603315.7434
 -12536584.84148  -9753176.02647  21427051.1704   21427056.0554
   7358690.65748   5899587.03446  23075430.2434   23075431.1944
  -5891365.19448  -4490965.14946  23971330.7424   23971332.3154
  11545925.41248   9206820.21746  23608380.3554   23608388.9554
  -4546441.15348  -3158498.13347  21806975.9534   21806983.6014
 -10426619.78249  -7960770.00647  21899209.6514   21899209.2114
 02  8  5  2  1  0.0030000  0  7G 3G31G 2G27G22G 1G13
  -6402194.23848  -4829943.26047  21615887.3594   21615894.9334
 -12561054.51749  -9772243.25247  21422397.2894   21422400.2314
   7440345.49948   5963214.14047  23090961.7364   23090969.8604
  -5936383.12548  -4526043.96246  23962763.9614   23962767.0344
  11666293.99148   9300613.92946  23631286.2874   23631294.3184
  -4455192.96448  -3087395.65247  21824342.6234   21824347.7074
 -10393022.17849  -7934590.05747  21905600.5794   21905602.0784
 02  8  5  2  1 30.0030000  0  7G 3G31G 2G27G22G 1G13
  -6335588.02048  -4778042.22147  21628562.2874   21628569.2014
 -12585049.97748  -9790940.92047  21417827.8634   21417832.6064
   7522012.81548   6026851.07047  23106506.1964   23106510.6544
  -5981429.77747  -4561145.20546  23954184.1414   23954193.5194
  11786651.03948   9394398.61946  23654196.4174   23654197.7394
  -4363485.47949  -3015935.27347  21841796.0234   21841799.4244
 -10358872.88248  -7907980.17847  21912093.8854   21912100.4214
 02  8  5  2  2  0.0030000  0  7G 3G31G 2G27G22G 1G13
  -6268372.57648  -4725666.53446  21641358.5924   21641360.2804
 -12608461.85248  -9809183.98146  21413370.9564   21413379.2104
   7603799.57248   6090580.95147  23122068.5904   23122073.7544
  -6026396.61548  -4596184.28646  23945634.4434   23945637.3924
  11907102.79948   9488257.07646  23677111.9574   23677118.9004
  -4271213.12549  -2944034.75047  21859356.1534   21859357.9734
 -10324064.59848  -7880856.78847  21918718.4274   21918724.4734
 02  8  5  2  2 30.0030000  0  7G 3G31G 2G27G22G 1G13
  -6200605.14248  -4672860.82146  21654251.9824   21654255.6334
 -12631343.99448  -9827014.17747  21409020.5084   21409023.7414
   7685649.59748   6154360.26747  23137642.6874   23137649.7054
  -6071337.55848  -4631203.08846  23937082.9614   23937085.7834
  12027592.85548   9582145.43946  23700037.2534   23700047.6054
  -4178433.36749  -2871738.86947  21877010.4924   21877012.9504
 -10288652.16949  -7853262.65947  21925461.6854   21925463.5834
                            4  1
original post-header comments being skipped                 COMMENT
 02  8  5  2  3  0.0000000  0  7G 3G31G 2G27G22G 1G13
  -6132264.46749  -4619608.28447  20767875.5804   20767883.4824
 -12653671.94849  -9844412.48947  20505394.6974   20505397.9384
   7767585.37648   6218206.27647  22253861.1084   22253864.1754
  -6116228.58947  -4666183.07646  23029153.8964   23029164.8194
  12148142.91448   9676080.53846  22823606.6434   22823609.8364
  -4085125.32249  -2799031.30947  20995387.1134   20995392.0074
 -10252613.54849  -7825180.61747  21032943.5204   21032944.0154
 02  8  5  2  3 30.0000000  0  7G 3G31G 2G27G22G 1G13
  -6063388.34648  -4565938.52747  20780985.1394   20780990.5504
 -12675480.35548  -9861406.03447  20501239.4944   20501247.8584
   7849569.57949   6282090.12047  22269456.9024   22269465.0134
  -6161104.57948  -4701151.34646  23020623.3734   23020625.6084
  12268715.45048   9770033.07946  22846550.4324   22846554.5314
  -3991327.36248  -2725941.98447  21013234.4734   21013241.6004
 -10215983.94549  -7796638.06247  21039910.5754   21039914.4424
 02  8  5  2  4  0.0000000  0  7G 3G31G 2G27G22G 1G13
  -5993955.51248  -4511835.07746  20794201.7364   20794202.8154
 -12696744.73748  -9877975.68847  20497197.4194   20497200.6894
   7931624.80648   6346029.26247  22285078.0894   22285079.7304
  -6205941.70848  -4736089.23446  23012092.1134   23012094.8144
  12389332.30348   9864020.23446  22869496.7214   22869507.1724
  -3897018.54748  -2652454.58247  21031178.5234   21031187.2544
 -10178740.86748  -7767617.43847  21046994.4064   21047001.5124
 02  8  5  2  4 30.0000000  0  7G 3G31G 2G27G22G 1G13
  -5924002.79149  -4457326.45947  20807507.0584   20807514.3334
 -12717498.46949  -9894147.34647  20493248.5964   20493252.5694
   8013715.41349   6409995.95947  22300692.7934   22300701.2054
  -6250773.12648  -4771022.76746  23003551.3024   23003562.7764
  12509957.44548   9958013.87846  22892453.2004   22892461.3154
  -3802235.95048  -2578597.99547  21049216.6384   21049224.0824
 -10140920.32449  -7738146.83947  21054194.6884   21054198.6794
 02  8  5  2  5  0.0000000  0  7G 3G31G 2G27G22G 1G13
  -5853488.46249  -4402380.15847  20820926.3314   20820932.3534
 -12737696.69148  -9909886.16947  20489403.2934   20489407.6654
   8095883.92748   6474023.43247  22316333.8104   22316337.3404
  -6295554.35848  -4805917.21846  22995037.3324   22995039.9674
  12630633.09448  10052046.81846  22915423.9374   22915424.8434
  -3706938.32149  -2504340.10647  21067354.8104   21067359.3084
 -10102478.71349  -7708192.32347  21061513.8694   21061513.9894
 02  8  5  2  5 30.0000000  0  7G 3G31G 2G27G22G 1G13
  -5782380.82748  -4346971.61247  20834462.7934   20834463.5214
 -12757304.56248  -9925165.04947  20485669.8524   20485677.2994
   8178163.03048   6538136.96447  22331988.2674   22331994.6514
  -6340251.17448  -4840745.77746  22986534.1634   22986535.1844
  12751391.34548  10146144.10446  22938397.7684   22938404.3364
  -3611094.49049  -2429656.61847  21085593.8684   21085597.3664
 -10063383.29849  -7677728.37747  21068953.4104   21068953.3054
 02  8  5  2  6  0.0000000  0  7G 3G31G 2G27G22G 1G13
  -5710744.22949  -4291150.91847  20848090.7704   20848095.5164
 -12776383.06049  -9940031.36447  20482044.3684   20482046.5204
   8260489.47748   6602287.50747  22347653.5164   22347660.7724
  -6384924.10048  -4875555.78246  22978022.5204   22978034.7294
  12872168.85848  10240256.46946  22961377.8914   22961387.0824
  -3514768.88049  -2354597.72547  21103924.8624   21103926.7434
 -10023695.67549  -7646802.94947  21076501.8434   21076505.7054
 02  8  5  2  6 30.0000000  0  7G 3G31G 2G27G22G 1G13
  -5638505.42949  -4234860.88847  20861835.0164   20861842.4804
 -12794855.76748  -9954425.58347  20478526.2774   20478531.1344
   8342937.86348   6666532.93046  22363346.4614   22363350.0704
  -6429497.15048  -4910288.03346  22969547.7054   22969551.7854
  12993039.33248  10334441.24546  22984384.8644   22984387.2904
  -3417888.95149  -2279106.90247  21122359.7114   21122363.1294
  -9983341.30548  -7615357.94447  21084177.4004   21084185.1304
 02  8  5  2  7  0.0000000  0  7G 3G31G 2G27G22G 1G13
  -5565714.04149  -4178140.29847  20875690.8094   20875694.3834
 -12812769.31948  -9968384.21047  20475114.6904   20475122.9544
   8425459.07248   6730835.21047  22379044.2134   22379052.9944
  -6474017.06948  -4944978.75446  22961079.1714   22961079.2334
  13113953.62647  10428660.12246  23007395.1164   23007397.8514
  -3320505.06748  -2203223.36347  21140889.2594   21140894.3034
  -9942368.96649  -7583431.41247  21091977.4924   21091981.3914
 02  8  5  2  7 30.0000000  0  7G 3G31G 2G27G22G 1G13
  -5492427.83949  -4121034.22247  20889636.6794   20889639.9064
 -12830178.18749  -9981949.54847  20471806.3444   20471809.0784
   8507997.06548   6795150.50646  22394758.4424   22394759.9284
  -6518538.33648  -4979670.55946  22952597.9884   22952609.4004
  13234854.72348  10522868.73546  23030396.0244   23030404.5704
  -3222675.10648  -2126992.22447  21159504.1044   21159510.4054
  -9900834.67049  -7551067.02847  21099884.5344   21099885.1144
 02  8  5  2  8  0.0000000  0  7G 3G31G 2G27G22G 1G13
  -5418621.92549  -4063523.08547  20903677.6094   20903684.9044
 -12847054.20249  -9995099.57347  20468595.0304   20468597.9284
   8590577.78248   6859499.10147  22410465.7364   22410474.5024
  -6563032.75248  -5014341.56946  22944136.4944   22944142.1614
  13355768.41948  10617087.20246  23053405.2844   23053414.1674
  -3124374.67848  -2050394.48546  21178208.2774   21178216.2644
  -9858712.83349  -7518244.82347  21107899.0664   21107900.8634
 02  8  5  2  8 30.0000000  0  7G 3G31G 2G27G22G 1G13
  -5344265.48649  -4005582.95447  20917829.4634   20917834.1414
 -12863363.20048 -10007807.86246  20465485.7274   20465494.1354
   8673233.13948   6923905.92047  22426199.7944   22426203.0234
  -6607466.17848  -5048964.86446  22935684.4514   22935684.9234
  13476726.32448  10711340.08946  23076428.5634   23076431.7254
  -3025573.41648  -1973406.47147  21197010.4094   21197018.1314
  -9815969.18549  -7484938.06947  21116029.5304   21116034.6474
 02  8  5  2  9  0.0000000  0  7G 3G31G 2G27G22G 1G13
  -5269411.12349  -3947254.91547  20932076.8614   20932078.8064
 -12879154.68248 -10020112.93447  20462484.7774   20462488.7064
   8755911.83548   6988330.81847  22441930.4554   22441936.4194
  -6651888.26948  -5083579.39546  22927222.1404   22927232.3884
  13597676.61848  10805586.99146  23099443.5904   23099447.7294
  -2926324.19948  -1896069.41947  21215900.0294   21215904.5734
  -9772657.04549  -7451188.31947  21124270.8094   21124276.4644
 02  8  5  2  9 30.0000000  0  7G 3G31G 2G27G22G 1G13
  -5194053.46649  -3888534.66447  20946412.0144   20946418.5544
 -12894420.12349 -10032007.99747  20459582.0774   20459584.3314
   8838620.62948   7052779.29647  22457668.3224   22457675.7454
  -6696290.20948  -5118178.31046  22918778.2124   22918783.9654
  13718625.60148  10899832.95646  23122453.3814   23122462.3884
  -2826621.89748  -1818379.32447  21234873.5604   21234876.7924
  -9728769.43549  -7416990.16047  21132625.7344   21132628.1114
 02  8  5  2 10  0.0000000  0  7G 3G31G 2G27G22G 1G13
  -5118119.46449  -3829365.25847  20960862.5444   20960868.7974
 -12909083.16548 -10043433.66347  20456788.6774   20456793.7624
   8921433.93048   7117309.10247  22473431.9414   22473434.2494
  -6740595.73248  -5152701.98446  22910349.5384   22910351.8614
  13839646.97447  10994135.32446  23145485.1014   23145492.6824
  -2726394.09549  -1740279.75447  21253946.9794   21253950.2554
  -9684229.21349  -7382283.49347  21141103.7164   21141103.5914
 02  8  5  2 10 30.0000000  0  7G 3G31G 2G27G22G 1G13
  -5041673.89549  -3769797.29547  20975414.4244   20975415.9284
 -12923205.58148 -10054438.20447  20454100.5244   20454106.5974
   9004288.06548   7181870.78847  22489192.1104   22489200.6824
  -6784866.49648  -5187198.57946  22901918.8424   22901926.3514
  13960676.77447  11088444.20945  23168521.9704   23168523.2464
  -2625706.16849  -1661821.65247  21273107.7394   21273109.9414
  -9639102.31249  -7347119.67647  21149688.7984   21149691.3354
 02  8  5  2 11  0.0000000  0  7G 3G31G 2G27G22G 1G13
  -4964765.52649  -3709868.72847  20990045.1384   20990051.0754
 -12936833.05349 -10065056.95047  20451510.9744   20451513.3444
   9087135.69648   7246427.40147  22504964.2784   22504966.6704
  -6829147.70548  -5221703.40846  22893494.1544   22893501.3864
  14081667.27547  11182722.45445  23191542.5764   23191547.8714
  -2524607.32949  -1583043.35747  21292344.8284   21292348.3744
  -9593435.71349  -7311535.28547  21158375.0944   21158381.0274
 02  8  5  2 11 30.0000000  0  7G 3G31G 2G27G22G 1G13
  -4887280.05349  -3649490.37847  21004788.3874   21004795.8824
 -12949847.84548 -10075198.26847  20449032.4744   20449036.5004
   9170092.50948   7311069.03547  22520745.2724   22520752.7474
  -6873321.83848  -5256124.72146  22885092.0324   22885095.3164
  14202733.57748  11277059.85246  23214577.5034   23214585.8604
  -2422983.50948  -1503855.97347  21311680.9114   21311686.9084
  -9547113.09149  -7275439.68747  21167190.5454   21167195.8924
 02  8  5  2 12  0.0000000  0  7G 3G31G 2G27G22G 1G13
  -4809251.00149  -3588688.49547  21019641.9604   21019644.4884
 -12962280.31748 -10084885.95147  20446664.1424   20446670.7194
   9253126.26248   7375770.71647  22536546.8134   22536553.3504
  -6917418.89848  -5290485.99046  22876696.6864   22876702.1284
  14323843.21848  11371430.98646  23237625.3104   23237633.3494
  -2320868.79648  -1424286.06947  21331111.8444   21331119.1494
  -9500167.05649  -7238858.34747  21176128.3744   21176129.5264
 02  8  5  2 12 30.0000000  0  7G 3G31G 2G27G22G 1G13
  -4730754.14849  -3527522.17547  21034578.1064   21034581.6924
 -12974203.18149 -10094176.45947  20444399.5734   20444401.4674
   9336162.77748   7440474.43147  22552351.3454   22552355.1104
  -6961511.09748  -5324843.51546  22868305.6094   22868311.7284
  14444921.54748  11465777.70146  23260670.8474   23260673.1984
  -2218339.22648  -1344392.89047  21350621.2744   21350629.7724
  -9452671.27249  -7201848.65447  21185167.5784   21185167.3944
 02  8  5  2 13  0.0000000  0  7G 3G31G 2G27G22G 1G13
  -4651721.22249  -3465938.02847  21049613.1744   21049621.3214
 -12985544.95749 -10103014.11347  20442239.8504   20442243.3944
   9419271.69948   7505234.65647  22568160.4324   22568169.9384
  -7005527.04348  -5359141.59046  22859932.7054   22859937.3484
  14566037.64048  11560153.82346  23283715.6204   23283720.9194
  -2115326.96348  -1264123.59147  21370225.5164   21370232.4234
  -9404557.06349  -7164357.06347  21194320.6854   21194323.5614
 02  8  5  2 13 30.0000000  0  7G 3G31G 2G27G22G 1G13
  -4572173.13049  -3403952.43547  21064753.4284   21064758.3684
 -12996323.01548 -10111412.63247  20440185.3554   20440192.8644
   9502433.79948   7570036.29247  22583993.7284   22583995.2674
  -7049483.84348  -5393393.57546  22851567.3214   22851572.8534
  14687171.88348  11654544.13646  23306761.2724   23306770.9864
  -2011853.10548  -1183494.62547  21389918.0504   21389922.6704
  -9355842.93449  -7126397.96947  21203586.7434   21203593.6354
 02  8  5  2 14  0.0000000  0  7G 3G31G 2G27G22G 1G13
  -4492093.95248  -3341553.12847  21079997.5164   21079996.9744
 -13006518.93749 -10119357.48247  20438250.0554   20438252.5774
   9585665.93348   7634892.45247  22599825.0834   22599833.6064
  -7093362.40248  -5427584.61946  22843213.8654   22843221.0224
  14808340.78248  11748961.47646  23329821.9474   23329829.5274
  -1907902.47349  -1102494.14747  21409700.5034   21409704.0624
  -9306511.79849  -7087958.08047  21212975.5524   21212981.1414
 02  8  5  2 14 30.0000000  0  7G 3G31G 2G27G22G 1G13
  -4411525.14949  -3278772.24847  21095321.8654   21095328.6504
 -13016170.84749 -10126878.35747  20436412.3894   20436415.9824
   9668928.41148   7699772.35647  22615672.2744   22615677.9794
  -7137200.42648  -5461744.08546  22834875.2834   22834879.4104
  14929504.25847  11843374.54645  23352884.4184   23352886.2704
  -1803517.02449  -1021154.84947  21429565.4734   21429567.6214
  -9256605.07249  -7049069.70747  21222476.6824   21222477.9964
 02  8  5  2 15  0.0000000  0  7G 3G31G 2G27G22G 1G13
  -4330438.92549  -3215588.11847  21110752.1874   21110759.1044
 -13025247.34348 -10133950.97746  20434680.8464   20434688.2894
   9752250.99748   7764698.97647  22631529.5684   22631533.6004
  -7180966.47948  -5495847.41146  22826548.3344   22826551.7574
  15050691.42347  11937806.03645  23375943.1144   23375947.4934
  -1698668.95949   -939455.08947  21449517.0394   21449519.6044
  -9206091.95749  -7009708.85147  21232089.6714   21232089.9554
 02  8  5  2 15 30.0000000  0  7G 3G31G 2G27G22G 1G13
  -4248876.39048  -3152032.91347  21126278.6444   21126279.2764
 -13033786.94349 -10140605.20747  20433060.6664   20433063.1374
   9835593.64448   7829641.33947  22647384.5794   22647393.2014
  -7224698.51148  -5529924.25346  22818221.0714   22818229.4654
  15171861.91548  12032224.59146  23398994.4024   23399005.7274
  -1593400.11149   -857427.43847  21469547.7974   21469551.3444
  -9155013.09449  -6969907.14347  21241806.6604   21241809.9704
 02  8  5  2 16  0.0000000  0  7G 3G31G 2G27G22G 1G13
  -4166812.98249  -3088087.46147  21141891.2424   21141895.7074
 -13041761.93349 -10146819.38847  20431542.3624   20431545.9774
   9918982.79048   7894619.89047  22663259.9694   22663261.8314
  -7268367.99548  -5563952.39446  22809913.1694   22809919.1604
  15293041.55548  12126650.29946  23422055.5664   23422065.1594
  -1487686.39748   -775053.12647  21489663.0214   21489669.0504
  -9103342.39649  -6929644.22847  21251635.8174   21251642.7474
 02  8  5  2 16 30.0000000  0  7G 3G31G 2G27G22G 1G13
  -4084242.50649  -3023746.79247  21157601.2964   21157608.1234
 -13049162.54248 -10152586.10347  20430129.6024   20430137.6754
  10002426.12148   7959640.63147  22679132.6074   22679140.2034
  -7311965.02648  -5597924.04946  22801620.1854   22801623.3584
  15414237.94147  12221088.98946  23445125.1744   23445128.5344
  -1381521.84648   -692327.50847  21509863.5824   21509871.0584
  -9051072.30149  -6888914.24847  21261584.9264   21261589.7004
 02  8  5  2 17  0.0000000  0  7G 3G31G 2G27G22G 1G13
  -4001184.38949  -2959026.15647  21173410.7304   21173414.2444
 -13056005.47249 -10157918.26447  20428831.9124   20428835.4894
  10085905.78148   8024689.77347  22695020.4044   22695026.1834
  -7355505.61348  -5631851.70746  22793330.7894   22793337.8944
  15535432.64348  12315526.35946  23468186.7754   23468191.0254
  -1274926.36948   -609266.09247  21530146.7304   21530155.1764
  -8998220.83349  -6847731.28747  21271645.7004   21271646.9764
 02  8  5  2 17 30.0000000  0  7G 3G31G 2G27G22G 1G13
  -3917642.51949  -2893928.66847  21189308.5674   21189311.3354
 -13062291.71849 -10162816.54447  20427636.0464   20427639.2804
  10169419.45148   8089765.31246  22710914.9144   22710918.3784
  -7398990.09048  -5665735.68946  22785055.0524   22785061.3024
  15656622.85148  12409960.27346  23491243.5734   23491252.5994
  -1167904.43448   -525872.37847  21550513.0134   21550521.4314
  -8944790.57649  -6806097.33347  21281813.1664   21281814.2014
 02  8  5  2 18  0.0000000  0  7G 3G31G 2G27G22G 1G13
  -3833519.67349  -2828378.38247  21205311.7774   21205319.1144
 -13067920.46148 -10167202.57347  20426560.0734   20426568.6104
  10253066.10148   8154944.54747  22726826.3424   22726835.6924
  -7442317.10048  -5699496.94346  22776814.4744   22776816.9354
  15777907.32648  12504467.66246  23514322.8344   23514332.3704
  -1060359.10148   -442070.82447  21570980.7464   21570986.3504
  -8890683.27249  -6763935.79947  21292105.7384   21292110.2254
 02  8  5  2 18 30.0000000  0  7G 3G31G 2G27G22G 1G13
  -3749001.96049  -2762520.38747  21221397.5684   21221402.8824
 -13073074.90849 -10171219.05347  20425583.5624   20425587.4534
  10336661.56148   8220083.88646  22742741.3074   22742743.6494
  -7485669.26248  -5733277.76846  22768562.4974   22768569.4794
  15899101.06447  12598904.30746  23537390.2934   23537394.2484
   -952476.74148   -358006.65947  21591511.7974   21591515.8594
  -8836083.86348  -6721390.78247  21302493.6434   21302499.9184
 02  8  5  2 19  0.0000000  0  7G 3G31G 2G27G22G 1G13
  -3664073.28248  -2696342.24547  21237562.9074   21237564.0664
 -13077736.16449 -10174851.09347  20424696.5654   20424700.3384
  10420223.31148   8285196.90846  22758637.2464   22758644.7674
  -7529026.81048  -5767062.84446  22760310.5594   22760317.0474
  16020221.51647  12693283.83545  23560441.0364   23560443.3594
   -844241.79549   -273667.77247  21612109.4234   21612111.4324
  -8780975.10449  -6678448.87547  21312983.5864   21312987.2224
 02  8  5  2 19 30.0010000  0  7G 3G31G 2G27G22G 1G13
  -3578595.69549  -2629736.34747  21253823.2494   21253829.9064
 -13081765.72948 -10177990.99947  20423925.3354   20423933.7794
  10503891.21448   8350392.73746  22774558.4474   22774565.9424
  -7572252.10648  -5800744.83946  22752087.8064   22752090.2504
  16141409.30347  12787715.85345  23583497.2624   23583503.8054
   -735515.82749   -188946.26947  21632799.2644   21632801.4624
  -8725217.89649  -6635001.70547  21323596.5154   21323597.4554
 02  8  5  2 20  0.0010000  0  7G 3G31G 2G27G22G 1G13
  -3492622.96649  -2562744.54747  21270183.2424   21270189.9384
 -13085208.59549 -10180673.77947  20423274.1634   20423278.3174
  10587613.47848   8415630.82546  22790495.8544   22790497.8564
  -7615386.65748  -5834356.09846  22743878.6294   22743884.0254
  16262609.46847  12882157.53746  23606557.3244   23606567.8694
   -626354.78048   -103885.73747  21653571.3944   21653574.6874
  -8668863.37449  -6591089.11247  21334319.2204   21334321.1144
 02  8  5  2 20 30.0010000  0  7G 3G31G 2G27G22G 1G13
  -3406139.83248  -2495355.08847  21286646.6404   21286647.5824
 -13088049.66849 -10182887.50647  20422733.7684   20422737.4014
  10671406.82248   8480924.34047  22806433.6174   22806443.0904
  -7658415.72548  -5867885.20246  22735689.0264   22735695.8704
  16383839.69347  12976622.64246  23629628.8494   23629637.3614
   -516743.01348    -18473.98547  21674428.5314   21674432.8474
  -8611896.12949  -6546699.04447  21345156.5624   21345161.5074
 02  8  5  2 21  0.0010000  0  7G 3G31G 2G27G22G 1G13
  -3319196.67349  -2427607.21547  21303187.4654   21303192.1094
 -13090336.05148 -10184669.09247  20422294.7424   20422302.6174
  10755222.79348   8546235.51646  22822389.8584   22822393.2974
  -7701385.89148  -5901368.40646  22727512.2174   22727516.8824
  16505050.89247  13071072.90245  23652700.3134   23652703.4454
   -406731.46848     67249.27447  21695361.3074   21695367.0494
  -8554365.31248  -6501869.81447  21356103.6874   21356109.2054
 02  8  5  2 21 30.0010000  0  7G 3G31G 2G27G22G 1G13
  -3231778.57449  -2359489.15447  21319819.2144   21319826.9574
 -13092049.81949 -10186004.52047  20421972.5594   20421976.0714
  10839078.26648   8611577.38546  22838344.2024   22838350.0644
  -7744278.27448  -5934790.97446  22719351.3464   22719355.2654
  16626259.66247  13165521.24945  23675764.2294   23675769.1174
   -296305.40948    153295.54346  21716372.5724   21716380.8664
  -8496254.86149  -6456588.92947  21367164.4794   21367167.3194
 02  8  5  2 22  0.0010000  0  7G 3G31G 2G27G22G 1G13
  -3143902.63149  -2291014.35847  21336545.1044   21336549.3954
 -13093205.19649 -10186904.72147  20421753.1104   20421756.2524
  10922957.88148   8676938.18447  22854303.1224   22854312.0114
  -7787105.95948  -5968163.13246  22711200.7964   22711207.5024
  16747450.31247  13259955.46845  23698821.2904   23698829.7984
   -185482.25948    239651.24646  21737460.8644   21737470.2404
  -8437580.57949  -6410868.71547  21378331.7014   21378333.0994
 02  8  5  2 22 30.0010000  0  7G 3G31G 2G27G22G 1G13
  -3055572.02748  -2222185.37147  21353356.2574   21353357.8924
 -13093802.19048 -10187369.91346  20421634.3954   20421642.3314
  11006860.32448   8742316.69946  22870276.9944   22870278.3104
  -7829868.34448  -6001484.45146  22703061.7444   22703068.5904
  16868620.90247  13354374.09645  23721877.6984   23721888.4394
    -74265.91948    326313.32846  21758625.9084   21758633.8774
  -8378344.60149  -6364710.82047  21389602.7014   21389604.9284
 02  8  5  2 23  0.0010000  0  7G 3G31G 2G27G22G 1G13
  -2966837.33649  -2153041.45747  21370236.2934   21370243.7534
 -13093888.64449 -10187437.30447  20421622.8744   20421625.5764
  11090736.67048   8807674.87447  22886230.4494   22886239.3024
  -7872612.22848  -6034791.32046  22694930.6424   22694932.9194
  16989722.36847  13448738.87645  23744927.0394   23744932.5284
     37292.68048    413242.08046  21779856.1094   21779861.6884
  -8318596.31049  -6318153.70647  21400969.6734   21400974.4554
 02  8  5  2 23 30.0010000  0  7G 3G31G 2G27G22G 1G13
  -2877664.77749  -2083556.30747  21387206.6924   21387212.6174
 -13093427.51849 -10187077.88647  20421710.8434   20421713.5744
  11174622.96848   8873040.87247  22902195.4504   22902201.8394
  -7915299.54848  -6068054.07146  22686806.6824   22686812.0894
  17110790.23647  13543077.40645  23767970.1034   23767972.2994
    149227.23348    500463.79946  21801158.3694   21801162.7804
  -8258300.75948  -6271170.13947  21412443.4104   21412448.5514
 02  8  5  2 24  0.0010000  0  7G 3G31G 2G27G22G 1G13
  -2788009.93548  -2013695.42047  21404272.7614   21404273.4984
 -13092371.41148 -10186254.97146  20421907.6974   20421914.1594
  11258565.46748   8938450.57246  22918172.8704   22918175.5314
  -7957881.90348  -6101235.10546  22678699.9264   22678708.9464
  17231870.36247  13637425.47445  23791009.1934   23791011.6504
    261581.37648    588012.45247  21822540.8014   21822543.2834
  -8197412.44249  -6223724.69447  21424032.5954   21424034.8634
 02  8  5  2 24 30.0010000  0  7G 3G31G 2G27G22G 1G13
  -2697922.29549  -1943497.29947  21421410.9934   21421416.6314
 -13090767.29649 -10185005.02747  20422217.3614   20422219.1384
  11342516.18348   9003866.72647  22934141.5374   22934151.2484
  -8000405.20548  -6134370.13246  22670612.8234   22670615.9354
  17352914.46747  13731745.50545  23814037.9484   23814046.9044
    374305.18648    675849.16047  21843991.3014   21843993.5794
  -8135979.54449  -6175854.91147  21435724.3304   21435725.6314
 02  8  5  2 25  0.0010000  0  7G 3G31G 2G27G22G 1G13
  -2607414.20649  -1872971.48247  21438632.5904   21438639.9394
 -13088624.28348 -10183335.05247  20422624.5164   20422626.7754
  11426464.96848   9069281.40346  22950121.8634   22950125.7604
  -8042877.38948  -6167465.25346  22662530.9004   22662534.0374
  17473911.92247  13826029.22345  23837060.8204   23837071.7704
    487386.05848    763964.09147  21865510.2174   21865511.7794
  -8074013.38949  -6127569.60547  21447514.7934   21447517.2014
 02  8  5  2 25 30.0010000  0  7G 3G31G 2G27G22G 1G13
  -2516421.35048  -1802067.96147  21455952.8024   21455955.1104
 -13085875.05148 -10181192.83646  20423144.4624   20423150.1914
  11510478.33548   9134746.29646  22966107.9024   22966113.4124
  -8085230.44248  -6200467.60146  22654467.0454   22654475.3124
  17594928.71747  13920328.01345  23860093.0184   23860100.0224
    600887.74048    852406.93447  21887108.7744   21887110.7004
  -8011448.75149  -6078817.92447  21459418.1124   21459422.9644
 02  8  5  2 26  0.0010000  0  8G 3G31G 8G 2G27G22G 1G13
  -2424984.23248  -1730818.31347  21473351.6284   21473355.1074
 -13082557.49749 -10178607.72047  20423779.7484   20423781.1304
   -291814.83457   -217181.39645  24780661.7404   24780663.2204
  11594517.74748   9200231.58546  22982095.3534   22982105.9264
  -8127500.48148  -6233405.28346  22646425.1504   22646430.1214
  17715925.85747  14014611.41145  23883122.9564   23883126.0424
    714769.35748    941145.82647  21908778.1354   21908781.8844
  -7948324.96149  -6029630.54347  21471430.4724   21471434.6244
 02  8  5  2 26 30.0010000  0  8G 3G31G 8G 2G27G22G 1G13
  -2333115.24849  -1659232.06047  21490828.7734   21490837.2684
 -13078680.81048 -10175586.84147  20424516.6084   20424519.5394
   -351631.07246   -263791.40245  24769270.0864   24769280.4444
  11678572.96948   9265729.15746  22998099.7784   22998100.6774
  -8169695.70848  -6266284.59046  22638398.2954   22638400.6034
  17836892.78047  14108871.24845  23906140.3184   23906145.6454
    829018.31348   1030170.97846  21930516.6834   21930522.8334
  -7884653.26549  -5980016.23047  21483548.2354   21483551.5534
 02  8  5  2 27  0.0010000  0  8G 3G31G 8G 2G27G22G 1G13
  -2240800.57249  -1587298.49447  21508398.2544   21508404.2974
 -13074228.24848 -10172117.38046  20425361.3704   20425366.5634
   -411504.89447   -310446.31145  24757879.2504   24757886.9834
  11762659.76348   9331251.27346  23014093.8394   23014101.5674
  -8211798.47548  -6299091.87246  22630383.9734   22630391.1274
  17957844.72647  14203119.46445  23929152.0294   23929161.8304
    943647.88548   1119492.70746  21952327.9164   21952335.7424
  -7820418.76749  -5929963.38047  21495773.3434   21495774.9174
 02  8  5  2 27 30.0010000  0  8G 3G31G 8G 2G27G22G 1G13
  -2148072.27248  -1515042.71647  21526048.8584   21526049.5974
 -13069229.44249 -10168222.15647  20426315.7784   20426317.3884
   -471465.08247   -357168.44645  24746473.4094   24746477.2594
  11846747.82148   9396774.47046  23030094.1094   23030102.5884
  -8253836.71048  -6331848.92246  22622382.5184   22622390.7184
  18078751.17847  14297332.25845  23952157.9364   23952168.7824
   1058625.43648   1209085.58746  21974207.4154   21974215.0524
  -7755652.84549  -5879496.43647  21508096.7774   21508099.3524
 02  8  5  2 28  0.0010000  0  8G 3G31G 8G 2G27G22G 1G13
  -2054878.03849  -1442423.84947  21543775.8894   21543783.7534
 -13063628.78148 -10163857.91647  20427379.3554   20427383.2884
   -531455.59847   -403914.19545  24735054.3824   24735062.3994
  11930892.00548   9462341.32546  23046114.2474   23046115.4584
  -8295753.76048  -6364511.52546  22614408.6154   22614412.1564
  18199666.38447  14391551.85445  23975171.0654   23975179.0094
   1174003.06948   1298990.23046  21996162.3984   21996171.4654
  -7690301.72849  -5828573.48247  21520530.3704   21520534.7074
 02  8  5  2 28 30.0010000  0  8G 3G31G 8G 2G27G22G 1G13
  -1961254.15849  -1369470.10347  21561592.0624   21561599.9164
 -13057459.58448 -10159050.84647  20428553.9074   20428557.8654
   -591509.02847   -450709.03245  24723622.7984   24723633.6194
  12015057.78648   9527925.02546  23062122.6154   23062130.9174
  -8337581.72048  -6397104.64746  22606450.4554   22606453.0304
  18320555.73547  14485751.29245  23998179.6434   23998183.4494
   1289744.03448   1389177.99246  22018188.5814   22018196.1794
  -7624401.02448  -5777222.27147  21533070.0034   21533074.9434
 02  8  5  2 29  0.0010000  0  8G 3G31G 8G 2G27G22G 1G13
  -1867178.72048  -1296164.56447  21579500.2534   21579502.0174
 -13050697.76049 -10153781.80247  20429842.2454   20429844.1774
   -651600.45847   -497533.43845  24712192.9574   24712197.8434
  12099269.10248   9593544.27246  23078149.7574   23078156.2734
  -8379294.72448  -6429608.22446  22598508.1394   22598516.6344
  18441442.52547  14579948.72445  24021183.5084   24021186.2694
   1405869.71948   1479665.51846  22040288.9894   22040294.1974
  -7557927.41949  -5725424.64247  21545722.0894   21545725.0924
 02  8  5  2 29 30.0010000  0  8G 3G31G 8G 2G27G22G 1G13
  -1772724.48949  -1222563.91747  21597471.1974   21597475.9744
 -13043412.88548 -10148105.21346  20431224.0684   20431230.7774
   -711798.88147   -544441.17045  24700738.6474   24700743.1594
  12183455.65048   9659144.11946  23094174.7404   23094176.6384
  -8420961.31248  -6462075.69246  22590580.6814   22590586.1954
  18562256.01947  14674089.04645  24044170.3584   24044176.6804
   1522306.97348   1570395.80846  22062447.0494   22062451.0454
  -7490953.03649  -5673236.81247  21558469.5414   21558470.1964
 02  8  5  2 30  0.0010000  0  8G 3G31G 8G 2G27G22G 1G13
  -1677844.75149  -1148631.61347  21615523.4124   21615531.1634
 -13035555.09848 -10141982.35547  20432722.5914   20432726.1304
   -772054.00347   -591393.12045  24689265.8744   24689276.0284
  12267666.31948   9724762.81146  23110191.8834   23110201.1924
  -8462530.20848  -6494466.93946  22582674.0484   22582675.8254
  18683044.60847  14768209.98345  24067149.9884   24067162.6734
   1639102.23648   1661405.08646  22084673.0464   22084677.0854
  -7423430.20149  -5620621.62747  21571317.6844   21571319.1584
 02  8  5  2 30 30.0010000  0  8G 3G31G 8G 2G27G22G 1G13
  -1582544.28449  -1074371.49047  21633662.8714   21633666.2224
 -13027127.19949 -10135415.03347  20434326.8844   20434329.7394
   -832367.34647   -638390.49645  24677790.8914   24677799.2464
  12351898.28848   9790398.12946  23126225.4244   23126230.3674
  -8504002.42948  -6526782.86846  22574779.7004   22574785.5004
  18803804.97047  14862308.91545  24090132.8524   24090142.8994
   1756249.88548   1752688.94647  22106967.1414   22106969.8534
  -7355362.55149  -5567581.89747  21584267.1334   21584272.2554
 02  8  5  2 31  0.0010000  0  8G 3G31G 8G 2G27G22G 1G13
  -1486781.14149   -999750.90747  21651887.2314   21651889.0774
 -13018083.93848 -10128368.30746  20436042.5174   20436050.8904
   -892693.29847   -685397.64045  24666315.5724   24666319.4014
  12436195.82948   9856084.46546  23142268.1854   23142271.5724
  -8545331.39248  -6558987.23946  22566911.1274   22566919.3244
  18924581.19947  14956420.19345  24113120.7854   24113126.2744
   1873791.81248   1844280.01747  22129334.8454   22129336.8584
  -7286707.38749  -5514084.34647  21597330.2444   21597336.5414
 02  8  5  2 31 30.0010000  0  8G 3G31G 8G 2G27G22G 1G13
  -1390636.15349   -924832.72547  21670177.6934   21670184.4424
 -13008503.36149 -10120902.97747  20437870.6214   20437874.4104
   -953108.70547   -732474.48045  24654817.0194   24654822.5004
  12520480.22848   9921760.62446  23158300.4354   23158310.2244
  -8586593.78848  -6591139.73646  22559063.7184   22559066.4594
  19045294.09247  15050482.12545  24136093.3054   24136096.0964
   1991646.70548   1936114.96846  22151761.1614   22151763.7374
  -7217544.46649  -5460191.14947  21610494.5844   21610497.8614
 02  8  5  2 32  0.0010000  0  8G 3G31G 8G 2G27G22G 1G13
  -1294034.50949   -849558.67847  21688562.0654   21688567.3884
 -12998308.27049 -10112958.62747  20439810.4184   20439814.5624
  -1013535.62347   -779560.33445  24643313.3604   24643322.8294
  12604828.41648   9987486.51546  23174356.5334   23174360.9884
  -8627710.54448  -6623178.66447  22551241.4284   22551243.7034
  19166020.35647  15144554.48045  24159065.3504   24159069.8174
   2109888.84248   2028251.66946  22174261.2484   22174264.9674
  -7147798.38149  -5405843.56947  21623769.9724   21623769.9084
 02  8  5  2 32 30.0010000  0  8G 3G31G 8G 2G27G22G 1G13
  -1197027.02848   -773968.46747  21707027.0054   21707027.5504
 -12987546.51648 -10104572.88046  20441853.4864   20441862.1984
  -1074021.05947   -826691.80345  24631808.1604   24631811.4434
  12689191.73148  10053224.09246  23190411.8294   23190415.0044
  -8668728.40748  -6655140.58346  22543432.0224   22543438.3874
  19286710.70247  15238598.86745  24182027.8964   24182035.7124
   2228466.96348   2120650.16746  22196826.4334   22196829.5194
  -7077518.92649  -5351080.37947  21637142.5584   21637143.8444
 02  8  5  2 33  0.0010000  0  8G 3G31G 8G 2G27G22G 1G13
  -1099582.34348   -698037.58047  21725564.2174   21725570.1404
 -12976184.29049 -10095719.16447  20444021.0174   20444024.0574
  -1134530.03547   -873841.50545  24620296.8764   24620300.4114
  12773603.76848  10118999.70546  23206467.9414   23206478.0484
  -8709611.34248  -6686997.40646  22535650.1104   22535656.8444
  19407398.49547  15332641.24245  24204993.2884   24205002.9234
   2347412.13848   2213334.69746  22219459.2034   22219464.4994
  -7006673.78249  -5295876.36747  21650620.4664   21650625.2454
 02  8  5  2 33 30.0010000  0  8G 3G31G 8G 2G27G22G 1G13
  -1001676.82449   -621747.51747  21744193.7124   21744200.9374
 -12964195.14748 -10086376.86447  20446300.9844   20446305.8014
  -1195035.18747   -920988.29345  24608776.1594   24608785.2454
  12858090.58848  10184833.59746  23222551.4224   23222555.3964
  -8750331.37948  -6718727.24947  22527906.9574   22527908.6224
  19528109.28347  15426701.55546  24227964.5284   24227973.1114
   2466747.52748   2306323.29346  22242165.8594   22242172.1264
  -6935238.61249  -5240212.57947  21664212.9534   21664218.8474
 02  8  5  2 34  0.0010000  0  8G 3G31G 8G 2G27G22G 1G13
   -903377.35748   -545150.52447  21762904.6954   21762906.9764
 -12951642.94048 -10076596.01547  20448687.7644   20448694.5134
  -1255599.49247   -968181.26345  24597252.9484   24597260.9284
  12942587.59548  10250675.35546  23238630.8814   23238634.1744
  -8790951.16248  -6750378.94147  22520176.6514   22520180.5714
  19648778.10047  15520729.16446  24250929.6804   24250935.9364
   2586405.82348   2399563.51246  22264935.9014   22264942.8944
  -6863279.45049  -5184140.49147  21677908.6094   21677912.1584
 02  8  5  2 34 30.0010000  0  9G 3G31G11G 8G 2G27G22G 1G13
   -804674.49748   -468239.26647  21781686.1924   21781689.5824
 -12938516.01349 -10066367.14247  20451189.1784   20451192.4334
    -13747.66354     -2949.11743
  -1316209.95047  -1015410.10245  24585722.9884   24585725.9434
  13027106.41648  10316534.19346  23254707.5684   23254718.0524
  -8831456.52348  -6781941.52646  22512463.9484   22512471.4534
  19769416.50847  15614733.07045  24273888.7764   24273892.5954
   2706396.01848   2493062.33346  22287768.3444   22287775.6144
  -6790785.49349  -5127651.70447  21691705.9544   21691707.2304
 02  8  5  2 35  0.0010000  0  9G 3G31G11G 8G 2G27G22G 1G13
   -705549.90449   -390999.29247  21800544.2434   21800552.5624
 -12924793.07748 -10055673.87446  20453797.2274   20453803.3534
    -64833.11844    -42746.90943
  -1376844.22447  -1062657.48445  24574182.0224   24574187.2054
  13111667.91548  10382426.27146  23270806.1304   23270808.8054
  -8871824.87248  -6813397.39246  22504783.4304   22504789.3814
  19890044.49547  15708728.84645  24296843.7294   24296847.3594
   2826736.13148   2586833.83146  22310666.9414   22310676.8604
  -6717737.63449  -5070731.30947  21705606.8414   21705607.9584
 02  8  5  2 35 30.0010000  0  9G 3G31G11G 8G 2G27G22G 1G13
   -605998.28749   -313426.57247  21819491.4094   21819496.6874
 -12910466.40248 -10044510.31047  20456525.1234   20456529.6834
   -116027.41844    -82600.07143
  -1437493.58347  -1109916.63645  24562636.1374   24562646.3324
  13196279.41648  10448357.23846  23286906.8904   23286910.5544
  -8912046.70848  -6844739.03047  22497133.8474   22497135.7694
  20010669.14047  15802722.01846  24319795.6134   24319801.7494
   2947430.86048   2680881.65746  22333635.1524   22333643.6894
  -6644130.06049  -5013374.76547  21719612.6494   21719614.6764
 02  8  5  2 36  0.0010000  0  9G 3G31G11G 8G 2G27G22G 1G13
   -506016.37449   -235518.63747  21838521.7324   21838522.7054
 -12895530.49449 -10032871.81347  20459368.4944   20459372.3654
   -167322.94144      -280.67943
  -1498151.16847  -1157182.22045  24551096.5204   24551104.4524
  13280946.46248  10514331.56346  23303012.1634   23303022.7094
  -8952114.49048  -6875960.59547  22489508.3894   22489510.9714
  20131295.64647  15896716.64645  24342746.0954   24342755.3664
   3068483.07848   2775208.04546  22356671.8984   22356678.6694
  -6569959.30549  -4955579.37447  21733724.4224   21733728.9694
 02  8  5  2 36 30.0010000  0  9G 3G31G11G 8G 2G27G22G 1G13
   -405641.04249   -157304.11047  21857616.3604   21857623.8784
 -12880018.89748 -10020784.86646  20462315.8704   20462324.2344
   -218751.47944    -40354.86144
  -1558849.59547  -1204479.57645  24539549.2954   24539554.4584
  13365635.08048  10580322.69946  23319134.1694   23319137.4574
  -8992060.05148  -6907086.98646  22481901.0984   22481909.1714
  20251889.41947  15990685.77045  24365693.2774   24365704.1164
   3189855.62948   2869784.03846  22379768.5444   22379775.2794
  -6495261.32649  -4897373.14747  21747937.8204   21747943.3764
 02  8  5  2 37  0.0010000  0  9G 3G31G11G 8G 2G27G22G 1G13
   -304879.40549    -78788.50947  21876791.3754   21876797.8574
 -12863936.77749 -10008253.35947  20465380.8574   20465384.2804
   -270315.52046    -80534.87644  25145318.0204   25145330.8754
  -1619592.47647  -1251811.56945  24527987.0884   24527993.2164
  13450340.05948  10646326.52046  23335253.9244   23335257.2294
  -9031886.55948  -6938120.63846  22474325.7544   22474331.0574
  20372445.02747  16084625.12845  24388637.0234   24388645.6354
   3311540.74448   2964603.58746  22402925.9124   22402931.7664
  -6420041.61949  -4838760.37847  21762254.6914   21762257.4884
 02  8  5  2 37 30.0010000  0  9G 3G31G11G 8G 2G27G22G 1G13
   -203701.37749        51.49747  21896050.2184   21896051.3644
 -12847251.53648  -9995251.75247  20468555.0844   20468559.0154
   -321979.99246   -120793.16945  25135495.1994   25135497.5584
  -1680346.05447  -1299151.95945  24516423.1524   24516432.6854
  13535093.81348  10712368.43046  23351375.4494   23351384.1734
  -9071559.26148  -6969034.36247  22466779.3054   22466781.3814
  20492994.40047  16178559.62745  24411579.4074   24411585.4954
   3433567.88548   3059689.65646  22426148.7084   22426153.1714
  -6344270.02449  -4779717.58747  21776676.7664   21776676.2164
 02  8  5  2 38  0.0010000  0  9G 3G31G11G 8G 2G27G22G 1G13
   -102088.04149     79230.67347  21915383.0054   21915387.4884
 -12829941.24248  -9981763.29347  20471847.0914   20471853.1814
   -373721.26947   -161111.13045  25125649.2834   25125652.4534
  -1741087.07847  -1346482.54145  24504867.8104   24504875.5134
  13619917.87348  10778465.12246  23367521.8094   23367526.8764
  -9111054.81848  -6999810.06746  22459259.9994   22459265.3314
  20613558.74947  16272505.80945  24434523.4074   24434527.4484
   3555955.84348   3155056.85546  22449438.9404   22449442.3894
  -6267926.60349  -4720229.23447  21791203.5444   21791203.7094
 02  8  5  2 38 30.0010000  0  9G 3G31G11G 8G 2G27G22G 1G13
       -55.28049    158736.75247  21934796.0664   21934803.8184
 -12812019.55449  -9967798.26147  20475260.3574   20475263.2834
   -425550.10746   -201497.41244  25115779.8274   25115792.5464
  -1801827.59147  -1393812.71745  24493311.5334   24493314.5934
  13704798.97448  10844606.18346  23383676.3544   23383678.0864
  -9150384.23048  -7030456.34446  22451773.8914   22451781.0854
  20734124.25147  16366452.91845  24457466.6524   24457469.8844
   3678688.48048   3250692.64546  22472794.8674   22472797.6364
  -6191026.83849  -4660307.34147  21805832.7734   21805837.9794
 02  8  5  2 39  0.0010000  0  9G 3G31G11G 8G 2G27G22G 1G13
    102394.94848    238568.11747  21954295.8754   21954299.3164
 -12793485.92148  -9953356.40647  20478784.5304   20478790.7134
   -477463.66246   -241949.72945  25105906.4984   25105912.9344
  -1862565.83047  -1441141.14345  24481747.3294   24481758.0834
  13789737.24448  10910791.85446  23399833.1824   23399841.2144
  -9189545.16548  -7060971.34946  22444324.6464   22444329.4924
  20854690.85047  16460400.87145  24480407.2904   24480413.2344
   3801763.24248   3346595.02346  22496214.4494   22496217.7694
  -6113571.99449  -4599952.90347  21820569.8904   21820577.1444
 02  8  5  2 39 30.0010000  0  9G 3G31G11G 8G 2G27G22G 1G13
    205182.31848    318662.12147  21973857.3494   21973858.5724
 -12774417.97149  -9938498.35147  20482414.8944   20482418.8564
   -529537.63447   -282526.91545  25096000.4024   25096003.6494
  -1923378.14547  -1488527.28545  24470177.9364   24470185.3094
  13874655.04648  10976961.59746  23415994.9534   23416001.8484
  -9228613.49048  -7091414.12847  22436892.1644   22436894.6954
  20975180.33247  16554288.75945  24503334.5384   24503342.0374
   3925099.46748   3442701.14246  22519686.0324   22519688.9134
  -6035640.85949  -4539227.32847  21835403.0624   21835407.1594
 02  8  5  2 40  0.0010000  0  9G 3G31G11G 8G 2G27G22G 1G13
    308340.69748    399045.27047  21993481.6854   21993488.4934
 -12754779.87149  -9923195.82547  20486152.6294   20486155.3394
   -581733.46246   -323199.07844  25086059.1714   25086067.2364
  -1984226.86947  -1535941.77445  24458603.2424   24458606.7884
  13959588.54148  11043143.49546  23432162.1294   23432163.7324
  -9267550.76048  -7121754.79246  22429480.7064   22429484.7884
  21095628.37847  16648144.37445  24526253.4384   24526262.8194
   4048730.27048   3539036.78946  22543212.6324   22543214.7524
  -5957200.62849  -4478105.08547  21850333.5194   21850333.5404
 02  8  5  2 40 30.0020000  0  8G 3G31G 8G 2G27G22G 1G13
    411882.71648    479727.40447  22013186.2414   22013192.4894
 -12734558.95748  -9907439.30646  20489997.3214   20490003.4794
  -2045100.98047  -1583376.01745  24447015.9744   24447021.3554
  14044552.00848  11109348.77746  23448323.8294   23448331.2144
  -9306344.46548  -7151983.65846  22422093.6214   22422103.3504
  21216050.37247  16741979.68145  24549167.9744   24549178.5144
   4172668.69348   3635612.15646  22566796.6124   22566798.8614
  -5878237.36049  -4416575.30047  21865359.6344   21865359.6414
 02  8  5  2 41  0.0020000  0  9G 3G31G11G 8G 2G27G22G 1G13
    515816.16548    560714.48546  22032970.0064   22032970.5964
 -12713739.81249  -9891216.57947  20493962.3854   20493964.8874
    -52699.07254    -35677.91743
  -2105977.82847  -1630812.43445  24435427.0534   24435437.1284
  14129557.20348  11175586.60846  23464499.2854   23464508.0634
  -9344973.07848  -7182083.86947  22414749.5964   22414752.2454
  21336454.95247  16835801.40145  24572084.0764   24572091.2194
   4296920.74348   3732431.91046  22590439.5564   22590442.7074
  -5798741.10349  -4354630.17847  21880483.6164   21880487.5574
 02  8  5  2 41 30.0020000  0  9G 3G31G11G 8G 2G27G22G 1G13
    620164.42948    642024.78047  22052822.0594   22052827.3144
 -12692299.23148  -9874509.53547  20498041.2284   20498045.1304
   -105153.53846    -76551.58144  25056154.9534   25056164.5794
  -2166835.22047  -1678233.70845  24423851.7384   24423856.8274
  14214629.38548  11241876.59446  23480694.6494   23480695.9574
  -9383412.96348  -7212036.93547  22407435.3944   22407436.8054
  21456868.31047  16929629.97145  24594999.6634   24595005.1084
   4421509.97348   3829514.40246  22614148.5814   22614151.8114
  -5718688.68149  -4292251.65947  21895714.2824   21895721.0154
 02  8  5  2 42  0.0020000  0  8G 3G31G 8G 2G27G22G 1G13
    724894.48249    723632.64647  22072749.3564   22072756.6514
 -12670267.47848  -9857342.04047  20502233.4584   20502237.4164
  -2227702.12947  -1725662.34445  24412270.4734   24412273.6614
  14299738.21948  11308195.10746  23496885.7964   23496891.9444
  -9421692.36348  -7241864.98347  22400147.1734   22400153.3794
  21577259.59147  17023441.33245  24617912.2364   24617914.8404
   4546403.13548   3926833.71546  22637914.8384   22637918.5854
  -5638113.73949  -4229465.98447  21911048.2474   21911053.9204
 02  8  5  2 42 30.0020000  0  9G 3G31G11G 8G 2G27G22G 1G13
    829990.48248    805525.64147  22092752.9224   22092756.3044
 -12647658.86049  -9839724.83547  20506536.7484   20506539.8104
    -49072.40454    -27652.96743
  -2288590.84447  -1773107.95245  24400678.5334   24400687.7784
  14384869.85548  11374531.46446  23513082.4714   23513091.7344
  -9459823.17148  -7271577.30046  22392889.2924   22392896.3974
  21697614.76947  17117224.55445  24640813.8244   24640817.7704
   4671583.52548   4024376.84046  22661734.7284   22661739.9564
  -5557030.88949  -4166284.54847  21926480.7284   21926483.4044
 02  8  5  2 43  0.0020000  0  9G 3G31G11G 8G 2G27G22G 1G13
    935433.92848    887689.31247  22112819.4554   22112821.5794
 -12624489.15848  -9821670.52146  20510942.5054   20510948.8024
   -101835.69744    -68767.33044
  -2349515.81347  -1820581.89745  24389083.6744   24389093.1434
  14470008.45548  11440873.22146  23529290.5064   23529293.2004
  -9497818.82348  -7301184.27947  22385662.5264   22385666.2364
  21817917.45547  17210966.86345  24663703.3224   24663710.1764
   4797032.26548   4122129.07846  22685605.8334   22685611.1204
  -5475457.80849  -4102721.12847  21942005.8754   21942006.2524
 02  8  5  2 43 30.0020000  0  9G 3G31G11G 8G 2G27G22G 1G13
   1041242.57849    970137.61547  22132948.8674   22132956.2204
 -12600738.07749  -9803163.22047  20515465.8234   20515467.7544
   -154691.43446   -109953.41644  25016041.7114   25016050.6624
  -2410454.66547  -1868066.61045  24377493.8664   24377496.1314
  14555174.75348  11507236.50746  23545496.0504   23545499.8234
  -9535656.86048  -7330668.39847  22378463.9574   22378465.9964
  21938187.91047  17304684.04645  24686588.2214   24686596.1854
   4922767.25448   4220104.37046  22709532.0844   22709538.2384
  -5393375.66949  -4038761.05047  21957625.0374   21957626.0914
 02  8  5  2 44  0.0020000  0  9G 3G31G11G 8G 2G27G22G 1G13
   1147443.85149   1052891.87947  22153160.0594   22153165.3934
 -12576376.11648  -9784179.76547  20520100.8034   20520103.8874
   -207607.70047   -151186.69045  25005976.0244   25005980.5824
  -2471376.16647  -1915537.76345  24365899.8424   24365904.5124
  14640398.47248  11573644.59646  23561707.6184   23561717.6184
  -9573305.12748  -7360004.64246  22371296.3394   22371301.3904
  22058455.60547  17398399.10145  24709471.4734   24709482.9584
   5048815.34348   4318323.62946  22733517.0694   22733523.8384
  -5310757.19749  -3974383.03447  21973343.3584   21973347.5434
 02  8  5  2 44 30.0020000  0  9G 3G31G11G 8G 2G27G22G 1G13
   1254092.32148   1135994.55347  22173459.1284   22173460.2074
 -12551346.44348  -9764676.23047  20524863.4364   20524867.0414
   -260524.87246   -192420.67045  24995900.9434   24995911.3274
  -2532221.87847  -1962949.91545  24354314.5154   24354326.2514
  14725736.29548  11640141.62046  23577951.7924   23577956.5674
  -9610704.60948  -7389147.11146  22364175.4844   22364184.7594
  22178776.89047  17492155.91245  24732369.0974   24732379.3984
   5175230.38548   4416828.83846  22757573.7484   22757580.3064
  -5227547.10649  -3909544.00247  21989175.6744   21989181.7104
 02  8  5  2 45  0.0020000  0  9G 3G31G11G 8G 2G27G22G 1G13
   1361126.69049   1219397.93647  22193822.4234   22193828.2504
 -12525708.33349  -9744698.38647  20529743.1154   20529745.6144
   -313499.40746   -233699.44444  24985820.8254   24985829.8434
  -2593049.12847  -2010347.73445  24342741.6444   24342749.6304
  14811129.78348  11706681.94646  23594205.1204   23594206.7324
  -9647912.00248  -7418139.86947  22357101.5204   22357104.5954
  22299092.77247  17585908.54645  24755266.8394   24755274.6214
   5301950.45848   4515571.74546  22781684.7394   22781695.4374
  -5143806.51549  -3844291.59147  22005112.1674   22005117.3734
 02  8  5  2 45 30.0020000  0  9G 3G31G11G 8G 2G27G22G 1G13
   1468480.05849   1303049.94947  22214249.5714   22214257.0644
 -12499526.01748  -9724296.56146  20534723.2434   20534728.2614
   -366593.21046   -275070.99045  24975721.5674   24975721.4234
  -2653920.38547  -2057779.77045  24331164.4354   24331166.8234
  14896514.73548  11773215.64746  23610446.3814   23610455.0094
  -9684989.26548  -7447031.16647  22350045.8594   22350048.7684
  22419338.82447  17679606.73745  24778151.0244   24778156.6704
   5428908.57548   4614500.12946  22805844.1084   22805853.8724
  -5059602.30549  -3778677.93047  22021138.8274   22021141.0784
 02  8  5  2 46  0.0020000  0  9G 3G31G11G 8G 2G27G22G 1G13
   1576145.95748   1386945.46647  22234742.5074   22234745.0174
 -12472804.00349  -9703474.26147  20539810.6134   20539812.5284
   -419807.61046   -316536.42844  24965591.0464   24965596.6664
  -2714838.19947  -2105248.07345  24319569.3084   24319573.8844
  14981887.15148  11839739.62246  23626692.8094   23626701.3124
  -9721938.39148  -7475822.64547  22343013.1774   22343017.8734
  22539510.57647  17773247.03245  24801022.2214   24801024.9524
   5556097.74748   4713608.55146  22830048.8534   22830056.8344
  -4974939.77549  -3712707.14947  22037250.4174   22037251.3604
 02  8  5  2 46 30.0020000  0  9G 3G31G11G 8G 2G27G22G 1G13
   1684202.07348   1471144.99347  22255304.8354   22255307.3294
 -12445462.50548  -9682169.07947  20545012.4774   20545015.7204
   -473059.69846   -358031.38044  24955452.8154   24955463.8434
  -2775720.54747  -2152688.79445  24307977.8284   24307987.8794
  15067327.60448  11906316.56746  23642957.7464   23642959.4944
  -9758676.66648  -7504449.85846  22336018.0174   22336026.6774
  22659687.95447  17866891.68945  24823892.1104   24823893.4404
   5683595.17748   4812957.16246  22854309.7704   22854318.5234
  -4889739.51949  -3646317.35347  22053462.4764   22053464.3104
 02  8  5  2 47  0.0020000  0  9G 3G31G11G 8G 2G27G22G 1G13
   1792632.09749   1555635.93847  22275932.9664   22275940.7024
 -12417515.44048  -9660392.24747  20550329.9884   20550334.1384
   -526360.95046   -399564.55545  24945317.4034   24945319.5814
  -2836579.88047  -2200111.58545  24296400.9504   24296408.6504
  15152821.88248  11972935.42746  23659223.7524   23659228.5474
  -9795216.24648  -7532922.27746  22329068.6984   22329073.0184
  22779856.57347  17960529.52145  24846758.3074   24846760.6554
   5811383.77348   4912532.67846  22878627.2254   22878636.4794
  -4804019.33148  -3579522.41247  22069773.3364   22069775.9764
 02  8  5  2 47 30.0020000  0  9G 3G31G11G 8G 2G27G22G 1G13
   1901409.78848   1640397.82247  22296634.5234   22296640.1424
 -12388987.12049  -9638162.29947  20555760.1414   20555762.7034
   -579732.54147   -441152.46645  24935158.3494   24935163.8104
  -2897438.12147  -2247533.49645  24284822.9654   24284826.7294
  15238346.73348  12039578.18446  23675493.7194   23675503.6044
  -9831577.93848  -7561255.98447  22322152.9554   22322153.3134
  22899992.83747  18054142.12145  24869613.3544   24869621.8994
   5939437.22848   5012314.58146  22902994.9904   22903004.6504
  -4717804.26948  -3512341.85047  22086177.3434   22086182.5294
 02  8  5  2 48  0.0020000  0  9G 3G31G11G 8G 2G27G22G 1G13
   2010521.06548   1725419.56846  22317403.0524   22317403.1324
 -12359889.44148  -9615488.75646  20561294.7164   20561299.7374
   -633183.34346   -482802.24744  24924987.5134   24924995.5324
  -2958305.17947  -2294962.26745  24273237.5234   24273242.7134
  15323890.37548  12106235.57346  23691777.0054   23691782.4664
  -9867771.68748  -7589458.84147  22315262.1024   22315266.6324
  23020084.51347  18147720.01945  24892462.6684   24892474.4054
   6067740.71748   5112291.30646  22927411.3614   22927420.2074
  -4631108.51548  -3444786.71447  22102673.9104   22102680.1114
 02  8  5  2 48 30.0020000  0  9G 3G31G11G 8G 2G27G22G 1G13
   2120039.61948   1810758.67847  22338238.4884   22338243.7584
 -12330146.66149  -9592312.61147  20566957.0744   20566959.1884
   -686634.73247   -524452.50745  24914814.7104   24914821.4614
  -3019103.27247  -2342337.33945  24261662.7044   24261673.7424
  15409529.31248  12172967.17046  23708076.8514   23708078.3054
  -9903718.89948  -7617469.67546  22308417.2044   22308425.7994
  23140207.65147  18241322.44245  24915321.9554   24915333.8584
   6196367.54648   5212519.98746  22951889.2834   22951897.0474
  -4543857.79048  -3376799.12847  22119279.4684   22119283.6804
 02  8  5  2 49  0.0020000  0  9G 3G31G11G 8G 2G27G22G 1G13
   2229955.83348   1896407.72047  22359152.8164   22359160.5734
 -12299766.31648  -9568639.50047  20572737.5844   20572740.6804
   -740090.95047   -566106.34445  24904643.5764   24904648.4374
  -3079837.62347  -2389662.73845  24250112.3034   24250116.0384
  15495256.49048  12239767.55346  23724384.5344   23724392.2674
  -9939424.08648  -7645291.89446  22301626.5784   22301630.7914
  23260354.96247  18334943.70945  24938184.4924   24938196.2954
   6325307.73448   5312992.83546  22976425.5994   22976432.9744
  -4456060.68949  -3308385.80947  22135990.4744   22135990.8034
 02  8  5  2 49 30.0020000  0  9G 3G31G11G 8G 2G27G22G 1G13
   2340211.15148   1982320.96247  22380138.6434   22380141.7544
 -12268804.49248  -9544513.50447  20578629.1384   20578632.5524
   -793605.54146   -607805.77944  24894459.6444   24894464.7404
  -3140562.79147  -2436980.90745  24238558.0564   24238561.9174
  15581016.09548  12306593.24946  23740702.2464   23740711.3314
  -9974941.31948  -7672967.60847  22294869.6304   22294873.0434
  23380470.23547  18428539.99145  24961047.7844   24961055.2894
   6454502.29348   5413663.89946  23001009.8854   23001017.8994
  -4367776.12549  -3239592.67447  22152791.7344   22152790.7744
 02  8  5  2 50  0.0020000  0  9G 3G31G11G 8G 2G27G22G 1G13
   2450822.20048   2068511.33047  22401187.8084   22401190.0224
 -12237243.07649  -9519920.09847  20584635.7394   20584638.3774
   -847156.74147   -649533.82545  24884267.2054   24884273.9584
  -3201257.52347  -2484275.37645  24227003.3724   24227010.7034
  15666827.42848  12373459.22146  23757037.0974   23757040.4814
 -10010249.08848  -7700480.09447  22288151.2674   22288153.5704
  23500572.44847  18522126.09045  24983902.1274   24983909.7174
   6583967.41848   5514545.78946  23025647.6964   23025654.0584
  -4278986.21349  -3170405.75447  22169684.7854   22169687.3334
 02  8  5  2 50 30.0020000  0  9G 3G31G11G 8G 2G27G22G 1G13
   2561764.75349   2154960.07347  22422294.4634   22422301.8654
 -12205104.01148  -9494876.65746  20590750.5154   20590754.2384
   -900764.13947   -691305.44645  24874066.2724   24874072.7334
  -3261942.13047  -2531562.06045  24215453.3814   24215461.5274
  15752668.97048  12440348.69146  23773372.7474   23773375.8554
 -10045366.83348  -7727844.55046  22281461.9414   22281470.2894
  23620639.25247  18615684.58345  25006751.5654   25006757.0214
   6713678.27348   5615619.16746  23050331.5164   23050337.8314
  -4189716.20848  -3100844.71647  22186669.4944   22186674.8684
 02  8  5  2 51  0.0020000  0  9G 3G31G11G 8G 2G27G22G 1G13
   2673083.62749   2241702.07847  22443479.1264   22443485.2214
 -12172340.62549  -9469346.77347  20596986.4184   20596988.5194
   -954377.17446   -733081.56644  24863863.2814   24863868.1134
  -3322567.44647  -2578802.46845  24203921.6784   24203924.9334
  15838588.29448  12507298.81346  23789717.1174   23789725.7824
 -10080245.04548  -7755022.39446  22274827.8354   22274833.8324
  23740717.86846  18709252.25845  25029602.4694   25029608.2674
   6843679.28348   5716918.61746  23075070.3234   23075076.9414
  -4099919.98348  -3030873.62647  22203755.5864   22203761.8164
 02  8  5  2 51 30.0020000  0  9G 3G31G11G 8G 2G27G22G 1G13
   2784759.64548   2328722.31147  22464735.7124   22464736.4414
 -12138970.11748  -9443343.66347  20603336.0254   20603339.3744
  -1008010.23046   -774873.44044  24853658.4234   24853661.9554
  -3383148.36547  -2626008.23645  24192395.1304   24192399.0924
  15924568.90648  12574296.72446  23806078.7674   23806086.2794
 -10114897.81848  -7782024.52047  22268236.7204   22268239.8224
  23860791.54747  18802816.15645  25052453.1594   25052458.4904
   6973950.74948   5818428.81246  23099859.6294   23099866.3644
  -4009616.76648  -2960507.47947  22220941.7854   22220946.2844
 02  8  5  2 52  0.0020000  0  9G 3G31G11G 8G 2G27G22G 1G13
   2896789.87348   2416018.56047  22486049.8874   22486054.8314
 -12104993.28748  -9416868.31847  20609801.5284   20609805.1894
  -1061661.14747   -816679.06745  24843451.0984   24843453.0624
  -3443683.48847  -2673178.38045  24180868.9534   24180878.5704
  16010610.52648  12641342.14746  23822458.4464   23822459.4264
 -10149323.63248  -7808849.76447  22261685.4294   22261688.0894
  23980859.55547  18896375.51745  25075301.6424   25075306.2034
   7104489.37448   5920147.18746  23124700.4504   23124705.9484
  -3918809.70049  -2889748.73947  22238224.9714   22238226.4314
 02  8  5  2 52 30.0020000  0  9G 3G31G11G 8G 2G27G22G 1G13
   3009111.22649   2503541.71647  22507421.0554   22507429.0054
 -12070471.61449  -9389968.20947  20616370.9754   20616374.2104
  -1115387.53546   -858543.51845  24833225.9294   24833231.2274
  -3504231.78847  -2720358.79445  24169347.1304   24169357.3694
  16096652.70448  12708387.95946  23838829.6704   23838834.2064
 -10183580.83448  -7835543.62647  22255165.4964   22255169.4524
  24100861.17247  18989883.23045  25098135.4694   25098140.6544
   7235231.63148   6022024.26746  23149581.0274   23149585.4294
  -3827560.65249  -2818645.60947  22255590.6904   22255590.6204
 02  8  5  2 53  0.0020000  0  9G 3G31G11G 8G 2G27G22G 1G13
   3121837.89648   2591380.68647  22528877.4124   22528880.0864
 -12035288.71348  -9362552.97846  20623064.9444   20623069.4834
  -1169070.03747   -900373.99545  24823008.9444   24823014.1334
  -3564674.68447  -2767457.03545  24157851.8444   24157853.2594
  16182812.04748  12775525.12846  23855219.3764   23855228.8604
 -10217549.95648  -7862013.07946  22248696.2254   22248706.4404
  24220912.72947  19083429.83445  25120977.7154   25120986.4774
   7366291.17748   6124148.55946  23174520.6854   23174526.1194
  -3735755.32249  -2747109.01247  22273059.1314   22273061.2364
 02  8  5  2 53 30.0020000  0  9G 3G31G11G 8G 2G27G22G 1G13
   3234853.64648   2679444.85146  22550384.1124   22550386.3674
 -11999559.08949  -9334711.72447  20629865.5174   20629868.4054
  -1222820.04647   -942256.85045  24812784.7914   24812785.3584
  -3625124.22347  -2814560.42045  24146348.0954   24146350.3174
  16268975.41648  12842665.45146  23871617.6624   23871626.2874
 -10251342.44748  -7888344.90247  22242271.8054   22242274.2624
  24340900.55047  19176926.79745  25143811.0294   25143819.3414
   7497551.42548   6226429.26546  23199499.9824   23199504.1334
  -3643510.20648  -2675229.71147  22290610.7674   22290613.8814
 02  8  5  2 54  0.0020000  0  9G 3G31G11G 8G 2G27G22G 1G13
   3348117.21248   2767702.18247  22571931.3434   22571939.4914
 -11963321.95648  -9306474.88847  20636760.1864   20636764.3304
  -1276673.30047   -984220.15345  24802531.9494   24802538.5934
  -3685616.70447  -2861697.34045  24134828.7524   24134839.9554
  16355104.35147  12909778.86746  23888014.0954   23888014.1974
 -10284994.88948  -7914567.49847  22235868.6274   22235871.0894
  24460785.66247  19270343.69245  25166622.5534   25166632.2534
   7628970.70148   6328833.87146  23224506.6984   23224512.8824
  -3550866.08148  -2603039.48847  22308237.6164   22308243.3804
 02  8  5  2 54 30.0020000  0  9G 3G31G11G 8G 2G27G22G 1G13
   3461782.28148   2856272.41447  22593562.6054   22593569.3164
 -11926421.94448  -9277721.74347  20643782.4604   20643785.9084
  -1330470.95346  -1026140.38245  24792294.3374   24792300.9534
  -3745994.79347  -2908745.16345  24123343.4214   24123350.3604
  16441354.86148  12976987.02346  23904422.9924   23904428.1504
 -10318348.98048  -7940557.65147  22229519.8274   22229524.7854
  24580723.90747  19363801.98645  25189444.8034   25189456.7374
   7760701.82248   6431481.48246  23249575.0944   23249580.6174
  -3457669.42448  -2530418.71547  22325973.0804   22325978.5744
 02  8  5  2 55  0.0020000  0  9G 3G31G11G 8G 2G27G22G 1G13
   3575709.85448   2945047.11646  22615248.8484   22615249.5634
 -11888996.66449  -9248559.06747  20650904.2874   20650907.6214
  -1384347.01147  -1068121.54345  24782045.0754   24782047.2974
  -3806393.21248  -2955808.71446  24111854.7794   24111855.9254
  16527590.57048  13044183.68346  23920827.3584   23920839.1414
 -10351538.67248  -7966419.72746  22223201.8494   22223207.1134
  24700578.48747  19457195.15645  25212255.8914   25212263.8524
   7892605.30848   6534263.39546  23274674.6344   23274679.3794
  -3364058.52448  -2457475.16847  22343788.2384   22343792.7014
 02  8  5  2 55 30.0020000  0  9G 3G31G11G 8G 2G27G22G 1G13
   3689965.19948   3034077.22047  22636985.6074   22636991.7134
 -11850978.36048  -9218934.47246  20658138.5054   20658142.8544
  -1438231.02247  -1110108.85045  24771789.0334   24771793.6064
  -3866741.84947  -3002833.50445  24100368.3414   24100371.7244
  16613879.75748  13111422.03046  23937250.8734   23937259.1584
 -10384493.69048  -7992098.96946  22216930.1244   22216936.2404
  24820417.34447  19550575.98445  25235057.4224   25235068.0134
   8024746.36848   6637230.47146  23299821.2514   23299825.8474
  -3269968.48048  -2384158.26247  22361694.5524   22361696.7944
 02  8  5  2 56  0.0020000  0  9G 3G31G11G 8G 2G27G22G 1G13
   3804531.69348   3123349.86047  22658783.4664   22658792.7484
 -11812382.42449  -9188859.68447  20665483.6124   20665486.8814
  -1492134.06646  -1152111.16444  24761528.2294   24761534.2784
  -3927052.94147  -3049829.10345  24088883.3624   24088894.3744
  16700208.73148  13178691.29946  23953686.1564   23953687.1274
 -10417226.02348  -8017604.66047  22210706.2174   22210708.6834
  24940226.09547  19643933.38345  25257856.8914   25257867.2834
   8157107.72748   6740369.16146  23325009.0064   23325013.3244
  -3175415.24449  -2310480.43647  22379689.3764   22379689.5214
 02  8  5  2 56 30.0020000  0  9G 3G31G11G 8G 2G27G22G 1G13
   3919427.75348   3212879.27247  22680652.2064   22680656.7274
 -11773188.38248  -9158318.79646  20672941.1324   20672945.6214
  -1546032.88447  -1194110.13645  24751275.4994   24751278.6364
  -3987304.03747  -3096777.94145  24077424.2154   24077429.9764
  16786598.57148  13246008.00746  23970119.7004   23970126.4144
 -10449712.31549  -8042918.58747  22204523.1464   22204525.8414
  25060025.52447  19737283.56845  25280650.7154   25280664.9694
   8289707.39348   6843693.56246  23350242.2364   23350246.7544
  -3080380.36749  -2236427.31947  22397773.8694   22397774.4184
 02  8  5  2 57  0.0020000  0  9G 3G31G11G 8G 2G27G22G 1G13
   4034620.05948   3302639.45946  22702575.9934   22702577.3454
 -11733427.62749  -9127336.48047  20680507.9624   20680511.4284
  -1599955.07147  -1236127.31045  24741015.0224   24741020.7954
  -4047523.58347  -3143702.14545  24065969.0144   24065969.9734
  16873018.84748  13313348.50146  23986560.8634   23986571.8314
 -10481980.48148  -8068062.55647  22198381.0314   22198385.4404
  25179784.86747  19830602.42845  25303446.4804   25303454.1684
   8422511.72148   6947177.44746  23375512.5804   23375517.8184
  -2984897.18048  -2162024.84947  22415940.6894   22415944.2104
 02  8  5  2 57 30.0020000  0  9G 3G31G11G 8G 2G27G22G 1G13
   4150129.23348   3392646.59547  22724549.7624   22724557.7894
 -11693078.44948  -9095895.44147  20688186.2774   20688189.6984
  -1653875.33946  -1278143.09544  24730753.3234   24730756.0584
  -4107687.10647  -3190582.70545  24054515.2534   24054521.6894
  16959492.62448  13380730.66346  24003019.8044   24003027.3084
 -10514005.79848  -8093017.33246  22192284.0294   22192292.1034
  25299526.83447  19923907.75345  25326235.1764   25326239.9794
   8555540.54048   7050836.29046  23400826.5804   23400832.7824
  -2888945.49848  -2087257.30847  22434196.9104   22434202.9494
 02  8  5  2 58  0.0020000  0  9G 3G31G11G 8G 2G27G22G 1G13
   4265960.90548   3482905.07447  22746592.2384   22746599.9694
 -11652133.02648  -9063990.02847  20695977.4184   20695981.5514
  -1707782.53647  -1320148.69645  24720495.7014   24720498.2224
  -4167784.16647  -3237411.51745  24043074.8674   24043084.6564
  17046028.48248  13448161.16246  24019493.2854   24019494.8674
 -10545777.51648  -8117774.54746  22186239.0824   22186245.2344
  25419259.29147  20017205.69245  25349020.5214   25349024.7404
   8688798.99148   7154674.03146  23426185.3374   23426190.9514
  -2792518.66548  -2012119.51247  22452546.8454   22452552.2084
 02  8  5  2 58 30.0020000  0  9G 3G31G11G 8G 2G27G22G 1G13
   4382145.90948   3573438.82547  22768707.7154   22768709.3774
 -11610559.36149  -9031594.87247  20703889.0424   20703892.5704
  -1761640.59547  -1362115.89145  24710247.2474   24710249.8604
  -4227779.56247  -3284161.13845  24031664.4764   24031667.5514
  17132659.93448  13515666.13946  24035974.8194   24035980.1024
 -10577259.80549  -8142306.14047  22180252.8874   22180253.7994
  25539015.74747  20110522.36845  25371809.2874   25371812.5244
   8822317.43048   7258714.34946  23451593.8364   23451599.3164
  -2695586.22548  -1936587.75547  22470994.2564   22470997.7224
 02  8  5  2 59  0.0020000  0  9G 3G31G11G 8G 2G27G22G 1G13
   4498631.55348   3664206.80147  22790871.1954   22790875.4854
 -11568408.07348  -8998749.70446  20711910.1954   20711913.9394
  -1815496.80546  -1404081.73444  24699994.4764   24699998.7234
  -4287721.74247  -3330869.21646  24020260.1334   24020261.5894
  17219337.09048  13583206.77846  24052464.2014   24052473.4374
 -10608500.58749  -8166649.53147  22174306.8654   22174310.3434
  25658745.77847  20203818.33345  25394594.9074   25394596.0654
   8956042.77748   7362915.87246  23477040.4584   23477045.0084
  -2598200.77448  -1860703.00547  22489528.1104   22489530.3914
 02  8  5  2 59 30.0020000  0  9G 3G31G11G 8G 2G27G22G 1G13
   4615444.21248   3755229.67447  22813095.6864   22813104.4094
 -11525651.42149  -8965432.86747  20720046.5854   20720049.7974
  -1869319.37047  -1446021.48845  24689756.1944   24689758.2684
  -4347579.67147  -3377511.67545  24008865.6854   24008871.2804
  17306089.20148  13650805.82946  24068974.0994   24068982.4324
 -10639468.50548  -8190780.35947  22168411.5004   22168417.1804
  25778478.19547  20297116.20545  25417378.3844   25417381.0164
   9090000.98648   7467298.90246  23502531.0484   23502537.3974
  -2500335.86549  -1784444.65247  22508152.2124   22508153.6974
 02  8  5  3  0  0.0020000  0  9G 3G31G11G 8G 2G27G22G 1G13
   4732535.57948   3846469.71647  22835380.9274   22835386.2114
 -11482336.12248  -8931680.57247  20728289.0564   20728292.7734
  -1923151.91147  -1487968.82745  24679511.9094   24679516.9764
  -4407397.07447  -3424122.60045  23997476.9674   23997487.9224
  17392870.55148  13718427.62746  24085493.5544   24085496.2954
 -10670206.96848  -8214732.39146  22162559.6034   22162566.3614
  25898166.99146  20390380.10944  25440153.3804   25440155.3374
   9224143.21847   7571825.31146  23528055.9824   23528063.4394
  -2402040.06549  -1707850.54147  22526857.5634   22526858.7804
 02  8  5  3  0 30.0020000  0  9G 3G31G11G 8G 2G27G22G 1G13
   4849912.42848   3937932.13446  22857721.3674   22857721.6074
 -11438453.62248  -8897486.54147  20736639.6044   20736643.2104
  -1976981.76747  -1529914.11745  24669267.2164   24669271.7834
  -4467162.79147  -3470693.25945  23986112.8894   23986115.8064
  17479690.83848  13786079.75846  24102014.6804   24102017.0484
 -10700704.26648  -8238496.53347  22156758.3854   22156764.3014
  26017821.52946  20483617.31844  25462921.6934   25462926.8004
   9358475.92147   7676500.13345  23553617.8944   23553626.2054
  -2303306.33248  -1630915.19847  22545644.8314   22545646.8554
 02  8  5  3  1  0.0020000  0  9G 3G31G11G 8G 2G27G22G 1G13
   4967578.76748   4029620.15347  22880106.1934   22880113.4184
 -11393998.66649  -8862846.18847  20745099.3234   20745102.7994
  -2030799.81447  -1571850.34845  24659027.3764   24659031.5664
  -4526868.59748  -3517217.10946  23974751.1974   23974753.9454
  17566556.93048  13853767.60046  24118539.3774   24118547.7074
 -10730951.62549  -8262065.87547  22151005.9774   22151008.2934
  26137448.11247  20576832.68645  25485686.2514   25485692.5964
   9493002.41447   7781325.97945  23579217.2844   23579226.5864
  -2204130.56848  -1553635.39547  22564514.3614   22564519.2354
 02  8  5  3  1 30.0030000  0  9G 3G31G11G 8G 2G27G22G 1G13
   5085635.33048   4121612.30547  22902570.9184   22902578.5824
 -11348871.13848  -8827681.96847  20753687.1434   20753690.2684
  -2084505.91847  -1613699.17745  24648807.8204   24648811.6244
  -4586414.90747  -3563616.72345  23963415.7884   23963422.6354
  17653571.19848  13921570.93246  24135096.3844   24135105.9304
 -10760848.16749  -8285361.81047  22145316.3734   22145317.4164
  26257149.96747  20670106.70445  25508463.1494   25508470.4304
   9627823.51147   7886381.36546  23604873.4884   23604882.2804
  -2104412.84048  -1475933.28047  22583489.0674   22583494.8544
 02  8  5  3  2  0.0030000  0  9G 3G31G11G 8G 2G27G22G 1G13
   5203943.93448   4213800.80646  22925090.6564   22925091.7834
 -11303203.34949  -8792096.61047  20762376.9324   20762380.5874
  -2138221.62447  -1655555.46845  24638584.9854   24638590.0474
  -4645923.53847  -3609987.07345  23952086.2914   23952097.7724
  17740600.22548  13989385.75246  24151661.5804   24151666.7834
 -10790517.46948  -8308480.69947  22139668.5084   22139673.1364
  26376790.93047  20763333.31845  25531229.1064   25531238.0644
   9762799.13947   7991557.15745  23630557.4214   23630567.6964
  -2004290.09048  -1397915.56647  22602542.2524   22602547.7954
 02  8  5  3  2 30.0030000  0  9G 3G31G11G 8G 2G27G22G 1G13
   5322505.18648   4306186.14546  22947650.6334   22947653.4214
 -11256994.99948  -8756090.06446  20771170.3794   20771174.0074
  -2191946.28247  -1697418.96745  24628362.5194   24628368.6084
  -4705395.24948  -3656328.61046  23940778.2174   23940781.1874
  17827646.78948  14057214.19446  24168229.4184   24168231.4314
 -10819958.50548  -8331421.78146  22134062.0694   22134070.6974
  26496374.51847  20856515.27245  25553984.1184   25553994.4364
   9897930.34447   8096854.18346  23656273.0004   23656281.7484
  -1903762.06648  -1319582.05247  22621672.8504   22621677.3084
                            4  1
original post-header comments being skipped                 COMMENT
 02  8  5  3  3  0.0000000  0  9G 3G31G11G 8G 2G27G22G 1G13
   5441394.00648   4398826.78146  22070890.8664   22070899.6514
 -11210170.15449  -8719603.23147  19880703.0254   19880706.5914
  -2245600.04347  -1739226.97845  23718776.0064   23718778.2854
  -4764750.60947  -3702579.41846  23030107.4134   23030108.1544
  17914788.30248  14125116.63346  23285431.4014   23285436.4924
 -10849091.85248  -8354123.13046  21229143.7774   21229147.9074
  26615977.93547  20949712.61945  24677367.4104   24677375.4194
  10033291.37447   8202330.24345  22782653.5304   22782662.0314
  -1802754.24948  -1240874.69047  21741518.4304   21741520.2534
 02  8  5  3  3 30.0000000  0  8G 3G31G11G 8G 2G27G 1G13
   5560515.08348   4491648.42946  22093561.1084   22093567.5504
 -11162822.73648  -8682709.02147  19889713.7124   19889716.7414
  -2299272.89147  -1781049.84845  23708559.6244   23708563.1184
  -4824080.57247  -3748810.46345  23018811.4904   23018818.3284
  18001932.28248  14193021.02146  23302010.8804   23302019.3694
 -10878007.84349  -8376655.01047  21223644.0544   21223646.5554
  10168786.53647   8307910.83845  22808436.2694   22808445.3834
  -1701362.02248  -1161867.78047  21760814.7274   21760814.9734
 02  8  5  3  4  0.0000000  0  8G 3G31G11G 8G 2G27G 1G13
   5679946.61948   4584711.93246  22116294.6274   22116294.7604
 -11114872.91649  -8645345.63847  19898837.1924   19898841.1944
  -2352881.29846  -1822822.64644  23698353.8154   23698366.2404
  -4883302.31947  -3794957.26545  23007540.3204   23007549.2354
  18089159.76348  14260990.48346  23318609.6264   23318618.4834
 -10906623.55549  -8398952.92747  21218198.6654   21218201.3814
  10304493.54247   8413656.52845  22834260.9894   22834269.2284
  -1599507.31648  -1082500.51547  21780197.4874   21780198.4234
 02  8  5  3  4 30.0000000  0  8G 3G31G11G 8G 2G27G 1G13
   5799664.77148   4677998.76546  22139070.8224   22139076.5624
 -11066343.43349  -8607530.34047  19908072.4874   19908076.0334
  -2406443.70447  -1864559.58545  23688167.7254   23688170.3044
  -4942435.02547  -3841034.65946  22996292.7224   22996295.6274
  18176450.04948  14329008.86946  23335225.0004   23335229.2984
 -10934957.46948  -8421031.25647  21212806.0284   21212808.4894
  10440388.12047   8519548.37545  22860119.6524   22860130.3634
  -1497213.92148  -1002791.40847  21799661.6834   21799663.7584
 02  8  5  3  5  0.0000000  0  9G 3G28G31G11G 8G 2G27G 1G13
   5919662.72648   4771503.68947  22161902.4894   22161911.3914
  -1889492.65057  -1464709.06645  24951182.5624   24951185.9264
 -11017239.33848  -8569267.49447  19917415.9624   19917420.7064
  -2459961.47347  -1906261.54045  23677984.0314   23677986.0304
  -5001480.95148  -3887044.35646  22985057.8824   22985059.1724
  18263798.95548  14397072.94146  23351848.3994   23351851.6824
 -10963011.60748  -8442891.60346  21207464.0934   21207470.5394
  10576462.75247   8625580.52345  22886014.5974   22886024.6184
  -1394488.80848   -922745.88047  21819207.5674   21819211.3934
 02  8  5  3  5 30.0000000  0  9G 3G28G31G11G 8G 2G27G 1G13
   6039934.63748   4865222.07646  22184794.1284   22184798.0604
  -1919983.40447  -1488467.96945  24945379.9414   24945384.1144
 -10967565.49949  -8530560.54247  19926868.7704   19926872.8134
  -2513435.24947  -1947929.32045  23667804.6084   23667812.3214
  -5060441.27547  -3932987.37545  22973832.9164   22973839.6674
  18351203.58748  14465180.41746  23368478.4514   23368483.6904
 -10990786.79148  -8464534.64846  21202177.5454   21202186.1594
  10712711.29447   8731748.16645  22911944.2154   22911952.5644
  -1291337.87248   -842368.54546  21838835.9284   21838839.9394
 02  8  5  3  6  0.0000000  0  9G 3G28G31G11G 8G 2G27G 1G13
   6160475.43048   4959149.92246  22207735.9434   22207736.6414
  -1950426.33847  -1512189.63845  24939584.2434   24939591.2454
 -10917325.46848  -8491412.44047  19936430.2354   19936433.5674
  -2566864.76247  -1989562.67845  23657639.6324   23657642.3124
  -5119316.54747  -3978864.18745  22962627.2294   22962636.6854
  18438661.58048  14533329.51346  23385117.5084   23385126.3794
 -11018283.36848  -8485960.55047  21196949.1784   21196952.3774
  10849128.15947   8838046.99245  22937903.1684   22937911.7304
  -1187766.51348   -761663.61346  21858544.1184   21858548.8554
 02  8  5  3  6 30.0000000  0  9G 3G28G31G11G 8G 2G27G 1G13
   6281238.70048   5053251.13246  22230709.1964   22230717.0304
  -1980865.94347  -1535908.68545  24933791.5634   24933798.9164
 -10866564.62049  -8451858.58047  19946088.5354   19946092.6474
  -2620291.18447  -2031193.43945  23647475.2444   23647477.6954
  -5178148.95347  -4024707.57646  22951436.7114   22951440.8514
  18526129.09648  14601486.02146  23401762.5374   23401770.8534
 -11045542.89549  -8507201.67747  21191763.5054   21191765.4174
  10985666.25747   8944440.28945  22963886.4554   22963893.2314
  -1083821.57748   -680667.57246  21878323.4554   21878329.8564
 02  8  5  3  7  0.0000000  0  9G 3G28G31G11G 8G 2G27G 1G13
   6402281.54448   5147570.28046  22253742.0804   22253750.5994
  -2011242.88647  -1559578.92445  24928013.9844   24928017.9114
 -10815224.63348  -8411853.28847  19955859.1944   19955862.8114
  -2673652.20147  -2072773.25245  23637318.2114   23637323.4924
  -5236876.71048  -4070469.34546  22940262.7054   22940264.8954
  18613666.13648  14669696.68546  23418424.3724   23418428.7974
 -11072503.32749  -8528209.75947  21186632.5404   21186635.8074
  11122382.23147   9050972.18545  22989903.7894   22989910.0724
   -979445.88648   -599335.87646  21898186.8714   21898192.2294
 02  8  5  3  7 30.0000000  0  9G 3G28G31G11G 8G 2G27G 1G13
   6523633.30648   5242130.09946  22276840.8724   22276843.3964
  -2041525.66547  -1583175.77645  24922251.2534   24922253.3014
 -10763274.74749  -8371372.98147  19965743.4854   19965748.2784
  -2726913.00347  -2114275.23445  23627182.9104   23627186.9194
  -5295465.69647  -4116123.02746  22929109.9174   22929115.7634
  18701304.82548  14737986.52646  23435103.5734   23435105.7724
 -11099130.34748  -8548958.07247  21181563.3024   21181567.8914
  11259304.65747   9157664.94645  23015958.5394   23015964.0914
   -874610.22148   -517645.77346  21918138.9164   21918141.2854
 02  8  5  3  8  0.0000000  0  9G 3G28G31G11G 8G 2G27G 1G13
   6645265.40248   5336908.28946  22299986.4154   22299989.4124
  -2071740.56747  -1606719.74245  24916498.8574   24916505.0754
 -10710742.62549  -8330438.74147  19975740.8394   19975744.8464
  -2780097.23147  -2155717.39045  23617063.6584   23617066.2274
  -5353939.95847  -4161687.37145  22917980.8804   22917988.3974
  18789019.57348  14806335.64346  23451792.1644   23451797.5644
 -11125447.96248  -8569465.30546  21176552.2454   21176559.7784
  11396404.58447   9264496.00045  23042049.0874   23042054.3034
   -769343.43348   -435619.73547  21938172.3574   21938172.6404
 02  8  5  3  8 30.0000000  0  9G 3G28G31G11G 8G 2G27G 1G13
   6767152.06648   5431884.92447  22323175.3374   22323183.6844
  -2101910.98847  -1630229.09045  24910756.8754   24910763.2904
 -10657652.37448  -8289069.81047  19985843.6214   19985847.8264
  -2833224.75947  -2197115.34745  23606950.5854   23606955.9614
  -5412320.59848  -4207178.73546  22906874.5914   22906879.7874
  18876787.53848  14874726.26246  23468489.0904   23468499.7994
 -11151476.31748  -8589747.16847  21171600.4034   21171607.8494
  11533655.88147   9371445.00945  23068168.9264   23068171.9634
   -663671.98048   -353278.38547  21958280.6994   21958281.0044
 02  8  5  3  9  0.0000000  0  9G 3G28G31G11G 8G 2G27G 1G13
   6889238.35648   5527017.11947  22346409.3404   22346416.0674
  -2132089.76147  -1653744.93845  24905015.9594   24905020.7704
 -10604058.15649  -8247308.00847  19996041.9544   19996046.0614
  -2886345.39946  -2238508.13044  23596841.0614   23596848.5674
  -5470657.97948  -4252636.35046  22895775.0684   22895777.2684
  18964556.67648  14943117.79846  23485190.7194   23485200.8224
 -11177265.84249  -8609842.89147  21166697.7104   21166699.1434
  11671002.98747   9478468.71545  23094304.6124   23094307.1404
   -557650.53048   -270664.29047  21978455.5804   21978457.4894
 02  8  5  3  9 30.0000000  0  9G 3G28G31G11G 8G 2G27G 1G13
   7011599.63648   5622363.52746  22369699.5004   22369700.4774
  -2162199.42347  -1677206.91845  24899287.8264   24899291.6314
 -10549883.24248  -8205093.79447  20006351.9404   20006355.5614
  -2939378.62147  -2279832.67945  23586751.6374   23586756.2604
  -5528872.04247  -4297997.86546  22884695.5844   22884699.4054
  19052405.03548  15011571.06146  23501912.5344   23501918.7434
 -11202736.18149  -8629689.82847  21161850.5854   21161852.1104
  11808520.68947   9585625.35345  23120474.3964   23120477.0724
   -451203.89148   -187718.90147  21998710.5564   21998713.7474
 02  8  5  3 10  0.0000000  0  9G 3G28G31G11G 8G 2G27G 1G13
   7134235.44848   5717923.85446  22393032.9104   22393037.4234
  -2192238.17147  -1700613.63345  24893570.1014   24893574.3734
 -10495127.06049  -8162426.66647  20016770.6344   20016775.0274
  -2992319.42047  -2321085.14045  23576678.5534   23576680.2314
  -5586958.53947  -4343260.04645  22873637.7314   22873645.1694
  19140335.18047  15080088.02145  23518648.7264   23518650.2744
 -11227882.85949  -8649284.60147  21157064.2364   21157068.1384
  11946208.22547   9692914.29646  23146677.4114   23146678.8694
   -344333.02948   -104442.91746  22019046.1884   22019050.2114
 02  8  5  3 10 30.0000000  0  9G 3G28G31G11G 8G 2G27G 1G13
   7257069.18148   5813638.45247  22416403.4374   22416411.7524
  -2222280.16447  -1724022.90545  24887851.0594   24887857.8074
 -10439865.00648  -8119365.24947  20027287.9414   20027291.2664
  -3045238.56247  -2362320.82445  23566607.9184   23566611.6444
  -5644989.34447  -4388478.81746  22862597.1334   22862604.1084
  19228273.23147  15148611.14645  23535380.9964   23535384.0194
 -11252777.46048  -8668682.97547  21152324.3394   21152330.1624
  12083988.44247   9800275.47146  23172894.0434   23172896.3924
   -237114.78748    -20896.26646  22039446.7684   22039452.3824
 02  8  5  3 11  0.0000000  0  9G 3G28G31G11G 8G 2G27G 1G13
   7380123.37448   5909524.83646  22439823.0124   22439828.5354
  -2252300.82247  -1747415.53145  24882139.7094   24882145.6844
 -10384073.33749  -8075891.32147  20037903.1064   20037908.1244
  -3098108.63947  -2403518.36945  23556547.4384   23556550.8364
  -5702937.30248  -4433633.01446  22851573.6134   22851576.2344
  19316244.56847  15217160.22946  23552116.6604   23552124.9504
 -11277392.59648  -8687863.61846  21147636.3084   21147645.6114
  12221883.46647   9907726.12046  23199134.9884   23199140.3204
   -129526.73248     62938.56646  22059919.7744   22059926.3504
 02  8  5  3 11 30.0000000  0  9G 3G28G31G11G 8G 2G27G 1G13
   7503391.35648   6005577.76146  22463284.3134   22463285.2924
  -2282304.88047  -1770795.26045  24876431.8164   24876435.3314
 -10327758.26249  -8032009.33647  20048620.0994   20048624.5244
  -3150931.28647  -2444678.75445  23546496.2934   23546501.4524
  -5760804.86548  -4478724.53146  22840561.8044   22840563.0454
  19404245.05848  15285732.04346  23568862.0394   23568871.0264
 -11301730.18648  -8706827.99847  21143009.4364   21143014.9924
  12359885.70947  10015260.30545  23225396.1124   23225400.3964
    -21576.22848    147055.81846  22080462.3594   22080469.0624
 02  8  5  3 12  0.0000000  0  9G 3G28G31G11G 8G 2G27G 1G13
   7626868.61348   6101793.76446  22486776.0424   22486782.1194
  -2312294.23247  -1794163.53145  24870724.3404   24870728.0834
 -10270922.55449  -7987721.89647  20059435.1934   20059439.6484
  -3203704.98047  -2485801.12645  23536449.3634   23536457.7744
  -5818591.46547  -4523752.99946  22829559.9094   22829568.1804
  19492273.43947  15354325.58546  23585614.4004   23585622.1904
 -11325789.83849  -8725575.75347  21138433.4674   21138436.4794
  12497990.41547  10122874.33445  23251673.8784   23251678.4314
     86732.30448    231452.06946  22101074.0244   22101079.6374
 02  8  5  3 12 30.0000000  0  9G 3G28G31G11G 8G 2G27G 1G13
   7750620.41348   6198223.75146  22510323.1794   22510331.0624
  -2342201.73347  -1817468.04145  24865030.9294   24865037.8904
 -10213500.50349  -7942977.33847  20070362.2134   20070366.6634
  -3256359.51247  -2526830.74845  23526432.6204   23526435.6834
  -5876227.13347  -4568663.88146  22818592.1064   22818600.1934
  19580397.69747  15422993.80645  23602389.5944   23602391.9274
 -11349501.25149  -8744052.12747  21133921.5034   21133923.1974
  12636262.16547  10230618.57045  23277984.6624   23277992.0604
    195463.51148    316177.65446  22121767.1944   22121769.9604
 02  8  5  3 13  0.0000000  0  9G 3G28G31G11G 8G 2G27G 1G13
   7874574.26948   6294811.16346  22533915.0104   22533919.1904
  -2372097.80147  -1840763.63245  24859342.6784   24859348.5304
 -10155563.03448  -7897831.33847  20081388.2354   20081391.8074
  -3308962.18547  -2567819.78845  23516422.6564   23516427.4974
  -5933779.82448  -4613510.09046  22807645.5524   22807648.5944
  19668548.57247  15491682.75145  23619163.5854   23619167.1604
 -11372932.10849  -8762309.88247  21129462.5724   21129465.1844
  12774628.16747  10338436.18845  23304314.5844   23304322.6044
    304544.80248    401176.02946  22142525.5154   22142526.4744
 02  8  5  3 13 30.0000000  0  9G 3G28G31G11G 8G 2G27G 1G13
   7998752.96848   6391573.73646  22557547.7144   22557549.5864
  -2401957.22247  -1864030.66845  24853663.2384   24853665.7244
 -10097087.09349  -7852265.62447  20092514.6564   20092519.4304
  -3361484.68247  -2608746.37545  23506428.5214   23506431.6584
  -5991222.09048  -4658270.21846  22796714.7894   22796716.2184
  19756751.30747  15560412.10645  23635945.4334   23635950.4934
 -11396054.53248  -8780327.34847  21125058.9424   21125065.2614
  12913110.57047  10446344.50945  23330666.3544   23330673.5444
    413998.18248    486464.34546  22163355.4584   22163354.8774
 02  8  5  3 14  0.0000000  0  9G 3G28G31G11G 8G 2G27G 1G13
   8123165.95248   6488518.88946  22581217.0704   22581224.1774
  -2431768.42047  -1887260.10745  24847988.4684   24847994.1524
 -10038061.72148  -7806271.81947  20103749.0444   20103751.5544
  -3413911.99247  -2649598.90045  23496449.6294   23496457.9664
  -6048539.77248  -4702933.27746  22785803.1664   22785809.2694
  19845018.32547  15629191.58246  23652737.9304   23652748.6244
 -11418854.17148  -8798093.31746  21120719.3214   21120725.9014
  13051718.35047  10554350.53245  23357039.9564   23357050.5244
    523832.75948    572049.69946  22184256.1474   22184256.1664
 02  8  5  3 14 30.0000000  0  9G 3G28G31G11G 8G 2G27G 1G13
   8247786.83748   6585626.08546  22604930.4454   22604939.1404
  -2461555.58047  -1910470.82145  24842318.3774   24842324.3174
  -9978512.56549  -7759869.92047  20115078.6744   20115083.4014
  -3466265.26147  -2690393.68645  23486489.6214   23486492.8744
  -6105754.16647  -4747515.90246  22774914.7034   22774922.2734
  19933326.06047  15698002.76446  23669541.5304   23669552.5884
 -11441352.64048  -8815624.60346  21116438.1914   21116445.1224
  13190424.56247  10662433.25145  23383435.5454   23383445.6344
    634022.06948    657911.46546  22205223.7454   22205225.0464
 02  8  5  3 15  0.0000000  0  9G 3G28G31G11G 8G 2G27G 1G13
   8372639.46348   6682913.82146  22628695.2114   22628697.3874
  -2491293.04147  -1933642.79045  24836660.9534   24836665.9474
  -9918415.18848  -7713040.71547  20126516.5034   20126519.8614
  -3518515.62647  -2731108.18045  23476546.4774   23476549.2484
  -6162837.69948  -4791996.53146  22764055.6034   22764059.5274
  20021701.03947  15766866.35345  23686361.2504   23686369.2704
 -11463521.46249  -8832899.02547  21112224.5604   21112226.8054
  13329252.37047  10770610.72645  23409855.4744   23409862.4064
    744589.13548    744067.60046  22226262.3944   22226265.4554
 02  8  5  3 15 30.0000000  0  9G 3G28G31G11G 8G 2G27G 1G13
   8497722.30048   6780380.90446  22652497.7754   22652500.5034
  -2520979.81247  -1956775.27545  24831014.2324   24831016.6934
  -9857769.81549  -7665784.68247  20138055.3024   20138059.8244
  -3570658.70447  -2771739.20645  23466622.2154   23466629.5574
  -6219786.35848  -4836372.02946  22753219.7084   22753222.3214
  20110144.76947  15835783.45745  23703196.9434   23703199.7174
 -11485357.02249  -8849913.68747  21108069.1074   21108071.1494
  13468199.98747  10878881.56745  23436295.3164   23436303.4894
    855532.38248    830516.86046  22247373.6414   22247376.9584
 02  8  5  3 16  0.0000000  0  9G 3G28G31G11G 8G 2G27G 1G13
   8622972.39248   6877978.35846  22676325.1264   22676334.9324
  -2550676.70247  -1979915.62645  24825360.7134   24825365.7854
  -9796638.66649  -7618149.91647  20149688.8894   20149693.1654
  -3622752.55847  -2812331.87645  23456710.6094   23456714.7154
  -6276658.48348  -4880687.88446  22742395.2404   22742400.6174
  20198597.28647  15904707.42545  23720029.6724   23720032.2234
 -11506917.26149  -8866713.84247  21103966.0714   21103968.8094
  13607203.80347  10987196.24145  23462747.4784   23462757.0604
    966788.38448    917209.82046  22268543.5704   22268547.6694
 02  8  5  3 16 30.0000000  0  9G 3G28G31G11G 8G 2G27G 1G13
   8748488.41848   6975783.08246  22700210.9894   22700219.6314
  -2580283.07747  -2002985.47545  24819724.4884   24819731.5074
  -9734922.02749  -7570059.12947  20161433.4944   20161437.2534
  -3674692.95147  -2852804.83745  23446826.8694   23446830.3154
  -6333350.69648  -4924863.59546  22731603.9344   22731611.4114
  20287159.95347  15973717.24545  23736878.8224   23736884.3774
 -11528098.63049  -8883218.77147  21099935.0644   21099937.7334
  13746361.94647  11095631.19945  23489232.1824   23489237.1734
   1078455.09448   1004222.82346  22289791.5774   22289797.3764
 02  8  5  3 17  0.0000000  0  9G 3G28G31G11G 8G 2G27G 1G13
   8874227.89048   7073761.84946  22724145.4174   22724146.7494
  -2609839.23847  -2026016.21045  24814102.7994   24814107.1684
  -9672662.25249  -7521544.92847  20173280.4914   20173284.6594
  -3726517.30147  -2893187.38645  23436963.4874   23436966.5694
  -6389901.09248  -4968928.79746  22720844.6224   22720850.3834
  20375792.76547  16042781.70845  23753741.7484   23753750.1034
 -11548939.17448  -8899458.15146  21095963.8234   21095972.0044
  13885631.04847  11204152.58145  23515735.8094   23515738.4464
   1190489.79548   1091522.56346  22311110.6984   22311118.2864
 02  8  5  3 17 30.0000000  0  9G 3G28G31G11G 8G 2G27G 1G13
   9000180.64548   7171906.77546  22748111.1884   22748114.4724
  -2639353.15047  -2049013.98645  24808488.1324   24808491.3404
  -9609868.09848  -7472614.49147  20185231.2374   20185234.1394
  -3778229.98147  -2933483.01645  23427122.5084   23427127.8304
  -6446314.92348  -5012887.55746  22710111.3074   22710114.6484
  20464488.51447  16111895.20145  23770618.6674   23770629.1064
 -11569443.85248  -8915435.86046  21092063.2274   21092069.6024
  14025000.58747  11312752.21245  23542257.0334   23542260.2424
   1302881.75248   1179100.69146  22332498.2694   22332505.1474
 02  8  5  3 18  0.0000000  0  9G 3G28G31G11G 8G 2G27G 1G13
   9126295.69948   7270178.25246  22772104.5424   22772113.5914
  -2668873.74847  -2072016.98345  24802867.4464   24802872.4614
  -9546590.22649  -7423307.00847  20197270.6354   20197275.3944
  -3829876.99547  -2973727.25645  23417296.4384   23417300.0934
  -6502638.52748  -5056775.99746  22699394.8714   22699397.2554
  20553199.19647  16181020.35045  23787501.6404   23787510.0704
 -11589658.96548  -8931187.89847  21088217.6234   21088223.2514
  14164419.03947  11421389.99745  23568786.4954   23568792.0074
   1415579.43948   1266917.05246  22353944.8904   22353950.2834
 02  8  5  3 18 30.0000000  0  9G 3G28G31G11G 8G 2G27G 1G13
   9252596.47748   7368594.45546  22796140.5424   22796147.3754
  -2698375.59147  -2095005.43545  24797253.1114   24797258.6504
  -9482804.24448  -7373603.65547  20209411.7904   20209413.5144
  -3881429.91947  -3013898.21845  23407484.2514   23407489.9454
  -6558843.68548  -5100572.14246  22688695.6344   22688701.0114
  20641950.86547  16250177.42345  23804395.5724   23804399.2904
 -11609556.25749  -8946692.27347  21084434.9704   21084436.8484
  14303909.30247  11530083.68045  23595332.6914   23595335.7904
   1528605.64648   1354989.38446  22375455.0864   22375458.1484
 02  8  5  3 19  0.0000000  0  9G 3G28G31G11G 8G 2G27G 1G13
   9379015.91548   7467103.07846  22820203.4164   22820205.1774
  -2727923.53447  -2118029.75245
  -9418576.76249  -7323556.27847  20221630.7314   20221635.4414
  -3932950.00247  -3054043.75445  23397680.8224   23397685.9624
  -6614992.81248  -5144324.68546  22678009.4384   22678017.3564
  20730679.36547  16319316.39245  23821281.7894   23821283.7474
 -11629198.38849  -8961997.76947  21080696.9744   21080699.1484
  14443403.67747  11638780.55445  23621876.1174   23621879.7594
   1641892.72048   1443264.99146  22397013.9244   22397015.8664
 02  8  5  3 19 30.0000000  0  9G 3G28G31G11G 8G 2G27G 1G13
   9505687.34948   7565808.02746  22844305.8244   22844309.2024
  -2757381.75447  -2140984.15045  24786026.6734   24786029.6434
  -9353773.22248  -7273059.95547  20233964.7854   20233966.9024
  -3984298.58047  -3094055.53245  23387909.9444   23387914.5864
  -6670947.79448  -5187925.91646  22667363.9344   22667368.5494
  20819521.26847  16388543.74545  23838186.3664   23838190.1404
 -11648446.17349  -8976996.02247  21077033.3084   21077036.6544
  14583035.34747  11747584.41845  23648443.5714   23648449.7414
   1755573.90848   1531847.70046  22418647.5504   22418649.2894
 02  8  5  3 20  0.0000000  0  9G 3G28G31G11G 8G 2G27G 1G13
   9632547.23748   7664659.86946  22868441.0994   22868450.4774
  -2786811.84047  -2163916.63645  24780422.4334   24780429.9534
  -9288456.82049  -7222164.13547  20246391.8484   20246396.2314
  -4035533.79747  -3133978.91945  23378161.5104   23378165.6674
  -6726767.15148  -5231421.43346  22656744.4924   22656745.3284
  20908415.72447  16457812.05545  23855099.0324   23855106.5264
 -11667358.89448  -8991733.17747  21073434.1294   21073437.1564
  14722739.91547  11856445.11845  23675027.1604   23675036.9624
   1869584.34748   1620686.97246  22440343.8014   22440345.1984
 02  8  5  3 20 30.0000000  0  9G 3G28G31G11G 8G 2G27G 1G13
   9759588.65948   7763653.16346  22892618.5894   22892626.2474
  -2816218.85647  -2186831.16845  24774828.9314   24774833.9144
  -9222633.89249  -7170873.44447  20258919.0674   20258921.9254
  -4086657.49247  -3173815.51045  23368430.1454   23368435.6194
  -6782453.49648  -5274813.31946  22646145.3614   22646148.9704
  20997358.53547  16527118.07145  23872020.3804   23872031.9124
 -11685938.61848  -9006210.86347  21069894.5784   21069901.9884
  14862509.89847  11965356.75945  23701623.5034   23701632.7844
   1983917.24548   1709777.50946  22462100.8024   22462101.9664
 02  8  5  3 21  0.0000000  0  9G 3G28G31G11G 8G 2G27G 1G13
   9886834.75748   7862805.92746  22916838.9144   22916840.3004
  -2845577.56247  -2209708.02345  24769244.5954   24769247.2234
  -9156280.64149  -7119169.71247  20271544.6494   20271548.3194
  -4137641.65147  -3213543.42445  23358731.0034   23358733.6514
  -6837978.82648  -5318079.75146  22635577.1354   22635583.9224
  21086375.43447  16596481.80645  23888960.2304   23888970.7674
 -11704157.44248  -9020407.38247  21066428.4994   21066434.7944
  15002367.72647  12074336.85445  23728235.9524   23728245.6904
   2098595.13148   1799136.86246  22483923.6954   22483924.1544
 02  8  5  3 21 30.0000000  0  9G 3G28G31G11G 8G 2G27G 1G13
  10014299.17748   7962128.75846  22941090.7614   22941095.2924
  -2874871.82947  -2232534.64245  24763668.6094   24763673.1534
  -9089382.66449  -7067041.31547  20284275.2944   20284278.6434
  -4188466.77547  -3253147.24545  23349057.9604   23349060.4154
  -6893324.40548  -5361206.14646  22625045.5934   22625051.4814
  21175483.36847  16665916.45345  23905919.6804   23905927.9664
 -11721996.83548  -9034308.19447  21063034.3964   21063040.2564
  15142326.78247  12183395.81945  23754871.8964   23754879.1804
   2213631.12048   1888775.26346  22505813.7984   22505814.1394
 02  8  5  3 22  0.0000000  0  9G 3G28G31G11G 8G 2G27G 1G13
  10141900.53848   8061558.37246  22965367.4924   22965377.6164
  -2904181.11247  -2255373.00745  24758088.0734   24758094.6234
  -9022020.69249  -7014551.54747  20297094.6904   20297097.1514
  -4239208.83447  -3292686.38545  23339402.6094   23339405.5864
  -6948567.32248  -5404252.54246  22614536.0694   22614538.0264
  21264603.44447  16735360.54645  23922882.0784   23922886.6354
 -11739533.31848  -9047972.99047  21059699.5104   21059702.9544
  15282304.83547  12292469.61445  23781510.5904   23781517.3874
   2328942.73548   1978628.43646  22527756.2484   22527757.7254
 02  8  5  3 22 30.0010000  0  9G 3G28G31G11G 8G 2G27G 1G13
  10269659.67248   8161110.93046  22989681.9284   22989689.1414
  -2933487.64247  -2278209.21545  24752513.8524   24752518.3564
  -8954175.58749  -6961685.15247  20310003.6124   20310007.6264
  -4289847.64247  -3332145.23545  23329763.0164   23329770.5044
  -7003687.80248  -5447203.49146  22604046.3194   22604048.2924
  21353758.07547  16804831.53945  23939850.2624   23939852.4894
 -11756746.28949  -9061385.65147  21056425.5984   21056427.8924
  15422322.72847  12401574.46345  23808157.2324   23808160.0834
   2444549.61248   2068711.68746  22549754.2124   22549757.8804
 02  8  5  3 23  0.0010000  0  9G 3G28G31G11G 8G 2G27G 1G13
  10397554.17948   8260768.94346  23014025.6624   23014026.7534
  -2962801.69747  -2301051.25945  24746936.4924   24746940.3434
  -8885864.93748  -6908456.10547  20323005.2264   20323006.9154
  -4340388.73947  -3371527.80845  23320148.8654   23320150.9354
  -7058691.41048  -5490063.38246  22593578.8294   22593583.4374
  21442930.10547  16874316.12445  23956818.3624   23956821.5894
 -11773643.71849  -9074552.43847  21053209.4444   21053211.9274
  15562356.71247  12510691.80745  23834806.6024   23834807.6484
   2560430.90648   2159008.77646  22571805.1484   22571809.4444
 02  8  5  3 23 30.0010000  0  9G 3G28G31G11G 8G 2G27G 1G13
  10525602.29348   8360546.62046  23038389.0844   23038393.1424
  -2992107.83247  -2323887.14645  24741356.9834   24741363.6934
  -8817072.46949  -6854851.55747  20336092.9994   20336097.6214
  -4390814.40647  -3410820.39945  23310552.6504   23310556.6234
  -7113561.60648  -5532819.34946  22583136.6894   22583142.5414
  21532139.30147  16943829.66145  23973792.2034   23973798.1104
 -11790207.45549  -9087459.21747  21050057.5954   21050059.5844
  15702424.78947  12619835.77345  23861461.5944   23861461.9644
   2676602.89448   2249532.38446  22593910.7734   22593916.4104
 02  8  5  3 24  0.0010000  0  9G 3G28G31G11G 8G 2G27G 1G13
  10653848.02748   8460478.34746  23062788.9034   23062798.2084
  -3021360.03347  -2346681.01045  24735791.0354   24735795.7664
  -8747753.19748  -6800836.52447  20349287.3084   20349288.6434
  -4441075.26047  -3449984.70745  23300987.9244   23300991.8904
  -7168249.09248  -5575432.94846  22572728.1504   22572734.5214
  21621432.61947  17013408.76345  23990781.4824   23990790.0734
 -11806388.56548  -9100067.83547  21046976.9674   21046980.3324
  15842570.34447  12729040.10745  23888129.5674   23888132.1564
   2793108.63548   2340316.03646  22616080.9094   22616085.7364
 02  8  5  3 24 30.0010000  0  9G 3G28G31G11G 8G 2G27G 1G13
  10782271.66648   8560548.71246  23087229.3794   23087235.8784
  -3050575.75047  -2369446.48645
  -8677926.50549  -6746426.13847  20362571.6264   20362576.3774
  -4491185.77347  -3489031.83045  23291451.7114   23291456.2084
  -7222768.78848  -5617915.77446  22562356.3384   22562359.8914
  21710793.19347  17083040.24645  24007785.1384   24007794.3684
 -11822201.99348  -9112389.99146  21043963.9354   21043971.0734
  15982773.34147  12838289.19545  23914806.5174   23914810.9634
   2909927.74548   2431343.89846  22638309.2774   22638315.1424
 02  8  5  3 25  0.0010000  0  9G 3G28G31G11G 8G 2G27G 1G13
  10910904.17048   8660781.76846  23111713.2404   23111714.2204
  -3079722.08447  -2392157.85045  24724685.2504   24724690.4514
  -8607560.96048  -6691595.78447  20375964.2414   20375966.6144
  -4541109.87747  -3527933.57446  23281951.9044   23281955.0964
  -7277085.24748  -5660240.22546  22552020.9844   22552023.8804
  21800254.87747  17152750.54745  24024808.0204   24024817.9354
 -11837612.12348  -9124397.90046  21041032.3014   21041038.9984
  16123064.00847  12947606.63345  23941501.3624   23941506.6104
   3027090.77848   2522639.72346  22660605.3364   22660610.8344
 02  8  5  3 25 30.0010000  0  9G 3G28G31G11G 8G 2G27G 1G13
  11039653.62548   8761105.95246  23136209.6204   23136214.9124
  -3108888.79047  -2414885.10645  24719134.0094   24719140.4754
  -8536748.07249  -6636416.97847  20389437.5894   20389441.9034
  -4590934.01247  -3566757.44745  23272468.6394   23272474.1894
  -7331285.70748  -5702474.29546  22541706.8624   22541711.0544
  21889728.27647  17222469.98745  24041836.0344   24041844.4574
 -11852706.35848  -9136159.64647  21038161.3104   21038166.8854
  16263349.67247  13056920.11145  23968195.6694   23968202.4034
   3144505.14648   2614131.41246  22682948.7354   22682954.3684
 02  8  5  3 26  0.0010000  0  9G 3G28G31G11G 8G 2G27G 1G13
  11168591.23448   8861576.78846  23160741.4884   23160749.6414
  -3138002.57447  -2437571.11245  24713597.2254   24713601.3494
  -8465416.06549  -6580833.50847  20403012.1614   20403015.9904
  -4640581.47647  -3605443.81645  23263023.0924   23263026.9904
  -7385293.80248  -5744558.50646  22531426.2654   22531432.8184
  21979287.57447  17292256.35245  24058880.7414   24058886.8044
 -11867408.42148  -9147615.78347  21035366.2284   21035368.9984
  16403701.36047  13166285.03345  23994901.9844   23994910.9184
   3262241.62248   2705874.08746  22705353.2824   22705359.9714
 02  8  5  3 26 30.0010000  0  9G 3G28G31G11G 8G 2G27G 1G13
  11297709.47248   8962188.38146  23185313.7084   23185320.9784
  -3167068.93447  -2460220.11345  24708065.8364   24708069.0334
  -8393571.93449  -6524851.15747  20416683.6884   20416687.5234
  -4690054.82848  -3643994.32946  23253608.2824   23253613.4804
  -7439112.48548  -5786495.11746  22521185.3834   22521190.1544
  22068928.24447  17362106.13245  24075941.5074   24075945.7584
 -11881721.07549  -9158768.46147  21032642.8124   21032645.3654
  16544110.90047  13275695.02045  24021619.9064   24021630.9944
   3380292.16348   2797861.49846  22727817.8564   22727823.1094
 02  8  5  3 27  0.0010000  0  9G 3G28G31G11G 8G 2G27G 1G13
  11426980.62448   9062919.08246  23209919.3034   23209919.8684
  -3196113.66347  -2482852.31445  24702535.2904   24702541.5864
  -8321243.52549  -6468491.26947  20430446.6074   20430451.0934
  -4739376.56547  -3682426.71445  23244222.3084   23244226.1274
  -7492764.79648  -5828302.07346  22510977.8904   22510981.2954
  22158625.02547  17431999.65045  24093011.3414   24093015.0754
 -11895667.58849  -9169635.85147  21029988.9674   21029991.4794
  16684549.63147  13385127.76945  24048348.0024   24048356.9974
   3498627.77048   2890071.04046  22750336.3114   22750342.4684
 02  8  5  3 27 30.0010000  0  9G 3G28G31G11G 8G 2G27G 1G13
  11556439.57448   9163796.09546  23234550.9094   23234556.1314
  -3225100.02847  -2505439.05445  24697020.8594   24697026.3924
  -8248395.29949  -6411726.49147  20444310.9424   20444313.5114
  -4788506.28347  -3720709.59945  23234871.8734   23234878.1374
  -7546211.08948  -5869948.48646  22500806.7284   22500812.2444
  22248415.46247  17501966.14745  24110098.1564   24110100.2874
 -11909208.53249  -9180187.19447  21027412.4124   21027414.7074
  16825051.80847  13494609.99845  24075087.5514   24075093.2564
   3617282.08848   2982528.91446  22772916.1104   22772920.8334
 02  8  5  3 28  0.0010000  0  9G 3G28G31G11G 8G 2G27G 1G13
  11686097.73348   9264828.40246  23259219.5724   23259228.8824
  -3254014.05147  -2527969.36345  24691520.5904   24691523.3334
  -8175015.57549  -6354547.42147  20458272.4744   20458277.1354
  -4837427.82948  -3758830.17446  23225564.6494   23225567.5694
  -7599434.90848  -5911421.55646  22490678.7624   22490683.0674
  22338313.90447  17572016.79545  24127203.6844   24127208.8794
 -11922327.69048  -9190409.88347  21024914.3724   21024918.4284
  16965628.37747  13604150.18045  24101840.2734   24101841.8594
   3736266.84148   3075244.27546  22795558.6934   22795562.0174
 02  8  5  3 28 30.0010000  0  9G 3G28G31G11G 8G 2G27G 1G13
  11815911.74548   9365982.15046  23283924.6084   23283932.5274
  -3282897.07347  -2550475.54545  24686020.8834   24686026.9934
  -8101147.16348  -6296987.64847  20472332.3244   20472333.8544
  -4886178.79848  -3796817.78246  23216286.7184   23216291.7174
  -7652474.99548  -5952751.45546  22480584.0074   22480589.2594
  22428279.92047  17642120.08945  24144320.8924   24144329.1854
 -11935063.38648  -9200333.80846  21022488.7914   21022494.8374
  17106235.51147  13713714.17345  24128597.2644   24128599.1884
   3855537.60848   3168182.50446  22818255.7264   22818260.1794
 02  8  5  3 29  0.0010000  0  9G 3G28G31G11G 8G 2G27G 1G13
  11945849.19748   9467232.04446  23308656.5234   23308657.6334
  -3311779.89147  -2572981.59345  24680524.4454   24680530.9014
  -8026822.56149  -6239072.35747  20486472.3014   20486477.0894
  -4934786.43247  -3834693.78545  23207037.4474   23207040.6274
  -7705359.07548  -5993959.79546  22470519.3524   22470525.6894
  22518283.66247  17712252.78345  24161446.3414   24161456.5254
 -11947443.89748  -9209980.95646  21020131.2944   21020139.1014
  17246840.08447  13823276.15445  24155352.5514   24155356.4214
   3975060.87248   3261317.47846  22841001.0714   22841004.5904
 02  8  5  3 29 30.0010000  0  9G 3G28G31G11G 8G 2G27G 1G13
  12075863.13348   9568541.53346  23333395.1594   23333398.7774
  -3340707.17447  -2595522.26445  24675023.8064   24675025.4974
  -7952088.00248  -6180837.61147  20500697.6294   20500699.0034
  -4983292.43147  -3872490.62746  23197806.0774   23197809.9674
  -7758129.12748  -6035079.30646  22460479.4904   22460485.1034
  22608281.14147  17782380.64345  24178571.4984   24178582.0004
 -11959511.30948  -9219384.15346  21017834.2014   21017842.4924
  17387394.94547  13932799.37745  24182097.9984   24182103.7874
   4094789.01148   3354612.09146  22863783.8334   22863788.4164
 02  8  5  3 30  0.0010000  0  9G 3G28G31G11G 8G 2G27G 1G13
  12206043.49548   9669980.71746  23358162.8924   23358171.7144
  -3369587.22747  -2618026.11445  24669525.9484   24669530.5684
  -7876853.73849  -6122213.54447  20515010.3994   20515015.4514
  -5031602.14248  -3910134.36946  23188613.6904   23188617.5624
  -7810690.74248  -6076036.36146  22450478.7944   22450482.9364
  22698364.57347  17852575.48445  24195713.4844   24195724.5284
 -11971171.22548  -9228469.81746  21015618.9014   21015623.5894
  17527989.05747  14042353.16245  24208846.6284   24208857.1664
   4214810.86948   3448135.59846  22886624.9514   22886628.5884
 02  8  5  3 30 30.0010000  0  9G 3G28G31G11G 8G 2G27G 1G13
  12336366.22348   9771530.87646  23382963.7984   23382969.9394
  -3398441.41247  -2640509.86345  24664033.3134   24664040.1364
  -7801143.22149  -6063218.27747  20529420.4484   20529423.1254
  -5079734.04047  -3947639.63045  23179452.8084   23179459.4394
  -7863063.08148  -6116845.93646  22440511.8254   22440514.8504
  22788513.12447  17922821.00645  24212870.2444   24212879.2204
 -11982442.92748  -9237252.94847  21013475.2794   21013478.5254
  17668598.06947  14151918.52345  24235603.5324   24235613.6874
   4335102.56848   3541869.34046  22909515.5774   22909518.0354
 02  8  5  3 31  0.0010000  0  9G 3G28G31G11G 8G 2G27G 1G13
  12466826.59548   9873188.25846  23407794.7214   23407797.7704
  -3427273.03847  -2662976.00645  24658550.1064   24658552.8274
  -7724961.34449  -6003855.85547  20543914.6334   20543920.0394
  -5127687.64247  -3985006.13445  23170330.4864   23170332.5674
  -7915246.33548  -6157508.19146  22430580.0804   22430584.2054
  22878724.38847  17993115.43745  24230039.0014   24230045.6824
 -11993326.69148  -9245733.77747  21011404.7944   21011407.2454
  17809216.29647  14261491.10845  24262364.0394   24262372.9004
   4455658.11048   3635808.68546  22932457.2614   22932458.2414
 02  8  5  3 31 30.0010000  0  9G 3G28G31G11G 8G 2G27G 1G13
  12597394.45348   9974929.35946  23432640.8614   23432642.7304
  -3456110.21347  -2685446.44345  24653060.4884   24653065.2654
  -7648337.96749  -5944149.24447  20558496.9734   20558500.8504
  -5175488.28048  -4022253.24146  23161232.2954   23161235.8084
  -7967265.47848  -6198042.55646  22420681.9764   22420688.0674
  22968971.13147  18063437.52145  24247212.8944   24247218.8884
 -12003848.09549  -9253932.24747  21009403.1164   21009404.8164
  17949813.21347  14371047.08545  24289122.7764   24289126.6144
   4576446.35348   3729929.37246  22955442.9814   22955443.8224
 02  8  5  3 32  0.0010000  0  9G 3G28G31G11G 8G 2G27G 1G13
  12728161.37948  10076825.62546  23457518.4074   23457527.5394
  -3484859.05547  -2707848.08745  24647587.6374   24647595.3334
  -7571181.01249  -5884027.03747  20573179.0974   20573183.3774
  -5223038.85848  -4059305.48046  23152183.8464   23152187.3844
  -8019024.38048  -6238374.16246  22410831.6184   22410838.2924
  23059347.96447  18133860.97245  24264413.2014   24264417.4304
 -12013910.74349  -9261773.23547  21007488.3514   21007490.1234
  18090479.92147  14480657.54345  24315893.8774   24315895.2054
   4697557.61748   3824301.74646  22978490.2714   22978490.7924
 02  8  5  3 32 30.0010000  0  9G 3G28G31G11G 8G 2G27G 1G13
  12859127.31648  10178876.96146  23482441.3594   23482448.9874
  -3513517.78247  -2730179.48645  24642138.2124   24642141.8034
  -7493490.50249  -5823488.88247  20587962.6004   20587967.4834
  -5270333.77247  -4096158.65545  23143181.1454   23143190.5404
  -8070517.88248  -6278498.95346  22401033.7924   22401037.8734
  23149857.49747  18204387.81245  24281636.7374   24281640.3654
 -12023510.17548  -9269253.28447  21005661.2714   21005663.4824
  18231215.66247  14590321.77145  24342673.9024   24342677.7564
   4818991.59948   3918925.59746  23001597.3754   23001599.2394
 02  8  5  3 33  0.0010000  0  9G 3G28G31G11G 8G 2G27G 1G13
  12990188.67848  10281002.62846  23507387.3944   23507389.4884
  -3542188.08347  -2752519.86945  24636681.8294   24636686.2304
  -7415369.87249  -5762615.75647  20602830.0334   20602833.2194
  -5317472.29248  -4132889.96146  23134214.7384   23134217.3014
  -8121845.40548  -6318494.36446  22391268.4644   22391269.9934
  23240398.70647  18274939.32845  24298866.3734   24298868.7784
 -12032745.66548  -9276449.75247  21003902.2804   21003906.0074
  18371916.00647  14699958.41445  24369447.5314   24369452.3174
   4940643.53648   4013719.28846  23024747.4944   23024749.1234
 02  8  5  3 33 30.0010000  0  9G 3G28G31G11G 8G 2G27G 1G13
  13121349.31648  10383205.64646  23532346.2074   23532349.0284
  -3570864.16447  -2774864.78145  24631221.0794   24631227.3594
  -7336815.53249  -5701404.50247  20617776.3144   20617781.3554
  -5364445.06348  -4169491.97946  23125274.5414   23125278.4154
  -8172998.28948  -6358353.70446  22381533.0224   22381538.1494
  23330978.05147  18345520.56245  24316102.6504   24316107.2234
 -12041608.73048  -9283356.03546  21002214.0294   21002219.8374
  18512584.18347  14809569.97145  24396215.9294   24396220.2884
   5062516.76248   4108685.39846  23047939.6474   23047941.5514
 02  8  5  3 34  0.0010000  0  9G 3G28G31G11G 8G 2G27G 1G13
  13252660.39248  10485525.91946  23557327.6174   23557336.2474
  -3599492.44547  -2797172.49445  24625776.9044   24625780.6064
  -7257775.50148  -5639814.92347  20632820.4624   20632822.2214
  -5411195.53147  -4205920.78845  23116379.1744   23116382.8904
  -8223920.03948  -6398032.98646  22371840.3614   22371847.5074
  23421649.51547  18416173.56945  24333354.5464   24333361.5194
 -12050043.56348  -9289928.64546  21000607.2534   21000614.5494
  18653271.20147  14919196.16645  24422982.6064   24422991.3654
   5184661.39548   4203863.00446  23071183.3264   23071184.4934
 02  8  5  3 34 30.0010000  0  9G 3G28G31G11G 8G 2G27G 1G13
  13384129.59348  10587969.45246  23582346.1574   23582354.5024
  -3628063.52347  -2819435.60445  24620340.2924   24620344.1044
  -7178242.53949  -5577841.14847  20647951.2504   20647956.8284
  -5457710.84247  -4242166.57045  23107527.3664   23107531.7684
  -8274598.76748  -6437522.89646  22362198.4664   22362202.9154
  23512423.43547  18486906.42245  24350626.9804   24350635.2454
 -12058038.06148  -9296158.16346  20999084.9364   20999093.1304
  18793984.01347  15028842.46045  24449756.9034   24449768.2424
   5307084.13048   4299257.30246  23094479.8054   23094480.5864
 02  8  5  3 35  0.0010000  0  9G 3G28G31G11G 8G 2G27G 1G13
  13515708.35148  10690498.27946  23607388.7544   23607393.3764
  -3656623.93147  -2841690.42745  24614901.6994   24614907.8024
  -7098264.80948  -5515520.84047  20663175.2044   20663176.2674
  -5504034.66648  -4278262.91746  23098711.4454   23098715.9934
  -8325077.88148  -6476857.22446  22352592.0644   22352596.5774
  23603254.12447  18557683.52945  24367910.1474   24367919.8504
 -12065636.15948  -9302078.76746  20997641.4604   20997646.9244
  18934673.23947  15138470.32945  24476532.0384   24476542.0004
   5429735.75148   4394829.95846  23117819.0164   23117820.4864
 02  8  5  3 35 30.0010000  0  9G 3G28G31G11G 8G 2G27G 1G13
  13647391.48547  10793108.43146  23632450.0654   23632450.6054
  -3685176.99847  -2863939.54245  24609470.5644   24609475.2514
  -7017847.79249  -5452858.24747  20678473.3374   20678478.8204
  -5550167.21747  -4314210.22546  23089932.1214   23089936.1914
  -8375358.13048  -6516036.61246  22343023.1154   22343029.3394
  23694138.80248  18628502.69046  24385204.5784   24385215.1754
 -12072838.81948  -9307691.22846  20996272.4104   20996276.5554
  19075333.04647  15248075.34245  24503303.6254   24503308.6424
   5552609.73148   4490575.89446  23141201.0474   23141201.8354
 02  8  5  3 36  0.0010000  0  9G 3G28G31G11G 8G 2G27G 1G13
  13779198.29548  10895814.95146  23657525.4894   23657533.8304
  -3713701.23847  -2886166.14545  24604043.8064   24604047.4754
  -6936971.81148  -5389837.95847  20693867.6874   20693868.8504
  -5596083.61647  -4349989.22345  23081194.2924   23081199.4354
  -8425415.13648  -6555042.05746  22333499.8654   22333504.2924
  23785099.60648  18699381.19146  24402514.5494   24402522.9144
 -12079622.05348  -9312976.85847  20994982.7794   20994985.8634
  19215982.42247  15357672.31345  24530069.3754   24530072.8204
   5675724.75248   4586509.65546  23164628.9814   23164629.5914
 02  8  5  3 36 30.0010000  0  9G 3G28G31G11G 8G 2G27G 1G13
  13911142.10948  10998628.31346  23682631.9494   23682641.8284
  -3742181.43147  -2908358.45945  24598621.1264   24598627.2174
  -6855623.66749  -5326449.85147  20709343.2774   20709348.8094
  -5641765.41748  -4385585.38646  23072502.2644   23072507.1374
  -8475231.09948  -6593859.65346  22324021.1544   22324023.5134
  23876152.66348  18770331.58746  24419841.7124   24419850.2954
 -12085968.22449  -9317921.91147  20993775.7474   20993777.6944
  19356633.98447  15467270.98945  24556833.9884   24556837.0694
   5799093.23648   4682640.90046  23188106.1504   23188106.9124
 02  8  5  3 37  0.0010000  0  9G 3G28G31G11G 8G 2G27G 1G13
  14043212.03848  11101539.90846  23707768.2674   23707773.9554
  -3770626.69747  -2930523.56845  24593210.8074   24593213.7384
  -6773814.35448  -5262702.26547  20724914.0054   20724916.7434
  -5687219.13448  -4421003.72246  23063851.5834   23063856.6614
  -8524812.03748  -6632494.11046  22314582.9734   22314587.7494
  23967289.31648  18841347.08346  24437185.1334   24437193.6414
 -12091884.09749  -9322531.65847  20992650.4184   20992652.4994
  19497276.04447  15576862.22945  24583596.0274   24583599.4814
   5922703.29348   4778960.38446  23211629.0484   23211628.4634
 02  8  5  3 37 30.0010000  0  9G 3G28G31G11G 8G 2G27G 1G13
  14175424.72648  11204562.67546  23732931.7524   23732933.3954
  -3799018.17647  -2952646.70345  24587808.5554   24587812.4684
  -6691526.92849  -5198582.27947  20740570.7484   20740575.2584
  -5732422.32847  -4456226.90945  23055253.2424   23055253.2384
  -8574136.41548  -6670928.67246  22305197.0324   22305202.8264
  24058529.22248  18912443.01846  24454548.2414   24454556.1554
 -12097348.01949  -9326789.24047  20991610.3854   20991612.5334
  19637924.87646  15686458.73244  24610355.8824   24610364.3474
   6046570.84448   4875480.53046  23235199.6604   23235200.9614
 02  8  5  3 38  0.0010000  0  9G 3G28G31G11G 8G 2G27G 1G13
  14307754.24848  11307676.50046  23758108.2044   23758114.6644
  -3827380.15847  -2974746.89445  24582407.0164   24582414.5474
  -6608787.85749  -5134110.18447  20756316.3394   20756319.9494
  -5777396.04647  -4491271.41145  23046692.5034   23046696.1504
  -8623225.77648  -6709180.11246  22295857.1384   22295862.7394
  24149848.87348  18983601.10246  24471926.1054   24471934.1094
 -12102382.08149  -9330711.86447  20990652.5544   20990654.8844
  19778553.46846  15796039.43344  24637111.5184   24637125.7864
   6170668.43948   4972179.93346  23258813.8194   23258815.2114
 02  8  5  3 38 30.0010000  0  9G 3G28G31G11G 8G 2G27G 1G13
  14440184.35548  11410868.80546  23783305.6064   23783316.5724
  -3855726.87547  -2996835.20545  24577017.2884   24577019.4524
  -6525613.07149  -5069298.75747  20772144.3154   20772148.0254
  -5822151.59248  -4526145.78046  23038175.4114   23038180.2864
  -8672091.54448  -6747257.31446  22286557.6324   22286561.8504
  24241234.95348  19054810.95846  24489318.1014   24489324.1354
 -12106998.07249  -9334308.72647  20989773.8644   20989776.7574
  19919145.22446  15905591.38244  24663870.5824   24663877.7624
   6294979.01648   5069045.30046  23282469.2084   23282470.2384
 02  8  5  3 39  0.0010000  0  9G 3G28G31G11G 8G 2G27G 1G13
  14572712.67348  11514137.56846  23808526.8484   23808534.5394
  -3884058.63947  -3018911.81245  24571626.4424   24571628.7244
  -6442005.16549  -5004149.65447  20788053.4304   20788057.8544
  -5866686.14548  -4560847.94146  23029701.9514   23029705.1904
  -8720731.01648  -6785158.16046  22277302.8994   22277305.0634
  24332687.68248  19126072.70446  24506721.4294   24506727.5584
 -12111193.72348  -9337578.04747  20988974.4984   20988978.0834
  20059697.14447  16015112.33845  24690623.8344   24690624.9244
   6419499.36848   5166074.12246  23306165.0004   23306166.0734
 02  8  5  3 39 30.0010000  0  9G 3G28G31G11G 8G 2G27G 1G13
  14705381.20347  11617515.60246  23833778.8964   23833779.5124
  -3912331.40047  -3040942.48245  24566241.3964   24566249.0754
  -6357921.91249  -4938630.31147  20804056.0314   20804058.2294
  -5910952.47947  -4595341.19145  23021276.9994   23021280.2094
  -8769097.69348  -6822846.42546  22268098.7674   22268102.2624
  24424251.70748  19197421.22246  24524146.4764   24524150.9404
 -12114922.79448  -9340483.81147  20988263.3984   20988268.4894
  20200250.61647  16124634.50045  24717370.6574   24717372.5914
   6544270.66248   5263298.46746  23329908.2304   23329908.1124
 02  8  5  3 40  0.0010000  0  9G 3G28G31G11G 8G 2G27G 1G13
  14838119.76147  11720948.14446  23859036.5904   23859040.1664
  -3940613.24847  -3062980.25945  24560863.4054   24560866.1294
  -6273433.88849  -4872795.43547  20820130.8234   20820135.7194
  -5955016.02248  -4629676.40146  23012891.8164   23012896.9574
  -8817256.63348  -6860372.84846  22258932.3754   22258939.3574
  24515859.56647  19268803.86346  24541578.2624   24541583.2114
 -12118250.87748  -9343077.12146  20987628.1264   20987635.0574
  20340734.93147  16234102.74445  24744101.7244   24744105.4984
   6669221.75048   5360662.91546  23353685.8214   23353686.6774
 02  8  5  3 40 30.0010000  0  9G 3G28G31G11G 8G 2G27G 1G13
  14970960.57248  11824460.42646  23884309.9804   23884318.4654
  -3968870.12547  -3084998.52745  24555485.7974   24555489.1904
  -6188508.55748  -4806619.89947  20836295.7544   20836296.5614
  -5998838.99548  -4663824.07146  23004553.7344   23004557.3644
  -8865170.93648  -6897708.66846  22249814.2254   22249820.3754
  24607546.07848  19340247.78946  24559025.9504   24559031.5764
 -12121141.55148  -9345329.61146  20987077.2854   20987084.8104
  20481181.85147  16343541.81145  24770825.0984   24770831.3054
   6794383.82448   5458191.75546  23377503.8924   23377503.5274
 02  8  5  3 41  0.0010000  0  9G 3G28G31G11G 8G 2G27G 1G13
  15103915.70548  11928061.83546  23909610.0584   23909620.2744
  -3997088.20947  -3106986.59845  24550113.5564   24550119.8574
  -6103134.53649  -4740094.67647  20852537.5184   20852542.6194
  -6042404.73047  -4697771.30645  22996262.6684   22996266.6744
  -8912824.19648  -6934841.03146  22240748.8964   22240751.7294
  24699325.69948  19411764.28746  24576491.0314   24576495.7504
 -12123578.87848  -9347228.83846  20986614.0434   20986621.3084
  20621602.47746  16452960.40044  24797543.0834   24797553.5874
   6919768.13648   5555893.76646  23401363.7614   23401364.5744
 02  8  5  3 41 30.0010000  0  9G 3G28G31G11G 8G 2G27G 1G13
  15236967.28448  12031738.32046  23934935.1324   23934938.2844
  -4025283.50947  -3128956.90445  24544751.7634   24544753.6934
  -6017329.56248  -4673233.65847  20868870.4904   20868871.3204
  -6085725.98547  -4731528.19945  22988017.8434   22988022.7254
  -8960229.40348  -6971780.10346  22231728.0124   22231731.3714
  24791183.37348  19483341.61046  24593970.9584   24593976.1724
 -12125576.05648  -9348785.08946  20986234.7374   20986241.0544
  20761978.50946  16562344.29744  24824254.2674   24824265.3234
   7045355.02048   5653753.63046  23425261.8904   23425262.8274
 02  8  5  3 42  0.0010000  0  9G 3G28G31G11G 8G 2G27G 1G13
  15370158.27547  12135523.43745  23960282.0804   23960283.1554
  -4053411.08147  -3150874.39745  24539396.8024   24539402.6584
  -5931051.13749  -4606003.75047  20885283.8344   20885289.1604
  -6128755.34548  -4765057.48746  22979830.7634   22979835.2134
  -9007338.96148  -7008488.82446  22222762.4774   22222768.2464
  24883164.26548  19555014.95446  24611474.4924   24611479.8024
 -12127086.20348  -9349961.82646  20985948.7614   20985953.4604
  20902352.18746  16671726.35244  24850971.8344   24850974.6234
   7171186.98848   5751804.46046  23449206.0554   23449207.9894
 02  8  5  3 42 30.0010000  0  9G 3G28G31G11G 8G 2G27G 1G13
  15503400.65447  12239348.59246  23985631.6144   23985638.9064
  -4081557.02347  -3172806.27345  24534038.9914   24534045.3944
  -5844387.13348  -4538473.32347  20901779.6314   20901781.1144
  -6171575.27848  -4798423.56846  22971682.6124   22971686.7654
  -9054236.01948  -7045031.94846  22213838.2084   22213842.6104
  24975183.25548  19626717.99146  24628984.4194   24628990.2694
 -12128192.88248  -9350824.16247  20985739.1284   20985743.2924
  21042634.82346  16781037.52845  24877667.4594   24877671.0414
   7297174.69248   5849976.65346  23473180.4704   23473182.6534
 02  8  5  3 43  0.0010000  0  9G 3G28G31G11G 8G 2G27G 1G13
  15636747.59748  12343255.26746  24011004.3294   24011013.3954
  -4109666.38947  -3194709.62245  24528694.1904   24528696.4204
  -5757284.82949  -4470601.45447  20918350.4554   20918356.0044
  -6214127.51447  -4831581.15945  22963583.8584   22963587.6694
  -9100862.84848  -7081364.50746  22204963.7784   22204969.1944
  25067296.11947  19698494.17446  24646511.1804   24646518.8734
 -12128838.81848  -9351327.47947  20985616.9754   20985620.1664
  21182878.94747  16890318.69345  24904358.2884   24904359.2054
   7423369.97748   5948310.60246  23497194.3574   23497196.0954
 02  8  5  3 43 30.0020000  0  9G 3G28G31G11G 8G 2G27G 1G13
  15770211.43647  12447253.02346  24036405.6904   24036412.4684
  -4137730.43747  -3216577.62945  24523349.8964   24523356.4764
  -5669733.61349  -4402379.65647  20935013.1344   20935016.7444
  -6256401.29848  -4864521.78846  22955540.5864   22955543.3794
  -9147208.41448  -7117477.91746  22196144.0664   22196151.2454
  25159516.22647  19770353.94546  24664060.4264   24664067.7114
 -12129012.15448  -9351462.53047  20985584.7604   20985587.4704
  21323096.41647  16999579.06645  24931037.9404   24931041.1154
   7549784.39148   6046815.29846  23521250.7114   23521252.5314
 02  8  5  3 44  0.0020000  0  9G 3G28G31G11G 8G 2G27G 1G13
  15903792.70747  12551342.32045  24061828.7794   24061831.2384
  -4165735.73047  -3238399.91545  24518021.6994   24518027.1874
  -5581729.96849  -4333805.47747  20951758.1834   20951763.0654
  -6298378.90548  -4897231.49746  22947553.0364   22947556.7514
  -9193255.40148  -7153358.67246  22187383.9794   22187389.0834
  25251849.67647  19842302.00645  24681630.3024   24681638.2964
 -12128699.00449  -9351218.50647  20985644.5864   20985646.9324
  21463286.78746  17108818.35544  24957708.7384   24957720.2284
   7676418.01148   6145490.79446  23545347.4694   23545350.0064
 02  8  5  3 44 30.0020000  0  9G 3G28G31G11G 8G 2G27G 1G13
  16037515.32347  12655541.66745  24087274.2654   24087278.0074
  -4193661.87947  -3260160.45845  24512710.9894   24512712.6704
  -5493251.93749  -4264861.46147  20968595.6414   20968599.7104
  -6340037.28747  -4929692.51446  22939623.9254   22939629.4024
  -9238981.31648  -7188989.21246  22178683.8164   22178686.1664
  25344321.44647  19914357.87445  24699226.1204   24699234.8034
 -12127875.67949  -9350576.93747  20985801.2894   20985803.3114
  21603473.62346  17218054.72244  24984388.3934   24984396.1524
   7803293.00148   6244354.38246  23569491.3084   23569493.2814
 02  8  5  3 45  0.0020000  0  9G 3G28G31G11G 8G 2G27G 1G13
  16171264.36347  12759761.66145  24112720.1514   24112728.7384
  -4221621.84347  -3281947.35645  24507384.9264   24507393.2694
  -5404414.32249  -4195637.43147  20985501.5984   20985505.2244
  -6381486.34947  -4961990.53745  22931738.7884   22931739.4784
  -9284495.96748  -7224455.12246  22170021.9354   22170024.0094
  25436819.09147  19986433.86245  24716827.5994   24716836.8394
 -12126652.99649  -9349624.17747  20986034.0534   20986036.1564
  21743541.33047  17327198.34345  25011044.8024   25011051.4404
   7930293.58748   6343315.84546  23593656.7764   23593660.8214
 02  8  5  3 45 30.0020000  0  9G 3G28G31G11G 8G 2G27G 1G13
  16305112.96947  12864059.28845  24138191.5314   24138199.1064
  -4249540.85147  -3303702.38645  24502074.6774   24502078.8304
  -5315144.78649  -4126076.68647  21002487.0744   21002493.0104
  -6422648.68348  -4994064.94046  22923904.3564   22923908.0244
  -9329722.00548  -7259696.14846  22161415.2014   22161418.9564
  25529418.17247  20058588.94745  24734448.4304   24734457.3024
 -12124953.99749  -9348300.26447  20986357.5354   20986359.3614
  21883562.22247  17436305.48245  25037692.3314   25037696.9354
   8057491.34948   6442430.94746  23617861.6804   23617865.9434
 02  8  5  3 46  0.0020000  0  9G 3G28G31G11G 8G 2G27G 1G13
  16439054.97847  12968429.62245  24163685.5114   24163689.5974
  -4277422.86247  -3325428.55145  24496771.7934   24496772.7774
  -5225449.28849  -4056184.15947  21019559.5704   21019561.3624
  -6463524.98148  -5025916.48046  22916124.3974   22916130.6104
  -9374660.48648  -7294713.12046  22152860.8154   22152868.7114
  25622115.31047  20130820.41545  24752088.2124   24752097.0124
 -12122780.30748  -9346606.46447  20986770.6854   20986772.9874
  22023529.66247  17545370.95545  25064326.7084   25064330.0284
   8184879.74348   6541694.60046  23642102.6434   23642106.9184
 02  8  5  3 46 30.0020000  0  9G 3G28G31G11G 8G 2G27G 1G13
  16573018.74347  13072816.90245  24189179.3854   24189182.3234
  -4305337.89047  -3347180.45645  24491453.8204   24491461.3134
  -5135400.16349  -3986015.98047  21036691.7364   21036697.0664
  -6504182.06447  -5057597.32445  22908389.9514   22908393.0664
  -9419378.58048  -7329558.39546  22144350.6164   22144357.8794
  25714841.12947  20203074.23145  24769733.6934   24769742.8444
 -12120199.79548  -9344595.65947  20987261.5864   20987263.7744
  22163371.21446  17654338.29545  25090935.9114   25090940.3134
   8312385.53748   6641049.73546  23666364.9714   23666371.5774
 02  8  5  3 47  0.0020000  0  9G 3G28G31G11G 8G 2G27G 1G13
  16707016.07847  13177230.36645  24214674.2334   24214679.6214
  -4333272.35747  -3368947.52545  24486143.1284   24486145.6794
  -5044985.78349  -3915563.24047  21053901.2584   21053902.2944
  -6544603.67048  -5089094.64446  22900696.7664   22900699.6404
  -9463859.99248  -7364219.21246  22135888.7174   22135892.3934
  25807610.03847  20275361.66445  24787387.4334   24787397.0214
 -12117196.68348  -9342255.56047  20987832.4954   20987835.0864
  22303098.08746  17763216.22444  25117519.3574   25117529.4604
   8440019.39347   6740504.66446  23690652.6564   23690660.4024
 02  8  5  3 47 30.0020000  0  8G 3G28G31G11G 8G 2G27G13
  16841129.86047  13281734.58246  24240190.4554   24240200.6784
  -4361141.02647  -3390663.27545  24480836.6894   24480841.9534
  -4954123.43449  -3844761.42747  21071186.9864   21071192.3554
  -6584701.47748  -5120339.52346  22893065.8904   22893070.4284
  -9508016.73048  -7398627.02547  22127488.2134   22127491.1924
  25900507.74147  20347749.42945  24805064.3124   24805074.1304
 -12113683.58848  -9339518.07246  20988500.7394   20988503.8904
   8567863.64847   6840123.53645  23714979.2404   23714986.0694
 02  8  5  3 48  0.0020000  0  8G 3G28G31G11G 8G 2G27G13
  16975373.82347  13386340.22345  24265738.0214   24265746.6734
  -4388928.68347  -3412315.95145  24475547.0134   24475553.6964
  -4862799.87848  -3773600.21247  21088570.1414   21088570.7404
  -6624457.19548  -5151317.92046  22885501.3704   22885505.2824
  -9551830.71148  -7432767.75147  22119151.4474   22119153.8114
  25993549.92347  20420249.75145  24822769.3684   24822779.9034
 -12109643.11548  -9336369.65046  20989268.4434   20989272.4094
   8695930.25647   6939915.66445  23739349.8194   23739357.7354
 02  8  5  3 48 30.0020000  0  9G 3G28G31G11G 8G 2G27G 1G13
  17109716.24647  13491022.56045  24291309.6734   24291311.0664
  -4416665.28847  -3433928.81745  24470275.3464   24470276.7374
  -4771047.23449  -3702104.69147  21106025.0694   21106030.4094
  -6663897.49747  -5182050.66245  22877996.1304   22877999.5354
  -9595328.97448  -7466662.46947  22110873.9034   22110874.7884
  26086707.48247  20492839.99645  24840497.3864   24840506.2444
 -12105102.97148  -9332831.87446  20990130.8954   20990136.3344
    149767.82754     95100.63843
   8824186.53447   7039855.55946  23763756.8504   23763763.6214
 02  8  5  3 49  0.0020000  0  8G 3G28G31G11G 8G 2G27G13
  17244166.85347  13595789.23345  24316892.2054   24316896.7554
  -4444338.85547  -3455492.54345  24465003.8494   24465009.5864
  -4678855.98348  -3630267.31247  21123572.3974   21123574.1244
  -6703008.08548  -5212526.35146  22870553.7014   22870555.8444
  -9638496.95848  -7500299.81846  22102657.1584   22102660.1154
  26179992.95947  20565529.90345  24858249.6974   24858258.9214
 -12100049.33748  -9328893.98346  20991091.2254   20991098.0754
   8952641.46448   7139950.25346  23788200.8124   23788207.2534
 02  8  5  3 49 30.0020000  0  8G 3G28G31G11G 8G 2G27G13
  17378684.72347  13700608.27245  24342484.4314   24342493.0754
  -4471988.81147  -3477037.94645  24459743.2264   24459748.0664
  -4586267.55849  -3558120.56047  21141187.7894   21141193.2274
  -6741825.08948  -5242773.21546  22863167.0974   22863170.4884
  -9681371.12148  -7533708.23646  22094495.8684   22094502.8314
  26273367.64447  20638289.34945  24876017.0094   24876028.3954
 -12094519.18348  -9324584.77846  20992142.4074   20992150.4134
   9081252.29647   7240166.43546  23812675.0114   23812682.6264
 02  8  5  3 50  0.0020000  0  8G 3G28G31G11G 8G 2G27G13
  17513269.67247  13805479.68545  24368094.8654   24368104.8444
  -4499613.43947  -3498563.54446  24454490.0174   24454491.4094
  -4493282.61249  -3485664.69247  21158884.0124   21158887.4454
  -6780343.59847  -5272787.58045  22855837.0824   22855841.8544
  -9723946.88948  -7566884.16846  22086392.3524   22086400.9614
  26366833.99847  20711120.19145  24893803.4964   24893812.5834
 -12088509.03248  -9319901.55246  20993285.6754   20993294.4644
   9210018.16147   7340503.43146  23837179.1704   23837184.1314
 02  8  5  3 50 30.0020000  0  8G 3G28G31G11G 8G 2G27G13
  17647921.50047  13910403.17845  24393721.4484   24393726.7464
  -4527210.66147  -3520067.82745  24449231.6994   24449238.6994
  -4399901.42049  -3412900.21947  21176653.7754   21176657.4704
  -6818559.13448  -5302565.99146  22848565.0464   22848567.3584
  -9766219.73048  -7599824.04946  22078349.7324   22078355.8654
  26460394.30947  20784024.31045  24911606.2824   24911617.6374
 -12082014.75548  -9314841.08746  20994521.6504   20994529.8214
   9338937.88247   7440960.28845  23861712.1194   23861716.0794
 02  8  5  3 51  0.0020000  0  8G 3G28G31G11G 8G 2G27G13
  17782624.52847  14015366.47145  24419360.6024   24419361.1204
  -4554794.82347  -3541561.94245  24443987.4364   24443991.2094
  -4306140.45949  -3339839.65447  21194494.9184   21194499.6594
  -6856482.79248  -5332116.73246  22841348.3044   22841350.8514
  -9808200.87048  -7632536.59647  22070363.4044   22070366.4974
  26554035.22447  20856991.19245  24929427.8124   24929436.1964
 -12075048.43048  -9309412.79546  20995848.2094   20995855.5574
   9467994.09547   7541523.50546  23886272.4584   23886275.2384
 02  8  5  3 51 30.0020000  0  8G 3G28G31G11G 8G 2G27G13
  17917334.72447  14120335.39345  24444992.0824   24444995.6094
  -4582408.51147  -3563079.00645  24438731.2104   24438736.2504
  -4212044.14149  -3266517.93047  21212403.0984   21212405.3284
  -6894154.04348  -5361470.82646  22834179.3054   22834183.6444
  -9849929.81148  -7665052.63047  22062424.1924   22062427.4604
  26647714.94247  20929988.31345  24947254.4404   24947263.9054
 -12067650.48348  -9303648.17246  20997256.3534   20997263.4744
   9597141.43948   7642157.75946  23910849.4734   23910851.8444
 02  8  5  3 52  0.0020000  0  8G 3G28G31G11G 8G 2G27G13
  18052161.54847  14225395.18245  24470644.0084   24470653.2824
  -4609939.99447  -3584532.09645  24433490.7274   24433497.1824
  -4117503.64149  -3192849.95247  21230389.6474   21230395.8874
  -6931458.39547  -5390539.21845  22827080.9914   22827084.8104
  -9891292.53148  -7697283.29247  22054553.2234   22054555.7624
  26741545.39147  21003102.91745  24965109.0294   24965118.6774
 -12059707.33748  -9297458.71046  20998769.1764   20998774.9504
   9726488.20548   7742947.41146  23935463.6174   23935465.5304
 02  8  5  3 52 30.0020000  0  8G 3G28G31G11G 8G 2G27G13
  18187027.25947  14330485.34445  24496306.7334   24496316.8484
  -4637465.27047  -3605980.29345  24428258.3144   24428259.2774
  -4022596.86048  -3118896.67147  21248455.1834   21248456.3444
  -6968469.25148  -5419378.79846  22820037.5674   22820040.0914
  -9932361.94948  -7729285.41247  22046738.2314   22046739.8194
  26835451.27247  21076276.26945  24982978.5544   24982987.9734
 -12051292.88748  -9290901.99446  21000370.7754   21000376.5944
   9855955.77648   7843831.20646  23960101.1104   23960102.6624
 02  8  5  3 53  0.0020000  0  8G 3G28G31G11G 8G 2G27G13
  18321872.83447  14435559.76945  24521972.9034   24521977.0944
  -4665041.56347  -3627468.24545  24423003.3694   24423010.7254
  -3927383.61749  -3044704.51947  21266568.3794   21266574.5174
  -7005240.80948  -5448031.81546  22813039.6234   22813043.9354
  -9973192.66448  -7761101.51847  22038966.6174   22038969.8444
  26929375.94047  21149464.28145  25000851.3804   25000861.8514
 -12042462.67148  -9284021.30346  21002052.2104   21002056.5684
   9985483.94248   7944762.19546  23984749.7494   23984751.9104
 02  8  5  3 53 30.0020000  0  8G 3G28G31G11G 8G 2G27G13
  18456773.82447  14540677.31545  24547646.0314   24547646.9324
  -4692591.45647  -3648935.68645  24417764.9004   24417768.1404
  -3831788.60649  -2970214.89647  21284765.8874   21284765.9984
  -7041692.60748  -5476435.77046  22806105.2984   22806107.7514
 -10013704.35948  -7792669.06746  22031254.9574   22031261.6434
  27023397.44047  21222727.74146  25018744.7584   25018754.2834
 -12033137.28148  -9276754.75946  21003827.1494   21003831.1304
  10115146.80647   8045798.16746  24009424.5454   24009426.2214
 02  8  5  3 54  0.0020000  0  8G 3G28G31G11G 8G 2G27G13
  18591719.82947  14645829.97145  24573320.2364   24573327.3594
  -4720123.59647  -3670389.22645  24412527.2624   24412529.3744
  -3735822.99449  -2895436.53147  21303021.3864   21303027.5324
  -7077830.44848  -5504595.18546  22799227.6244   22799229.9524
 -10053903.25348  -7823992.89046  22023604.8864   22023611.9784
  27117507.57447  21296060.27245  25036653.6364   25036662.2504
 -12023323.13648  -9269107.36846  21005695.1314   21005698.6444
  10244932.66047   8146929.95845  24034121.0294   24034122.6154
 02  8  5  3 54 30.0020000  0  8G 3G28G31G11G 8G 2G27G13
  18726712.94147  14751019.39445  24599006.5514   24599015.5164
  -4747633.70847  -3691825.64945  24407287.0594   24407293.9074
  -3639484.90149  -2820367.84947  21321359.0744   21321360.3114
  -7113647.73948  -5532504.64146  22792409.7044   22792412.3944
 -10093782.42148  -7855067.55146  22016016.8244   22016022.4864
  27211711.20347  21369465.65645  25054579.6994   25054588.8924
 -12013014.46848  -9261074.62447  21007656.9674   21007660.4044
  10374842.60747   8248158.48045  24058841.3274   24058844.4144
 02  8  5  3 55  0.0020000  0  8G 3G28G31G11G 8G 2G27G13
  18861717.69547  14856217.82745  24624696.3324   24624706.5724
  -4775156.11947  -3713271.64245  24402056.2814   24402056.2244
  -3542810.42949  -2745037.15947  21339750.9944   21339756.9024
  -7149175.23248  -5560188.30246  22785649.6954   22785654.1134
 -10133372.59748  -7885917.03447  22008484.7644   22008488.8554
  27305974.88947  21442917.83746  25072517.8714   25072527.4324
 -12002243.31148  -9252681.51047  21009706.9124   21009710.1854
  10504840.35247   8349455.40645  24083577.3224   24083582.2254
 02  8  5  3 55 30.0020000  0  8G 3G28G31G11G 8G 2G27G13
  18996838.06047  14961506.34745  24650416.3844   24650418.5654
  -4802584.86547  -3734644.61245  24396831.2524   24396837.2344
  -3445696.27249  -2669363.73947  21358234.6014   21358236.9734
  -7184304.12348  -5587561.49546  22778967.1454   22778969.7204
 -10172565.48748  -7916456.92047  22001028.6034   22001031.1104
  27400404.91347  21516499.62945  25090486.5444   25090495.5914
 -11990902.03448  -9243844.14747  21011865.8844   21011868.2354
  10635027.74747   8450900.09445  24108350.7874   24108356.1434
 02  8  5  3 56  0.0020000  0  8G 3G28G31G11G 8G 2G27G13
  19131960.92447  15066796.83945  24676129.9974   24676132.1154
  -4830031.34247  -3756031.46445  24391609.2554   24391613.2994
  -3348256.04549  -2593436.36747  21376774.8424   21376779.2224
  -7219143.28448  -5614708.90146  22772335.4514   22772338.6644
 -10211469.78048  -7946771.91947  21993626.1684   21993627.6054
  27494890.32247  21590124.57645  25108466.1484   25108475.8754
 -11979099.78848  -9234647.58747  21014111.7524   21014114.1254
  10765290.57247   8552403.52845  24133137.3604   24133143.6044
 02  8  5  3 56 30.0020000  0  8G 3G28G31G11G 8G 2G27G13
  19267106.20647  15172104.76545  24701842.9244   24701850.6874
  -4857473.73547  -3777415.07246  24386391.4574   24386392.2044
  -3250470.40249  -2517239.70047  21395382.9064   21395387.0944
  -7253668.02348  -5641611.16346  22765765.0894   22765768.2754
 -10250060.63948  -7976842.67547  21986281.2944   21986283.7704
  27589453.66147  21663810.26445  25126460.6434   25126470.7674
 -11966813.24848  -9225073.65047  21016449.6604   21016452.6004
  10895647.83347   8653980.58845  24157942.8004   24157950.5944
 02  8  5  3 57  0.0020000  0  8G 3G28G31G11G 8G 2G27G13
  19402324.97847  15277469.99145  24727569.4044   24727580.8464
  -4884859.11947  -3798754.28045  24381174.0314   24381179.9594
  -3152288.85849  -2440734.68947  21414067.2724   21414070.3874
  -7287822.93948  -5668225.33446  22759267.0684   22759271.0174
 -10288282.87448  -8006626.20547  21979007.5324   21979010.2164
  27684148.15047  21737598.17545  25144482.9104   25144489.4764
 -11953987.62248  -9215079.65147  21018890.6594   21018893.1534
  11026149.05647   8755669.80345  24182776.2164   24182783.5734
 02  8  5  3 57 30.0020000  0  8G 3G28G31G11G 8G 2G27G13
  19537506.94047  15382806.56445  24753297.5134   24753305.0904
  -4912296.35647  -3820133.91645  24375957.4214   24375958.4254
  -3053822.55749  -2364007.64547  21432802.2924   21432808.1764
  -7321713.54648  -5694633.68946  22752818.1974   22752820.7234
 -10326242.24648  -8036204.90347  21971783.1044   21971787.2834
  27778865.74247  21811404.09945  25162507.0524   25162514.1784
 -11940730.14449  -9204749.14447  21021413.4184   21021415.7294
  11156682.83247   8857384.36545  24207617.1944   24207622.8684
 02  8  5  3 58  0.0020000  0  8G 3G28G31G11G 8G 2G27G13
  19672653.43247  15488115.47945  24779018.5414   24779024.4404
  -4939782.14447  -3841551.32445  24370724.0724   24370729.7864
  -2955070.50849  -2287058.06647  21451598.2364   21451599.9744
  -7355334.37048  -5720831.63446  22746418.3534   22746421.2354
 -10363932.95048  -8065574.28046  21964607.7254   21964614.8124
  27873609.98847  21885230.78645  25180535.1784   25180543.2844
 -11927035.63849  -9194078.09647  21024019.5424   21024021.7924
  11287249.48447   8959124.56445  24232465.1524   24232468.9874
 02  8  5  3 58 30.0020000  0  8G 3G28G31G11G 8G 2G27G13
  19807836.93747  15593453.18045  24804745.8364   24804746.7904
  -4967241.89547  -3862948.50845  24365497.9774   24365502.5414
  -2855960.79149  -2209829.68047  21470453.3104   21470460.1594
  -7388607.96848  -5746759.00446  22740087.0924   22740090.9584
 -10401277.60248  -8094674.00746  21957500.9124   21957507.9744
  27968455.95147  21959136.70345  25198587.0154   25198592.1584
 -11912827.75049  -9183007.01147  21026723.2764   21026725.8044
  11417919.79947   9060945.56545  24257331.3234   24257335.2524
 02  8  5  3 59  0.0020000  0  8G 3G28G31G11G 8G 2G27G13
  19943050.04947  15698813.95345  24830470.2894   24830479.0184
  -4994681.67147  -3884330.06745  24360281.3324   24360281.6994
  -2756501.29348  -2132328.79547  21489386.1654   21489386.8434
  -7421537.21248  -5772418.16946  22733823.3414   22733825.3314
 -10438279.24048  -8123506.44347  21950461.0864   21950467.6334
  28063398.50847  22033117.86745  25216652.9534   25216659.1124
 -11898110.79549  -9171539.24747  21029523.9724   21029526.1934
  11548685.20847   9162840.72145  24282216.1804   24282219.1084
 02  8  5  3 59 30.0020000  0  8G 3G28G31G11G 8G 2G27G13
  20078259.08347  15804171.61245  24856198.4134   24856206.8974
  -5022133.20847  -3905720.84345  24355051.4014   24355058.0474
  -2656726.63449  -2054582.32347  21508366.2034   21508372.9754
  -7454151.63148  -5797832.03346  22727615.1124   22727617.9154
 -10474967.32048  -8152094.54647  21943480.6214   21943485.5344
  28158405.94347  22107149.54445  25234732.1364   25234739.6134
 -11882914.89449  -9159698.28447  21032415.5764   21032417.6404
  11679510.66047   9264782.65045  24307112.6584   24307113.0594
 02  8  5  4  0  0.0020000  0  8G 3G28G31G11G 8G 2G27G13
  20213464.73847  15909526.62545  24881925.8584   24881935.3694
  -5049594.20347  -3927119.00445  24349831.4244   24349831.3934
  -2556636.60048  -1976590.07147  21527418.7664   21527419.9484
  -7486445.86948  -5822996.28446  22721468.7004   22721471.2824
 -10511336.51148  -8180434.15347  21936562.8974   21936564.9504
  28253481.27847  22181234.07445  25252825.5274   25252831.1884
 -11867235.83449  -9147480.84047  21035399.5974   21035401.2804
  11810395.60747   9366770.89845  24332021.0674   24332019.3584
 02  8  5  4  0 30.0020000  0  8G 3G28G31G11G 8G 2G27G13
  20348707.35147  16014910.42745  24907667.9884   24907673.0204
  -5077022.71347  -3948491.79345  24344607.5584   24344613.8024
  -2456191.78849  -1898321.44847  21546527.0804   21546533.3804
  -7518375.24248  -5847876.24246  22715393.7964   22715397.0304
 -10547342.28149  -8208490.55447  21929711.2844   21929713.2434
  28348666.91047  22255404.54845  25270939.3494   25270945.1884
 -11851030.23849  -9134853.10447  21038482.9504   21038485.0294
  11941379.01547   9468835.88245  24356944.7384   24356945.5034
 02  8  5  4  1  0.0020000  0  8G 3G28G31G11G 8G 2G27G13
  20483996.61447  16120330.55545  24933414.3734   24933417.3874
  -5104407.24547  -3969830.36945  24339397.3984   24339400.8724
  -2355383.01748  -1819769.10847  21565714.3394   21565716.6974
  -7549925.70348  -5872461.07046  22709391.3934   22709393.7194
 -10582970.36149  -8236252.66647  21922930.6564   21922933.5664
  28443974.91247  22329670.40745  25289076.8624   25289081.5634
 -11834284.66249  -9121804.60447  21041669.7924   21041671.5354
  12072469.54247   9570984.36745  24381888.3714   24381891.4314
 02  8  5  4  1 30.0020000  0  8G 3G28G31G11G 8G 2G27G13
  20619317.54147  16225775.35245  24959161.9264   24959167.7354
  -5131760.92047  -3991144.85345  24334196.0124   24334195.7014
  -2254225.79849  -1740945.37947  21584961.5434   21584966.3364
  -7581107.96348  -5896758.92146  22703454.9604   22703458.7354
 -10618231.26648  -8263728.66847  21916220.8964   21916222.9724
  28539392.62047  22404021.74045  25307233.7534   25307239.7384
 -11817010.67649  -9108344.35547  21044956.9284   21044958.6674
  12203650.47447   9673203.25445  24406849.6944   24406854.2364
 02  8  5  4  2  0.0020000  0  8G 3G28G31G11G 8G 2G27G13
  20754642.50447  16331223.34145  24984909.5944   24984919.1184
  -5159109.67447  -4012455.53545  24328983.8114   24328992.5074
  -2152748.73949  -1661872.27447  21604271.8094   21604275.8824
  -7611945.29648  -5920787.89546  22697587.7384   22697590.6094
 -10653148.33348  -8290936.72847  21909575.9184   21909578.8654
  28634894.58347  22478438.76445  25325407.1064   25325411.5564
 -11799233.16549  -9094491.74847  21048339.8324   21048341.6504
  12334892.97947   9775470.10745  24431822.5974   24431829.8544
 02  8  5  4  2 30.0020000  0  8G 3G28G31G11G 8G 2G27G13
  20890010.23547  16436704.67545  25010668.5534   25010678.7184
  -5186413.09948  -4033730.90646  24323795.4644   24323795.0974
  -2050913.35748  -1582520.10747  21623652.3574   21623654.5814
  -7642394.06248  -5944514.18746  22691794.2164   22691797.7324
 -10687678.01448  -8317842.96046  21903000.9404   21903008.0114
  28730521.94447  22552953.54945  25343604.2664   25343608.3684
 -11780909.43749  -9080213.51847  21051826.8254   21051828.5514
  12466234.76047   9877814.30045  24456816.9804   24456822.5374
                            4  1
original post-header comments being skipped                 COMMENT
 02  8  5  4  3  0.0000000  0  8G 3G28G31G11G 8G 2G27G13
  21025340.08347  16542156.46045  24436841.6304   24436845.4404
  -5213750.16047  -4055032.41946  23719003.8754   23719009.6444
  -1948801.61849  -1502952.45947  21043495.5204   21043501.4444
  -7672530.92848  -5967997.53346  22086474.0304   22086477.0494
 -10721897.07748  -8344507.17446  21296904.1964   21296911.7774
  28826195.94747  22627504.67645  24762224.4994   24762231.4414
 -11762117.25349  -9065570.25847  20455817.8244   20455819.7034
  12597593.67647   9980171.90345  23882228.7694   23882235.3704
 02  8  5  4  3 30.0000000  0  8G 3G28G31G11G 8G 2G27G13
  21160704.71847  16647635.37045  24462601.7744   24462605.1984
  -5241046.34647  -4076302.16346  23713810.4724   23713815.2974
  -1846341.13548  -1423113.16847  21062998.6754   21062999.0344
  -7702279.03548  -5991177.78846  22080811.5904   22080815.4524
 -10755728.23448  -8370869.09846  21290465.9534   21290473.1354
  28921991.56347  22702150.57945  24780452.8704   24780460.0644
 -11742780.75849  -9050502.86747  20459497.5524   20459499.1244
  12729040.79547  10082598.23245  23907242.6144   23907248.6464
 02  8  5  4  4  0.0000000  0  8G 3G28G31G11G 8G 2G27G13
  21296084.77547  16753126.22345  24488362.5084   24488367.2384
  -5268319.50247  -4097553.88146  23708623.4704   23708625.5404
  -1743552.32149  -1343017.97947  21082552.7744   21082559.0954
  -7731653.41948  -6014066.82346  22075222.1684   22075226.7064
 -10789186.61448  -8396940.56946  21284098.4234   21284106.6404
  29017891.59347  22776877.81745  24798701.6064   24798709.1124
 -11722915.87349  -9035023.73647  20463277.3434   20463279.5224
  12860555.45047  10185077.21845  23932270.7744   23932274.8194
 02  8  5  4  4 30.0000000  0  8G 3G28G31G11G 8G 2G27G13
  21431479.59747  16858628.62245  24514123.1254   24514131.6474
  -5295568.46047  -4118786.81845  23703432.7844   23703438.5524
  -1640436.23448  -1262667.78447  21102181.6454   21102181.4694
  -7760650.24648  -6036661.79546  22069707.4444   22069708.6704
 -10822268.25448  -8422718.46646  21277806.2324   21277811.2144
  29113897.31247  22851687.39045  24816969.9454   24816979.0174
 -11702520.15348  -9019130.96947  20467158.5864   20467160.5704
  12992135.92847  10287607.50945  23957312.0834   23957313.9424
 02  8  5  4  5  0.0010000  0  8G 3G28G31G11G 8G 2G27G13
  21566926.73847  16964171.86445  24539896.6724   24539907.4394
  -5322759.63747  -4139974.70546  23698266.0434   23698263.9834
  -1536957.58249  -1182035.10847  21121866.8194   21121872.4834
  -7789233.53648  -6058934.50346  22064265.4724   22064268.9244
 -10854937.40448  -8448174.92847  21271591.7464   21271594.7534
  29210046.88247  22926609.05945  24835266.7054   24835275.9404
 -11681556.83248  -9002795.92047  20471147.8014   20471149.7754
  13123817.82747  10390216.77945  23982370.7964   23982372.2014
 02  8  5  4  5 30.0010000  0  8G 3G28G31G11G 8G 2G27G13
  21702345.09847  17069692.65845  24565667.6424   24565675.9484
  -5349961.09047  -4161170.59645  23693081.2634   23693089.7494
  -1433195.69448  -1101181.64747  21141616.4264   21141618.0034
  -7817468.86848  -6080935.96746  22058891.8764   22058895.3364
 -10887259.17348  -8473360.70547  21265440.8024   21265443.2554
  29306264.18147  23001583.47345  24853576.7064   24853585.0474
 -11660096.07948  -8986073.26247  20475231.7894   20475233.6224
  13255519.26447  10492841.29545  24007432.7124   24007434.5524
 02  8  5  4  6  0.0010000  0  8G 3G28G31G11G 8G 2G27G13
  21837745.35447  17175199.30645  24591437.1014   24591441.9154
  -5377166.19748  -4182369.37946  23687911.0164   23687911.2924
  -1329141.77249  -1020100.73647  21161413.7284   21161418.7514
  -7845346.91248  -6102659.06346  22053588.1794   22053591.7544
 -10919224.20749  -8498268.49347  21259360.3574   21259361.3434
  29402560.61647  23076619.56445  24871899.9304   24871910.8974
 -11638128.05548  -8968955.32947  20479411.9454   20479413.8694
  13387249.58647  10595488.33845  24032496.5564   24032502.6734
 02  8  5  4  6 30.0010000  0  8G 3G28G31G11G 8G 2G27G13
  21973138.54447  17280700.42045  24617203.9864   24617206.3404
  -5404362.11548  -4203560.92046  23682734.5144   23682736.0464
  -1224785.78249   -938784.32847  21181273.3064   21181277.2194
  -7872852.28148  -6124091.88546  22048354.5444   22048357.1054
 -10950817.20049  -8522886.37347  21253347.8534   21253349.6224
  29498949.39347  23151727.57445  24890242.2074   24890252.8694
 -11615638.53648  -8951431.03547  20483691.5924   20483693.7544
  13519018.59247  10698165.48545  24057568.2564   24057575.5124
 02  8  5  4  7  0.0010000  0  8G 3G28G31G11G 8G 2G27G13
  22108507.75647  17386182.85045  24642958.6644   24642966.1754
  -5431564.45747  -4224757.56346  23677554.9504   23677559.4634
  -1120145.44949   -857246.48247  21201186.5334   21201189.5134
  -7899998.40348  -6145244.67746  22043186.7854   22043189.7254
 -10982051.22248  -8547224.56747  21247402.7114   21247405.6684
  29595415.42547  23226895.80045  24908600.2634   24908609.3064
 -11592641.73748  -8933511.46147  20488067.7194   20488069.7804
  13650807.14647  10800857.86645  24082646.0114   24082654.9744
 02  8  5  4  7 30.0010000  0  8G 3G28G31G11G 8G 2G27G13
  22243863.03247  17491654.48545  24668712.0484   24668722.2894
  -5458761.24748  -4245949.81746  23672385.2014   23672384.7754
  -1015211.42949   -775479.66947  21221152.4344   21221157.9704
  -7926770.76348  -6166106.15346  22038093.0834   22038096.6794
 -11012911.42448  -8571271.45747  21241530.7744   21241532.2034
  29691971.10347  23302133.82045  24926976.2774   24926984.1674
 -11569124.09548  -8915186.03647  20492542.8454   20492545.1624
  13782624.31547  10903572.55545  24107731.7104   24107739.3324
 02  8  5  4  8  0.0010000  0  8G 3G28G31G11G 8G 2G27G13
  22379233.00047  17597137.57445  24694473.4144   24694483.2214
  -5485922.05547  -4267114.05846  23667208.9294   23667216.6814
   -909955.88549   -693462.42047  21241186.3184   21241187.6974
  -7953136.28848  -6186650.70046  22033077.2574   22033080.4074
 -11043365.42048  -8595001.81247  21235734.8884   21235737.4954
  29788646.96247  23377465.50645  24945374.2574   24945381.8774
 -11545054.70648  -8896430.67447  20497123.0984   20497125.5494
  13914497.38447  11006330.75845  24132829.5964   24132834.5924
 02  8  5  4  8 30.0010000  0  9G 3G28G31G11G 8G 2G27G 7G13
  22514604.05447  17702621.46845  24720236.8684   24720243.7874
  -5513058.66848  -4288259.47546  23662051.5084   23662050.8644
   -804393.08249   -611205.68147  21261269.1754   21261275.6214
  -7979104.34148  -6206885.62546  22028135.1014   22028137.6404
 -11073422.01248  -8618422.53447  21230011.7314   21230018.7434
  29885431.67947  23452881.96745  24963793.2774   24963797.9784
 -11520443.61348  -8877253.20447  20501805.9844   20501808.8634
  -1338169.03757   -906545.74845  24914383.3954   24914388.4714
  14046411.31347  11109120.83145  24157933.6754   24157936.4574
 02  8  5  4  9  0.0010000  0  9G 3G28G31G11G 8G 2G27G 7G13
  22649969.93247  17808101.31145  24746000.1534   24746002.8634
  -5540176.14647  -4309389.92046  23656885.3334   23656892.7414
   -698530.32648   -528715.23747  21281420.3614   21281420.3644
  -8004677.58548  -6226812.71947  22023267.1264   22023270.6884
 -11103083.43248  -8641535.33646  21224367.3254   21224373.6734
  29982320.85547  23528379.83545  24982230.9994   24982236.4244
 -11495294.31248  -8857656.35147  20506591.6024   20506594.3694
  -1387835.85947   -945247.15945  24904933.1774   24904939.3204
  14178358.32547  11211936.71345  24183042.6324   24183045.2234
 02  8  5  4  9 30.0010000  0  9G 3G28G31G11G 8G 2G27G 7G13
  22785317.98747  17913567.25645  24771755.8514   24771759.0774
  -5567285.13748  -4330513.81046  23651731.0794   23651733.2944
   -592381.06549   -446001.56547  21301613.9394   21301620.2114
  -8029864.36148  -6246438.70646  22018473.6514   22018478.7334
 -11132358.15248  -8664346.79046  21218795.2464   21218802.3744
  30079304.12747  23603950.99045  25000688.7184   25000691.5264
 -11469616.53148  -8837647.69547  20511477.8624   20511480.7924
  -1437347.46447   -983827.61645  24895510.9804   24895516.9184
  14310324.85547  11314767.82445  24208155.4014   24208157.0524
 02  8  5  4 10  0.0010000  0  9G 3G28G31G11G 8G 2G27G 7G13
  22920659.73647  18019028.33345  24797505.6394   24797514.1284
  -5594372.76247  -4351620.98646  23646574.0214   23646579.6494
   -485934.63549   -363056.26647  21321874.5164   21321876.3164
  -8054649.26648  -6265751.68546  22013760.8524   22013761.5384
 -11161230.52148  -8686844.75046  21213300.0784   21213309.3554
  30176394.54847  23679605.68545  25019162.3874   25019167.9784
 -11443396.25148  -8817216.31447  20516467.2504   20516470.1654
  -1486689.73047  -1022276.07245  24886121.2594   24886127.5444
  14442320.61047  11417621.68245  24233271.9834   24233274.1694
 02  8  5  4 10 30.0010000  0  9G 3G28G31G11G 8G 2G27G 7G13
  23056016.33847  18124500.96845  24823259.3234   24823271.6494
  -5621415.90647  -4372693.57346  23641427.8024   23641431.4904
   -379170.49049   -279863.49047  21342187.7794   21342192.5794
  -8079006.86248  -6284731.62246  22009123.1534   22009126.1274
 -11189675.11248  -8709009.38046  21207889.5064   21207896.2414
  30273615.45347  23755362.07845  25037660.4684   25037667.5384
 -11416609.01648  -8796343.14947  20521564.2804   20521567.7414
  -1535838.84647  -1060574.05145  24876766.0814   24876774.8204
  14574365.37747  11520513.68445  24258395.1974   24258401.8544
 02  8  5  4 11  0.0010000  0  9G 3G28G31G11G 8G 2G27G 7G13
  23191327.64247  18229938.26645  24849011.1114   24849019.3254
  -5648472.92048  -4393776.91246  23636283.2604   23636283.6264
   -272149.63549   -196470.57347  21362553.9064   21362558.4474
  -8102993.28448  -6303422.26046  22004557.4584   22004562.0304
 -11217747.55748  -8730884.00047  21202548.4844   21202553.4584
  30370909.11347  23831175.13545  25056173.1234   25056183.6114
 -11389312.13148  -8775072.85447  20526758.3584   20526762.1854
  -1584852.26147  -1098766.33145  24867439.4504   24867446.1444
  14706397.80847  11623396.06345  24283518.6474   24283526.6704
 02  8  5  4 11 30.0010000  0  9G 3G28G31G11G 8G 2G27G 7G13
  23326626.99246  18335366.24145  24874762.9364   24874766.1654
  -5675508.94948  -4414843.94846  23631130.9274   23631139.5674
   -164839.62049   -112852.46547  21382975.2694   21382978.6094
  -8126571.51548  -6321794.87446  22000073.2994   22000075.8714
 -11245410.79648  -8752439.76747  21197285.5284   21197289.5954
  30468310.29947  23907071.94745  25074706.4764   25074717.6194
 -11361469.76948  -8753377.50846  20532055.9304   20532060.6214
  -1633694.37447  -1136825.12145  24858145.5264   24858152.8504
  14838449.89347  11726293.76745  24308647.9624   24308656.6224
 02  8  5  4 12  0.0010000  0  9G 3G28G31G11G 8G 2G27G 7G13
  23461932.85646  18440799.32644  24900510.7954   24900516.1334
  -5702504.09348  -4435879.10346  23626001.8574   23626001.2334
    -57223.29749    -28995.56047  21403451.1284   21403457.2794
  -8149718.93448  -6339831.86846  21995669.7694   21995670.2294
 -11272642.27449  -8773659.08147  21192106.2364   21192108.0674
  30565839.40747  23983068.46045  25093264.8534   25093276.9994
 -11333060.63048  -8731240.51646  20537461.2714   20537466.3424
  -1682344.42047  -1174734.21945  24848887.2494   24848895.7714
  14970538.35547  11829219.84745  24333787.1664   24333792.8454
 02  8  5  4 12 30.0010000  0  9G 3G28G31G11G 8G 2G27G 7G13
  23597248.89647  18546240.38645  24926258.7834   24926262.5994
  -5729452.94848  -4456878.15246  23620867.4694   23620873.8684
     50702.64748     55102.52647  21423993.9264   21423994.9814
  -8172427.97148  -6357527.20446  21991344.4924   21991348.1394
 -11299434.02649  -8794535.74747  21187007.1894   21187009.8514
  30663502.38747  24059169.27445  25111850.5164   25111862.2614
 -11304078.51848  -8708657.04746  20542976.0844   20542981.4754
  -1730796.05847  -1212488.74345  24839667.5684   24839674.7984
  15102665.75247  11932176.26945  24358932.4374   24358934.4754
 02  8  5  4 13  0.0010000  0  8G 3G28G31G11G 8G27G 7G13
  23732539.33047  18651661.49745  24952002.8934   24952008.5204
  -5756389.53348  -4477867.72446  23615745.7274   23615747.7084
    158901.16849    139413.06247  21444577.9064   21444584.1434
  -8194730.61148  -6374905.79447  21987101.5184   21987105.4484
 -11325817.83449  -8815094.54747  21181986.0414   21181987.9814
 -11274556.26048  -8685652.68046  20548592.7354   20548599.3264
  -1779082.84847  -1250114.77645  24830478.2164   24830486.3574
  15234794.35547  12035133.60045  24384075.8934   24384077.3114
 02  8  5  4 13 30.0010000  0  8G 3G28G31G11G 8G27G 7G13
  23867806.00147  18757064.09145  24977740.0454   24977750.7104
  -5783310.52248  -4498845.04846  23610622.8344   23610625.7374
    267373.50948    223936.94647  21465225.9284   21465226.3124
  -8216621.00248  -6391963.22546  21982937.8384   21982939.8734
 -11351787.67649  -8835330.76247  21177045.7924   21177046.0454
 -11244489.53348  -8662224.04846  20554313.8444   20554320.8794
  -1827200.37547  -1287608.93545  24821321.7184   24821330.2144
  15366924.74847  12138092.34645  24409218.7264   24409221.2344
 02  8  5  4 14  0.0010000  0  8G 3G28G31G11G 8G27G 7G13
  24003080.04347  18862472.41045  25003483.0444   25003492.5714
  -5810183.21148  -4519784.81646  23605505.6954   23605510.7844
    376149.59749    308697.48647  21485919.2734   21485925.4444
  -8238064.31548  -6408672.41146  21978855.6134   21978858.8284
 -11377308.72049  -8855217.26047  21172188.6334   21172191.2094
 -11213845.03048  -8638345.20046  20560145.1374   20560152.6164
  -1875115.21647  -1324945.14445  24812204.0234   24812212.0484
  15499086.71947  12241075.66245  24434364.7794   24434371.2814
 02  8  5  4 14 30.0010000  0  8G 3G28G31G11G 8G27G 7G13
  24138367.06047  18967890.77345  25029232.0014   25029236.5964
  -5837000.30348  -4540681.19846  23600408.1354   23600407.5814
    485234.23649    393698.53747  21506681.2534   21506683.5734
  -8259051.35448  -6425025.84347  21974861.3964   21974864.8344
 -11402370.78849  -8874746.14147  21167418.5834   21167421.4334
 -11182613.98948  -8614009.31146  20566088.1484   20566095.4834
  -1922819.25847  -1362117.08145  24803125.4214   24803134.4364
  15631284.51447  12344086.90245  24459518.9774   24459527.3164
 02  8  5  4 15  0.0010000  0  8G 3G28G31G11G 8G27G 7G13
  24273604.77347  19073270.71145  25054969.4524   25054972.0204
  -5863822.32247  -4561581.47546  23595296.6984   23595303.7034
    594564.35249    478890.75747  21527484.1864   21527488.2564
  -8279640.18948  -6441069.00846  21970943.2374   21970947.6294
 -11427032.53849  -8893963.06647  21162726.7014   21162727.4094
 -11150856.29748  -8589263.04946  20572131.9674   20572138.5564
  -1970372.49547  -1399171.47445  24794076.9784   24794085.0654
  15763454.45647  12447076.40945  24484671.2364   24484679.4504
 02  8  5  4 15 30.0010000  0  8G 3G28G31G11G 8G27G 7G13
  24408834.82347  19178644.66845  25080700.0924   25080705.5254
  -5890606.11048  -4582451.93146  23590207.5924   23590207.2274
    704180.51749    564306.00147  21548342.6074   21548347.4434
  -8299785.05748  -6456766.40146  21967112.8854   21967114.1634
 -11451248.11549  -8912832.31047  21158118.1554   21158120.1014
 -11118527.90748  -8564072.08646  20578285.1894   20578290.3674
  -2017730.86647  -1436074.02745  24785063.4374   24785072.9724
  15895636.51047  12550075.38845  24509827.0114   24509832.3344
 02  8  5  4 16  0.0010000  0  8G 3G28G31G11G 8G27G 7G13
  24544016.04047  19283980.58445  25106421.3154   25106429.7634
  -5917391.25747  -4603323.43446  23585102.3114   23585109.3024
    814040.90448    649911.42747  21569251.6754   21569253.0824
  -8319524.01948  -6472147.40746  21963354.1564   21963356.9034
 -11475054.39749  -8931382.65647  21153586.4334   21153590.4324
 -11085667.24348  -8538466.36846  20584539.4924   20584543.7124
  -2064933.29647  -1472855.06245  24776082.5134   24776090.3894
  16027788.17447  12653050.68145  24534978.7784   24534978.5004
 02  8  5  4 16 30.0010000  0  8G 3G28G31G11G 8G27G 7G13
  24679174.43847  19389298.77145  25132139.2354   25132148.6214
  -5944150.27848  -4624174.62346  23580017.5414   23580016.7184
    924170.21749    735726.50247  21590203.3894   21590210.2874
  -8338827.10348  -6487188.68047  21959679.0124   21959684.5464
 -11498421.77948  -8949591.00947  21149139.5924   21149142.6444
 -11052246.09148  -8512423.91146  20590900.3414   20590903.2174
  -2111951.40447  -1509492.47745  24767134.7314   24767142.9884
  16159933.74247  12756021.22945  24560123.9424   24560125.3184
 02  8  5  4 17  0.0010000  0  8G 3G28G31G11G 8G27G 7G13
  24814368.83547  19494645.06645  25157866.8454   25157876.2064
  -5970822.68147  -4644958.25246  23574936.1614   23574943.5994
   1034626.70248    821796.46847  21611230.1524   21611229.6104
  -8357632.01848  -6501841.84246  21956103.2294   21956106.4444
 -11521287.40548  -8967408.36847  21144787.1584   21144790.2764
 -11018203.15548  -8485896.94947  20597378.9614   20597381.7564
  -2158723.88947  -1545938.44645  24758234.0814   24758242.3404
  16292130.95047  12859031.98645  24585279.2704   24585282.8824
 02  8  5  4 17 30.0010000  0  7G28G31G11G 8G27G 7G13
  -5997492.27847  -4665739.77946  23569864.3814   23569865.6924
   1145323.68549    908053.84247  21632287.4494   21632294.0964
  -8376020.27748  -6516170.41346  21952606.8924   21952606.8704
 -11543732.52048  -8984898.05247  21140514.3054   21140520.3244
 -10983621.34748  -8458950.09147  20603960.0074   20603962.2384
  -2205334.35547  -1582258.15145  24749364.8904   24749373.4824
  16424292.71347  12962015.15545  24610425.7874   24610432.9464
 02  8  5  4 18  0.0010000  0  7G28G31G11G 8G27G 7G13
  -6024150.24348  -4686512.14146  23564791.4594   23564792.7684
   1256267.38548    994503.51047  21653404.8064   21653406.7564
  -8393980.70048  -6530165.53546  21949183.1824   21949188.1854
 -11565746.48648  -9002051.80047  21136325.5964   21136332.3034
 -10948491.62548  -8431576.28947  20610645.5284   20610647.2664
  -2251773.18347  -1618444.12845  24740526.9834   24740536.3214
  16556424.71547  13064975.07045  24635567.2564   24635576.1354
 02  8  5  4 18 30.0010000  0  7G28G31G11G 8G27G 7G13
  -6050821.89948  -4707295.26046  23559714.5134   23559718.6784
   1367429.85249   1081123.53447  21674554.3104   21674560.4264
  -8411537.40348  -6543846.00747  21945844.1214   21945848.3474
 -11587352.50648  -9018887.65747  21132213.1934   21132220.0904
 -10912838.32549  -8403794.50947  20617430.3654   20617431.8764
  -2298065.37347  -1654515.86245  24731717.6234   24731726.0634
  16688498.28847  13167889.50145  24660702.9044   24660709.4384
 02  8  5  4 19  0.0010000  0  7G28G31G11G 8G27G 7G13
  -6077446.21448  -4728041.43846  23554651.5924   23554652.2654
   1478869.28149   1167959.49447  21695761.1704   21695766.5634
  -8428626.86048  -6557162.42246  21942594.6244   21942596.1014
 -11608486.86248  -9035355.98146  21128190.3424   21128197.7014
 -10876600.07749  -8375556.92347  20624326.2904   20624327.9404
  -2344149.14547  -1690425.17945  24722949.6414   24722956.4414
  16820571.40447  13270803.64745  24685837.9454   24685842.8274
 02  8  5  4 19 30.0010000  0  7G28G31G11G 8G27G 7G13
  -6103985.94547  -4748721.72446  23549595.0504   23549601.6074
   1590620.96948   1255038.63947  21717029.5174   21717032.1344
  -8445209.87248  -6570084.35546  21939437.4584   21939440.3744
 -11629110.07848  -9051426.01046  21124266.4004   21124273.8704
 -10839738.57749  -8346833.69047  20631340.8264   20631342.6634
  -2389986.40447  -1726142.38745  24714226.0514   24714234.5684
  16952678.54347  13373744.28345  24710979.5204   24710981.3504
 02  8  5  4 20  0.0010000  0  7G28G31G11G 8G27G 7G13
  -6130481.62748  -4769367.67846  23544559.8874   23544559.5764
   1702641.43749   1342327.34747  21738341.8594   21738348.8534
  -8461325.23348  -6582641.71047  21936369.6254   21936373.5174
 -11649260.31648  -9067127.50047  21120432.2884   21120440.3164
 -10802293.62849  -8317655.82247  20638466.4294   20638468.1794
  -2435617.26647  -1761698.80245  24705543.6474   24705550.8394
  17084775.98947  13476677.33145  24736117.9474   24736118.2244
 02  8  5  4 20 30.0010000  0  7G28G31G11G 8G27G 7G13
  -6156929.29048  -4789976.20846  23539521.0954   23539526.5114
   1814932.53048   1429826.86747  21759717.2654   21759717.1784
  -8476966.56648  -6594829.67347  21933393.4214   21933397.6064
 -11668931.24248  -9082455.49947  21116689.0044   21116696.1804
 -10764260.56849  -8288019.68547  20645703.7854   20645705.7714
  -2481036.83847  -1797090.55445  24696900.4784   24696907.0594
  17216865.24047  13579604.02445  24761248.0814   24761253.6974
 02  8  5  4 21  0.0010000  0  7G28G31G11G 8G27G 7G13
  -6183335.86948  -4810552.77646  23534500.4274   23534502.5584
   1927484.38549   1517529.58947  21781127.6044   21781134.8994
  -8492138.97248  -6606652.36446  21930508.4914   21930510.1024
 -11688127.82548  -9097413.88047  21113036.7224   21113042.7744
 -10725645.99749  -8257930.42347  20653051.6624   20653053.7324
  -2526251.97347  -1832323.00045  24688295.7434   24688302.9954
  17348935.73847  13682516.11845  24786377.1214   24786386.8694
 02  8  5  4 21 30.0010000  0  7G28G31G11G 8G27G 7G13
  -6209707.10448  -4831101.70946  23529479.0804   23529482.9794
   2040288.75348   1605429.12247  21802599.7114   21802600.6074
  -8506846.50848  -6618112.82446  21927708.5634   21927710.4234
 -11706853.37648  -9112005.20347  21109474.5994   21109480.0294
 -10686454.87149  -8227391.89747  20660509.3654   20660511.4024
  -2571267.49947  -1867399.93545  24679728.8204   24679736.8284
  17480978.50147  13785406.51945  24811504.6064   24811514.0624
 02  8  5  4 22  0.0010000  0  7G28G31G11G 8G27G 7G13
  -6236082.66248  -4851654.10446  23524461.6274   23524463.6484
   2153303.44648   1693492.44647  21824101.1934   21824106.4274
  -8521127.08548  -6629240.44247  21924988.5654   21924993.9814
 -11725145.54648  -9126258.84747  21105993.2394   21105999.7864
 -10646726.99348  -8196435.12047  20668068.7514   20668071.3614
  -2616122.67847  -1902351.91045  24671194.9384   24671201.4164
  17612950.74347  13888241.97645  24836621.7874   24836626.5814
